<?xml version="1.0" encoding="UTF-8" standalone="no" ?>
<gpx xmlns="http://www.topografix.com/GPX/1/1" xmlns:xsi="http://www.w3.org/2001/XMLSchema-instance" xsi:schemaLocation="http://www.topografix.com/GPX/1/1 http://www.topografix.com/GPX/1/1/gpx.xsd" version="1.1" creator="VisuGPX - https://www.visugpx.com">
  <metadata>
    <name>140528ROBMinots</name>
    <desc><![CDATA[Sortie technique pour les jeunes]]></desc>
  </metadata>
  <trk>
    <name><![CDATA[140528ROBMinots]]></name>
    <trkseg>
      <trkpt lat="43.41563" lon="6.06963">
        <ele>218.25549316406</ele>
        <time>2014-05-28T12:08:18Z</time>
      </trkpt>
      <trkpt lat="43.41563" lon="6.06965">
        <ele>218.28295898438</ele>
        <time>2014-05-28T12:08:19Z</time>
      </trkpt>
      <trkpt lat="43.41564" lon="6.06966">
        <ele>218.29669189453</ele>
        <time>2014-05-28T12:08:21Z</time>
      </trkpt>
      <trkpt lat="43.41564" lon="6.06967">
        <ele>218.29669189453</ele>
        <time>2014-05-28T12:08:22Z</time>
      </trkpt>
      <trkpt lat="43.41562" lon="6.06967">
        <ele>218.24176025391</ele>
        <time>2014-05-28T12:08:25Z</time>
      </trkpt>
      <trkpt lat="43.41553" lon="6.0697">
        <ele>218</ele>
        <time>2014-05-28T12:08:29Z</time>
      </trkpt>
      <trkpt lat="43.41529" lon="6.06975">
        <ele>218</ele>
        <time>2014-05-28T12:08:36Z</time>
      </trkpt>
      <trkpt lat="43.41518" lon="6.06977">
        <ele>217.64874267578</ele>
        <time>2014-05-28T12:08:40Z</time>
      </trkpt>
      <trkpt lat="43.41516" lon="6.06977">
        <ele>217.59381103516</ele>
        <time>2014-05-28T12:08:41Z</time>
      </trkpt>
      <trkpt lat="43.41513" lon="6.06978">
        <ele>217.48394775391</ele>
        <time>2014-05-28T12:08:42Z</time>
      </trkpt>
      <trkpt lat="43.41513" lon="6.06978">
        <ele>217.45648193359</ele>
        <time>2014-05-28T12:08:45Z</time>
      </trkpt>
      <trkpt lat="43.41508" lon="6.06975">
        <ele>217.30541992188</ele>
        <time>2014-05-28T12:08:49Z</time>
      </trkpt>
      <trkpt lat="43.41503" lon="6.06973">
        <ele>217.09942626953</ele>
        <time>2014-05-28T12:08:53Z</time>
      </trkpt>
      <trkpt lat="43.415" lon="6.0697">
        <ele>217.00329589844</ele>
        <time>2014-05-28T12:08:55Z</time>
      </trkpt>
      <trkpt lat="43.41497" lon="6.06967">
        <ele>217.0205078125</ele>
        <time>2014-05-28T12:08:58Z</time>
      </trkpt>
      <trkpt lat="43.41496" lon="6.06965">
        <ele>217.03407287598</ele>
        <time>2014-05-28T12:09:02Z</time>
      </trkpt>
      <trkpt lat="43.41496" lon="6.06965">
        <ele>217.03475952148</ele>
        <time>2014-05-28T12:09:06Z</time>
      </trkpt>
      <trkpt lat="43.41496" lon="6.06965">
        <ele>217.03453063965</ele>
        <time>2014-05-28T12:09:07Z</time>
      </trkpt>
      <trkpt lat="43.41496" lon="6.06965">
        <ele>217.03407287598</ele>
        <time>2014-05-28T12:09:14Z</time>
      </trkpt>
      <trkpt lat="43.41496" lon="6.06965">
        <ele>217.03407287598</ele>
        <time>2014-05-28T12:09:30Z</time>
      </trkpt>
      <trkpt lat="43.41496" lon="6.06963">
        <ele>217.05104064941</ele>
        <time>2014-05-28T12:09:32Z</time>
      </trkpt>
      <trkpt lat="43.41492" lon="6.06961">
        <ele>217.10765075684</ele>
        <time>2014-05-28T12:09:34Z</time>
      </trkpt>
      <trkpt lat="43.41491" lon="6.0696">
        <ele>217.14848327637</ele>
        <time>2014-05-28T12:09:36Z</time>
      </trkpt>
      <trkpt lat="43.41491" lon="6.0696">
        <ele>217.14848327637</ele>
        <time>2014-05-28T12:10:07Z</time>
      </trkpt>
      <trkpt lat="43.41491" lon="6.06959">
        <ele>217.15129089356</ele>
        <time>2014-05-28T12:10:19Z</time>
      </trkpt>
      <trkpt lat="43.41491" lon="6.06959">
        <ele>217.15129089356</ele>
        <time>2014-05-28T12:10:41Z</time>
      </trkpt>
      <trkpt lat="43.41491" lon="6.06959">
        <ele>217.14384460449</ele>
        <time>2014-05-28T12:11:05Z</time>
      </trkpt>
      <trkpt lat="43.41491" lon="6.06959">
        <ele>217.14384460449</ele>
        <time>2014-05-28T12:11:18Z</time>
      </trkpt>
      <trkpt lat="43.41491" lon="6.06959">
        <ele>217.15408325195</ele>
        <time>2014-05-28T12:11:42Z</time>
      </trkpt>
      <trkpt lat="43.41491" lon="6.06959">
        <ele>217.15408325195</ele>
        <time>2014-05-28T12:12:05Z</time>
      </trkpt>
      <trkpt lat="43.41491" lon="6.06959">
        <ele>217.15408325195</ele>
        <time>2014-05-28T12:12:15Z</time>
      </trkpt>
      <trkpt lat="43.41491" lon="6.06959">
        <ele>217.16349792481</ele>
        <time>2014-05-28T12:12:22Z</time>
      </trkpt>
      <trkpt lat="43.41487" lon="6.06955">
        <ele>217.29534912109</ele>
        <time>2014-05-28T12:12:25Z</time>
      </trkpt>
      <trkpt lat="43.41484" lon="6.06949">
        <ele>217.47755432129</ele>
        <time>2014-05-28T12:12:28Z</time>
      </trkpt>
      <trkpt lat="43.41476" lon="6.06943">
        <ele>217.86187744141</ele>
        <time>2014-05-28T12:12:33Z</time>
      </trkpt>
      <trkpt lat="43.41471" lon="6.06937">
        <ele>218</ele>
        <time>2014-05-28T12:12:37Z</time>
      </trkpt>
      <trkpt lat="43.41469" lon="6.06925">
        <ele>218</ele>
        <time>2014-05-28T12:12:41Z</time>
      </trkpt>
      <trkpt lat="43.41473" lon="6.06911">
        <ele>217.96636962891</ele>
        <time>2014-05-28T12:12:45Z</time>
      </trkpt>
      <trkpt lat="43.41475" lon="6.06907">
        <ele>217.93768310547</ele>
        <time>2014-05-28T12:12:47Z</time>
      </trkpt>
      <trkpt lat="43.41475" lon="6.06904">
        <ele>217.94799804688</ele>
        <time>2014-05-28T12:12:50Z</time>
      </trkpt>
      <trkpt lat="43.41475" lon="6.06902">
        <ele>217.94937133789</ele>
        <time>2014-05-28T12:12:51Z</time>
      </trkpt>
      <trkpt lat="43.41473" lon="6.06896">
        <ele>217.98951721191</ele>
        <time>2014-05-28T12:12:55Z</time>
      </trkpt>
      <trkpt lat="43.41474" lon="6.06893">
        <ele>217.99114990234</ele>
        <time>2014-05-28T12:12:59Z</time>
      </trkpt>
      <trkpt lat="43.41474" lon="6.0689">
        <ele>217.99719238281</ele>
        <time>2014-05-28T12:13:00Z</time>
      </trkpt>
      <trkpt lat="43.41476" lon="6.06877">
        <ele>218.37347412109</ele>
        <time>2014-05-28T12:13:03Z</time>
      </trkpt>
      <trkpt lat="43.41473" lon="6.06865">
        <ele>218.82304382324</ele>
        <time>2014-05-28T12:13:06Z</time>
      </trkpt>
      <trkpt lat="43.41473" lon="6.06856">
        <ele>219.16903686523</ele>
        <time>2014-05-28T12:13:08Z</time>
      </trkpt>
      <trkpt lat="43.41474" lon="6.0685">
        <ele>219.35270690918</ele>
        <time>2014-05-28T12:13:10Z</time>
      </trkpt>
      <trkpt lat="43.41474" lon="6.06846">
        <ele>219.4814453125</ele>
        <time>2014-05-28T12:13:12Z</time>
      </trkpt>
      <trkpt lat="43.41475" lon="6.06841">
        <ele>219.63595581055</ele>
        <time>2014-05-28T12:13:14Z</time>
      </trkpt>
      <trkpt lat="43.41475" lon="6.06837">
        <ele>219.75439453125</ele>
        <time>2014-05-28T12:13:15Z</time>
      </trkpt>
      <trkpt lat="43.41478" lon="6.06829">
        <ele>219.77947998047</ele>
        <time>2014-05-28T12:13:17Z</time>
      </trkpt>
      <trkpt lat="43.41482" lon="6.0682">
        <ele>219.64215087891</ele>
        <time>2014-05-28T12:13:19Z</time>
      </trkpt>
      <trkpt lat="43.41485" lon="6.0681">
        <ele>219.54602050781</ele>
        <time>2014-05-28T12:13:21Z</time>
      </trkpt>
      <trkpt lat="43.41489" lon="6.06796">
        <ele>219.40869140625</ele>
        <time>2014-05-28T12:13:24Z</time>
      </trkpt>
      <trkpt lat="43.41494" lon="6.06766">
        <ele>219.57019042969</ele>
        <time>2014-05-28T12:13:30Z</time>
      </trkpt>
      <trkpt lat="43.41497" lon="6.06738">
        <ele>219.60928344727</ele>
        <time>2014-05-28T12:13:35Z</time>
      </trkpt>
      <trkpt lat="43.41497" lon="6.06733">
        <ele>219.43975830078</ele>
        <time>2014-05-28T12:13:36Z</time>
      </trkpt>
      <trkpt lat="43.41498" lon="6.06722">
        <ele>219.08824157715</ele>
        <time>2014-05-28T12:13:38Z</time>
      </trkpt>
      <trkpt lat="43.41499" lon="6.06691">
        <ele>219.02416992188</ele>
        <time>2014-05-28T12:13:44Z</time>
      </trkpt>
      <trkpt lat="43.415" lon="6.06682">
        <ele>219</ele>
        <time>2014-05-28T12:13:46Z</time>
      </trkpt>
      <trkpt lat="43.41504" lon="6.06647">
        <ele>219</ele>
        <time>2014-05-28T12:13:53Z</time>
      </trkpt>
      <trkpt lat="43.41511" lon="6.06611">
        <ele>219.00402832031</ele>
        <time>2014-05-28T12:14:00Z</time>
      </trkpt>
      <trkpt lat="43.4152" lon="6.06557">
        <ele>219.98687744141</ele>
        <time>2014-05-28T12:14:10Z</time>
      </trkpt>
      <trkpt lat="43.41521" lon="6.06551">
        <ele>220</ele>
        <time>2014-05-28T12:14:11Z</time>
      </trkpt>
      <trkpt lat="43.41526" lon="6.06521">
        <ele>220</ele>
        <time>2014-05-28T12:14:17Z</time>
      </trkpt>
      <trkpt lat="43.41537" lon="6.06498">
        <ele>220</ele>
        <time>2014-05-28T12:14:23Z</time>
      </trkpt>
      <trkpt lat="43.41542" lon="6.06491">
        <ele>220</ele>
        <time>2014-05-28T12:14:26Z</time>
      </trkpt>
      <trkpt lat="43.41544" lon="6.06487">
        <ele>220</ele>
        <time>2014-05-28T12:14:28Z</time>
      </trkpt>
      <trkpt lat="43.41545" lon="6.06485">
        <ele>220</ele>
        <time>2014-05-28T12:14:29Z</time>
      </trkpt>
      <trkpt lat="43.41546" lon="6.06484">
        <ele>220</ele>
        <time>2014-05-28T12:14:30Z</time>
      </trkpt>
      <trkpt lat="43.41548" lon="6.06473">
        <ele>220</ele>
        <time>2014-05-28T12:14:34Z</time>
      </trkpt>
      <trkpt lat="43.41547" lon="6.06469">
        <ele>220</ele>
        <time>2014-05-28T12:14:35Z</time>
      </trkpt>
      <trkpt lat="43.41545" lon="6.06454">
        <ele>220</ele>
        <time>2014-05-28T12:14:39Z</time>
      </trkpt>
      <trkpt lat="43.41545" lon="6.0645">
        <ele>220</ele>
        <time>2014-05-28T12:14:40Z</time>
      </trkpt>
      <trkpt lat="43.41545" lon="6.06446">
        <ele>220</ele>
        <time>2014-05-28T12:14:41Z</time>
      </trkpt>
      <trkpt lat="43.41549" lon="6.06422">
        <ele>220</ele>
        <time>2014-05-28T12:14:47Z</time>
      </trkpt>
      <trkpt lat="43.4155" lon="6.0641">
        <ele>220</ele>
        <time>2014-05-28T12:14:50Z</time>
      </trkpt>
      <trkpt lat="43.41557" lon="6.0638">
        <ele>220.34619140625</ele>
        <time>2014-05-28T12:14:58Z</time>
      </trkpt>
      <trkpt lat="43.4156" lon="6.06361">
        <ele>221.17309570312</ele>
        <time>2014-05-28T12:15:03Z</time>
      </trkpt>
      <trkpt lat="43.41567" lon="6.06345">
        <ele>221.42028808594</ele>
        <time>2014-05-28T12:15:08Z</time>
      </trkpt>
      <trkpt lat="43.41573" lon="6.06336">
        <ele>221.62628173828</ele>
        <time>2014-05-28T12:15:11Z</time>
      </trkpt>
      <trkpt lat="43.41581" lon="6.06326">
        <ele>222.15435791016</ele>
        <time>2014-05-28T12:15:15Z</time>
      </trkpt>
      <trkpt lat="43.41587" lon="6.06307">
        <ele>223.54975891113</ele>
        <time>2014-05-28T12:15:21Z</time>
      </trkpt>
      <trkpt lat="43.41587" lon="6.06296">
        <ele>223.79827880859</ele>
        <time>2014-05-28T12:15:24Z</time>
      </trkpt>
      <trkpt lat="43.41586" lon="6.06285">
        <ele>224.04695129394</ele>
        <time>2014-05-28T12:15:27Z</time>
      </trkpt>
      <trkpt lat="43.41584" lon="6.06275">
        <ele>224.21186828613</ele>
        <time>2014-05-28T12:15:30Z</time>
      </trkpt>
      <trkpt lat="43.41587" lon="6.0627">
        <ele>224.73886108398</ele>
        <time>2014-05-28T12:15:32Z</time>
      </trkpt>
      <trkpt lat="43.41599" lon="6.06259">
        <ele>226.39540100098</ele>
        <time>2014-05-28T12:15:39Z</time>
      </trkpt>
      <trkpt lat="43.416" lon="6.06257">
        <ele>226.55505371094</ele>
        <time>2014-05-28T12:15:43Z</time>
      </trkpt>
      <trkpt lat="43.416" lon="6.06255">
        <ele>226.61856079102</ele>
        <time>2014-05-28T12:15:49Z</time>
      </trkpt>
      <trkpt lat="43.416" lon="6.06255">
        <ele>226.61856079102</ele>
        <time>2014-05-28T12:15:54Z</time>
      </trkpt>
      <trkpt lat="43.416" lon="6.06254">
        <ele>226.6872253418</ele>
        <time>2014-05-28T12:15:58Z</time>
      </trkpt>
      <trkpt lat="43.41602" lon="6.06249">
        <ele>227.06037902832</ele>
        <time>2014-05-28T12:16:00Z</time>
      </trkpt>
      <trkpt lat="43.41605" lon="6.06237">
        <ele>227.47640991211</ele>
        <time>2014-05-28T12:16:03Z</time>
      </trkpt>
      <trkpt lat="43.41608" lon="6.06222">
        <ele>227.75788879394</ele>
        <time>2014-05-28T12:16:07Z</time>
      </trkpt>
      <trkpt lat="43.41608" lon="6.06217">
        <ele>227.92440795898</ele>
        <time>2014-05-28T12:16:08Z</time>
      </trkpt>
      <trkpt lat="43.41608" lon="6.06213">
        <ele>228.07202148438</ele>
        <time>2014-05-28T12:16:09Z</time>
      </trkpt>
      <trkpt lat="43.41607" lon="6.06209">
        <ele>228.20077514648</ele>
        <time>2014-05-28T12:16:10Z</time>
      </trkpt>
      <trkpt lat="43.41606" lon="6.06205">
        <ele>228.2333984375</ele>
        <time>2014-05-28T12:16:11Z</time>
      </trkpt>
      <trkpt lat="43.41604" lon="6.06202">
        <ele>228.22308349609</ele>
        <time>2014-05-28T12:16:12Z</time>
      </trkpt>
      <trkpt lat="43.416" lon="6.0619">
        <ele>228.25938415527</ele>
        <time>2014-05-28T12:16:15Z</time>
      </trkpt>
      <trkpt lat="43.416" lon="6.06185">
        <ele>228.33261108398</ele>
        <time>2014-05-28T12:16:17Z</time>
      </trkpt>
      <trkpt lat="43.41599" lon="6.06183">
        <ele>228.30291748047</ele>
        <time>2014-05-28T12:16:20Z</time>
      </trkpt>
      <trkpt lat="43.41599" lon="6.06181">
        <ele>228.33236694336</ele>
        <time>2014-05-28T12:16:21Z</time>
      </trkpt>
      <trkpt lat="43.41601" lon="6.06173">
        <ele>228.54299926758</ele>
        <time>2014-05-28T12:16:24Z</time>
      </trkpt>
      <trkpt lat="43.41602" lon="6.0617">
        <ele>228.6404876709</ele>
        <time>2014-05-28T12:16:25Z</time>
      </trkpt>
      <trkpt lat="43.41618" lon="6.06148">
        <ele>230.17565917969</ele>
        <time>2014-05-28T12:16:31Z</time>
      </trkpt>
      <trkpt lat="43.41621" lon="6.06145">
        <ele>230.46063232422</ele>
        <time>2014-05-28T12:16:32Z</time>
      </trkpt>
      <trkpt lat="43.41625" lon="6.06139">
        <ele>231.01509094238</ele>
        <time>2014-05-28T12:16:34Z</time>
      </trkpt>
      <trkpt lat="43.41628" lon="6.06136">
        <ele>231.11653137207</ele>
        <time>2014-05-28T12:16:35Z</time>
      </trkpt>
      <trkpt lat="43.41629" lon="6.06132">
        <ele>231.10670471191</ele>
        <time>2014-05-28T12:16:36Z</time>
      </trkpt>
      <trkpt lat="43.41628" lon="6.06127">
        <ele>230.97132873535</ele>
        <time>2014-05-28T12:16:37Z</time>
      </trkpt>
      <trkpt lat="43.41623" lon="6.0611">
        <ele>230.45344543457</ele>
        <time>2014-05-28T12:16:40Z</time>
      </trkpt>
      <trkpt lat="43.41621" lon="6.06105">
        <ele>230.64555358887</ele>
        <time>2014-05-28T12:16:41Z</time>
      </trkpt>
      <trkpt lat="43.41619" lon="6.06099">
        <ele>230.86320495606</ele>
        <time>2014-05-28T12:16:42Z</time>
      </trkpt>
      <trkpt lat="43.41616" lon="6.06072">
        <ele>231.38366699219</ele>
        <time>2014-05-28T12:16:47Z</time>
      </trkpt>
      <trkpt lat="43.41619" lon="6.06042">
        <ele>231.60339355469</ele>
        <time>2014-05-28T12:16:53Z</time>
      </trkpt>
      <trkpt lat="43.41621" lon="6.0602">
        <ele>231.74072265625</ele>
        <time>2014-05-28T12:16:58Z</time>
      </trkpt>
      <trkpt lat="43.41624" lon="6.06006">
        <ele>231.90551757812</ele>
        <time>2014-05-28T12:17:01Z</time>
      </trkpt>
      <trkpt lat="43.41627" lon="6.05986">
        <ele>232.15270996094</ele>
        <time>2014-05-28T12:17:05Z</time>
      </trkpt>
      <trkpt lat="43.41634" lon="6.05941">
        <ele>232.64709472656</ele>
        <time>2014-05-28T12:17:16Z</time>
      </trkpt>
      <trkpt lat="43.41636" lon="6.05929">
        <ele>232.75695800781</ele>
        <time>2014-05-28T12:17:19Z</time>
      </trkpt>
      <trkpt lat="43.41636" lon="6.05924">
        <ele>232.81188964844</ele>
        <time>2014-05-28T12:17:20Z</time>
      </trkpt>
      <trkpt lat="43.41637" lon="6.0592">
        <ele>232.83935546875</ele>
        <time>2014-05-28T12:17:21Z</time>
      </trkpt>
      <trkpt lat="43.4164" lon="6.05889">
        <ele>233.02954101562</ele>
        <time>2014-05-28T12:17:28Z</time>
      </trkpt>
      <trkpt lat="43.41643" lon="6.05847">
        <ele>233.15313720703</ele>
        <time>2014-05-28T12:17:37Z</time>
      </trkpt>
      <trkpt lat="43.41645" lon="6.05808">
        <ele>233.22180175781</ele>
        <time>2014-05-28T12:17:45Z</time>
      </trkpt>
      <trkpt lat="43.41646" lon="6.05769">
        <ele>233.18048095703</ele>
        <time>2014-05-28T12:17:52Z</time>
      </trkpt>
      <trkpt lat="43.41645" lon="6.05725">
        <ele>233.20227050781</ele>
        <time>2014-05-28T12:18:00Z</time>
      </trkpt>
      <trkpt lat="43.41644" lon="6.05701">
        <ele>233.1943359375</ele>
        <time>2014-05-28T12:18:04Z</time>
      </trkpt>
      <trkpt lat="43.41641" lon="6.05656">
        <ele>233.08447265625</ele>
        <time>2014-05-28T12:18:12Z</time>
      </trkpt>
      <trkpt lat="43.4164" lon="6.05645">
        <ele>233.05700683594</ele>
        <time>2014-05-28T12:18:14Z</time>
      </trkpt>
      <trkpt lat="43.41637" lon="6.05622">
        <ele>233.49349975586</ele>
        <time>2014-05-28T12:18:18Z</time>
      </trkpt>
      <trkpt lat="43.4163" lon="6.05575">
        <ele>233.34497070312</ele>
        <time>2014-05-28T12:18:26Z</time>
      </trkpt>
      <trkpt lat="43.41616" lon="6.0552">
        <ele>233.22882080078</ele>
        <time>2014-05-28T12:18:35Z</time>
      </trkpt>
      <trkpt lat="43.41604" lon="6.05476">
        <ele>232.75238037109</ele>
        <time>2014-05-28T12:18:42Z</time>
      </trkpt>
      <trkpt lat="43.416" lon="6.05463">
        <ele>232.9391784668</ele>
        <time>2014-05-28T12:18:44Z</time>
      </trkpt>
      <trkpt lat="43.41587" lon="6.0542">
        <ele>233.14813232422</ele>
        <time>2014-05-28T12:18:51Z</time>
      </trkpt>
      <trkpt lat="43.4158" lon="6.05396">
        <ele>232.96942138672</ele>
        <time>2014-05-28T12:18:56Z</time>
      </trkpt>
      <trkpt lat="43.41578" lon="6.05391">
        <ele>232.9846496582</ele>
        <time>2014-05-28T12:18:57Z</time>
      </trkpt>
      <trkpt lat="43.41564" lon="6.05355">
        <ele>233.46046447754</ele>
        <time>2014-05-28T12:19:04Z</time>
      </trkpt>
      <trkpt lat="43.41554" lon="6.05331">
        <ele>233.88374328613</ele>
        <time>2014-05-28T12:19:08Z</time>
      </trkpt>
      <trkpt lat="43.41552" lon="6.05325">
        <ele>233.75886535644</ele>
        <time>2014-05-28T12:19:09Z</time>
      </trkpt>
      <trkpt lat="43.41548" lon="6.05312">
        <ele>233.67309570312</ele>
        <time>2014-05-28T12:19:11Z</time>
      </trkpt>
      <trkpt lat="43.41535" lon="6.05267">
        <ele>233.26672363281</ele>
        <time>2014-05-28T12:19:18Z</time>
      </trkpt>
      <trkpt lat="43.41521" lon="6.05236">
        <ele>233.28643798828</ele>
        <time>2014-05-28T12:19:23Z</time>
      </trkpt>
      <trkpt lat="43.41519" lon="6.05229">
        <ele>233.42890930176</ele>
        <time>2014-05-28T12:19:24Z</time>
      </trkpt>
      <trkpt lat="43.41516" lon="6.05223">
        <ele>233.56109619141</ele>
        <time>2014-05-28T12:19:25Z</time>
      </trkpt>
      <trkpt lat="43.41513" lon="6.05217">
        <ele>233.48394775391</ele>
        <time>2014-05-28T12:19:26Z</time>
      </trkpt>
      <trkpt lat="43.41511" lon="6.0521">
        <ele>233.38781738281</ele>
        <time>2014-05-28T12:19:27Z</time>
      </trkpt>
      <trkpt lat="43.415" lon="6.05187">
        <ele>232.98956298828</ele>
        <time>2014-05-28T12:19:31Z</time>
      </trkpt>
      <trkpt lat="43.41498" lon="6.05181">
        <ele>232.9208984375</ele>
        <time>2014-05-28T12:19:32Z</time>
      </trkpt>
      <trkpt lat="43.41497" lon="6.05175">
        <ele>232.89343261719</ele>
        <time>2014-05-28T12:19:33Z</time>
      </trkpt>
      <trkpt lat="43.41501" lon="6.05162">
        <ele>233.24784851074</ele>
        <time>2014-05-28T12:19:36Z</time>
      </trkpt>
      <trkpt lat="43.41511" lon="6.05158">
        <ele>233.99299621582</ele>
        <time>2014-05-28T12:19:39Z</time>
      </trkpt>
      <trkpt lat="43.41515" lon="6.05157">
        <ele>234.24070739746</ele>
        <time>2014-05-28T12:19:40Z</time>
      </trkpt>
      <trkpt lat="43.41526" lon="6.05155">
        <ele>234.90176391602</ele>
        <time>2014-05-28T12:19:43Z</time>
      </trkpt>
      <trkpt lat="43.41542" lon="6.05154">
        <ele>235.22827148438</ele>
        <time>2014-05-28T12:19:47Z</time>
      </trkpt>
      <trkpt lat="43.41552" lon="6.05154">
        <ele>235.37797546387</ele>
        <time>2014-05-28T12:19:50Z</time>
      </trkpt>
      <trkpt lat="43.41564" lon="6.05157">
        <ele>235.54884338379</ele>
        <time>2014-05-28T12:19:54Z</time>
      </trkpt>
      <trkpt lat="43.41574" lon="6.05159">
        <ele>235.74816894531</ele>
        <time>2014-05-28T12:19:58Z</time>
      </trkpt>
      <trkpt lat="43.41579" lon="6.0516">
        <ele>235.87196350098</ele>
        <time>2014-05-28T12:20:00Z</time>
      </trkpt>
      <trkpt lat="43.41581" lon="6.05161">
        <ele>235.93310546875</ele>
        <time>2014-05-28T12:20:01Z</time>
      </trkpt>
      <trkpt lat="43.41586" lon="6.05162">
        <ele>236.10693359375</ele>
        <time>2014-05-28T12:20:03Z</time>
      </trkpt>
      <trkpt lat="43.41599" lon="6.05164">
        <ele>236.56011962891</ele>
        <time>2014-05-28T12:20:07Z</time>
      </trkpt>
      <trkpt lat="43.41605" lon="6.05164">
        <ele>236.77984619141</ele>
        <time>2014-05-28T12:20:09Z</time>
      </trkpt>
      <trkpt lat="43.41611" lon="6.05164">
        <ele>236.99957275391</ele>
        <time>2014-05-28T12:20:11Z</time>
      </trkpt>
      <trkpt lat="43.41614" lon="6.05164">
        <ele>237.00898742676</ele>
        <time>2014-05-28T12:20:12Z</time>
      </trkpt>
      <trkpt lat="43.4162" lon="6.05165">
        <ele>237.02049255371</ele>
        <time>2014-05-28T12:20:14Z</time>
      </trkpt>
      <trkpt lat="43.41639" lon="6.05167">
        <ele>237</ele>
        <time>2014-05-28T12:20:21Z</time>
      </trkpt>
      <trkpt lat="43.4164" lon="6.05167">
        <ele>237.05700683594</ele>
        <time>2014-05-28T12:20:22Z</time>
      </trkpt>
      <trkpt lat="43.41647" lon="6.05167">
        <ele>237.30419921875</ele>
        <time>2014-05-28T12:20:25Z</time>
      </trkpt>
      <trkpt lat="43.41658" lon="6.05167">
        <ele>237.70245361328</ele>
        <time>2014-05-28T12:20:30Z</time>
      </trkpt>
      <trkpt lat="43.41667" lon="6.05162">
        <ele>238.01831054688</ele>
        <time>2014-05-28T12:20:34Z</time>
      </trkpt>
      <trkpt lat="43.41669" lon="6.05161">
        <ele>238.08697509766</ele>
        <time>2014-05-28T12:20:35Z</time>
      </trkpt>
      <trkpt lat="43.41684" lon="6.05142">
        <ele>238.60882568359</ele>
        <time>2014-05-28T12:20:44Z</time>
      </trkpt>
      <trkpt lat="43.41699" lon="6.05127">
        <ele>239.31721496582</ele>
        <time>2014-05-28T12:20:53Z</time>
      </trkpt>
      <trkpt lat="43.41713" lon="6.05117">
        <ele>240.69630432129</ele>
        <time>2014-05-28T12:21:00Z</time>
      </trkpt>
      <trkpt lat="43.41717" lon="6.05115">
        <ele>241.24085998535</ele>
        <time>2014-05-28T12:21:02Z</time>
      </trkpt>
      <trkpt lat="43.41732" lon="6.05108">
        <ele>242.71604919434</ele>
        <time>2014-05-28T12:21:09Z</time>
      </trkpt>
      <trkpt lat="43.41736" lon="6.0511">
        <ele>243.01985168457</ele>
        <time>2014-05-28T12:21:11Z</time>
      </trkpt>
      <trkpt lat="43.4174" lon="6.05116">
        <ele>243.05348205566</ele>
        <time>2014-05-28T12:21:14Z</time>
      </trkpt>
      <trkpt lat="43.41738" lon="6.05133">
        <ele>241.99798583984</ele>
        <time>2014-05-28T12:21:19Z</time>
      </trkpt>
      <trkpt lat="43.41739" lon="6.05165">
        <ele>240.12934875488</ele>
        <time>2014-05-28T12:21:27Z</time>
      </trkpt>
      <trkpt lat="43.41744" lon="6.05174">
        <ele>240</ele>
        <time>2014-05-28T12:21:30Z</time>
      </trkpt>
      <trkpt lat="43.41751" lon="6.05178">
        <ele>240.40438842773</ele>
        <time>2014-05-28T12:21:33Z</time>
      </trkpt>
      <trkpt lat="43.41764" lon="6.05179">
        <ele>243.82124328613</ele>
        <time>2014-05-28T12:21:38Z</time>
      </trkpt>
      <trkpt lat="43.41782" lon="6.05181">
        <ele>247.83528137207</ele>
        <time>2014-05-28T12:21:45Z</time>
      </trkpt>
      <trkpt lat="43.41819" lon="6.05183">
        <ele>251.13220214844</ele>
        <time>2014-05-28T12:22:00Z</time>
      </trkpt>
      <trkpt lat="43.41826" lon="6.05183">
        <ele>251.78576660156</ele>
        <time>2014-05-28T12:22:03Z</time>
      </trkpt>
      <trkpt lat="43.41831" lon="6.05183">
        <ele>252.18237304688</ele>
        <time>2014-05-28T12:22:05Z</time>
      </trkpt>
      <trkpt lat="43.41835" lon="6.05183">
        <ele>252.69702148438</ele>
        <time>2014-05-28T12:22:07Z</time>
      </trkpt>
      <trkpt lat="43.41859" lon="6.05181">
        <ele>256.11651611328</ele>
        <time>2014-05-28T12:22:17Z</time>
      </trkpt>
      <trkpt lat="43.4187" lon="6.05179">
        <ele>257.22076416016</ele>
        <time>2014-05-28T12:22:22Z</time>
      </trkpt>
      <trkpt lat="43.41872" lon="6.05178">
        <ele>257.40270996094</ele>
        <time>2014-05-28T12:22:23Z</time>
      </trkpt>
      <trkpt lat="43.41877" lon="6.05177">
        <ele>257.72543334961</ele>
        <time>2014-05-28T12:22:25Z</time>
      </trkpt>
      <trkpt lat="43.41879" lon="6.05177">
        <ele>257.92114257812</ele>
        <time>2014-05-28T12:22:26Z</time>
      </trkpt>
      <trkpt lat="43.41884" lon="6.05179">
        <ele>258.20608520508</ele>
        <time>2014-05-28T12:22:30Z</time>
      </trkpt>
      <trkpt lat="43.41892" lon="6.05189">
        <ele>258.40469360352</ele>
        <time>2014-05-28T12:22:34Z</time>
      </trkpt>
      <trkpt lat="43.419" lon="6.05204">
        <ele>258.46356201172</ele>
        <time>2014-05-28T12:22:39Z</time>
      </trkpt>
      <trkpt lat="43.41903" lon="6.0521">
        <ele>258.4137878418</ele>
        <time>2014-05-28T12:22:41Z</time>
      </trkpt>
      <trkpt lat="43.41904" lon="6.05213">
        <ele>258.44299316406</ele>
        <time>2014-05-28T12:22:42Z</time>
      </trkpt>
      <trkpt lat="43.41906" lon="6.05215">
        <ele>258.49792480469</ele>
        <time>2014-05-28T12:22:43Z</time>
      </trkpt>
      <trkpt lat="43.41912" lon="6.05215">
        <ele>258.89102172852</ele>
        <time>2014-05-28T12:22:45Z</time>
      </trkpt>
      <trkpt lat="43.4191" lon="6.05209">
        <ele>258.99743652344</ele>
        <time>2014-05-28T12:22:46Z</time>
      </trkpt>
      <trkpt lat="43.41909" lon="6.05182">
        <ele>259.59735107422</ele>
        <time>2014-05-28T12:22:51Z</time>
      </trkpt>
      <trkpt lat="43.41911" lon="6.0518">
        <ele>259.71539306641</ele>
        <time>2014-05-28T12:22:52Z</time>
      </trkpt>
      <trkpt lat="43.4192" lon="6.05178">
        <ele>260</ele>
        <time>2014-05-28T12:22:56Z</time>
      </trkpt>
      <trkpt lat="43.41923" lon="6.05176">
        <ele>260</ele>
        <time>2014-05-28T12:22:57Z</time>
      </trkpt>
      <trkpt lat="43.4193" lon="6.0517">
        <ele>260</ele>
        <time>2014-05-28T12:22:59Z</time>
      </trkpt>
      <trkpt lat="43.4195" lon="6.05156">
        <ele>260</ele>
        <time>2014-05-28T12:23:05Z</time>
      </trkpt>
      <trkpt lat="43.41966" lon="6.05147">
        <ele>260</ele>
        <time>2014-05-28T12:23:12Z</time>
      </trkpt>
      <trkpt lat="43.41975" lon="6.05145">
        <ele>260</ele>
        <time>2014-05-28T12:23:16Z</time>
      </trkpt>
      <trkpt lat="43.41977" lon="6.05145">
        <ele>260</ele>
        <time>2014-05-28T12:23:17Z</time>
      </trkpt>
      <trkpt lat="43.41979" lon="6.05145">
        <ele>260</ele>
        <time>2014-05-28T12:23:18Z</time>
      </trkpt>
      <trkpt lat="43.41983" lon="6.05144">
        <ele>260</ele>
        <time>2014-05-28T12:23:20Z</time>
      </trkpt>
      <trkpt lat="43.41992" lon="6.0514">
        <ele>260</ele>
        <time>2014-05-28T12:23:24Z</time>
      </trkpt>
      <trkpt lat="43.41994" lon="6.0514">
        <ele>260</ele>
        <time>2014-05-28T12:23:25Z</time>
      </trkpt>
      <trkpt lat="43.42005" lon="6.05135">
        <ele>260.38269042969</ele>
        <time>2014-05-28T12:23:29Z</time>
      </trkpt>
      <trkpt lat="43.42023" lon="6.0513">
        <ele>261.00067138672</ele>
        <time>2014-05-28T12:23:35Z</time>
      </trkpt>
      <trkpt lat="43.4204" lon="6.05124">
        <ele>261.62896728516</ele>
        <time>2014-05-28T12:23:42Z</time>
      </trkpt>
      <trkpt lat="43.42048" lon="6.05122">
        <ele>261.80404663086</ele>
        <time>2014-05-28T12:23:46Z</time>
      </trkpt>
      <trkpt lat="43.42051" lon="6.05122">
        <ele>261.86584472656</ele>
        <time>2014-05-28T12:23:47Z</time>
      </trkpt>
      <trkpt lat="43.42059" lon="6.0512">
        <ele>262.16262817383</ele>
        <time>2014-05-28T12:23:50Z</time>
      </trkpt>
      <trkpt lat="43.42071" lon="6.05119">
        <ele>262.55364990234</ele>
        <time>2014-05-28T12:23:55Z</time>
      </trkpt>
      <trkpt lat="43.42085" lon="6.05121">
        <ele>262.87127685547</ele>
        <time>2014-05-28T12:24:01Z</time>
      </trkpt>
      <trkpt lat="43.42094" lon="6.05123">
        <ele>263.66571044922</ele>
        <time>2014-05-28T12:24:05Z</time>
      </trkpt>
      <trkpt lat="43.42101" lon="6.05124">
        <ele>264.30114746094</ele>
        <time>2014-05-28T12:24:08Z</time>
      </trkpt>
      <trkpt lat="43.42112" lon="6.05125">
        <ele>265.67010498047</ele>
        <time>2014-05-28T12:24:13Z</time>
      </trkpt>
      <trkpt lat="43.42128" lon="6.05131">
        <ele>267.20129394531</ele>
        <time>2014-05-28T12:24:21Z</time>
      </trkpt>
      <trkpt lat="43.42128" lon="6.05132">
        <ele>267.2751159668</ele>
        <time>2014-05-28T12:24:22Z</time>
      </trkpt>
      <trkpt lat="43.4213" lon="6.05131">
        <ele>267.48110961914</ele>
        <time>2014-05-28T12:24:23Z</time>
      </trkpt>
      <trkpt lat="43.4213" lon="6.05131">
        <ele>267.59097290039</ele>
        <time>2014-05-28T12:24:24Z</time>
      </trkpt>
      <trkpt lat="43.4213" lon="6.05131">
        <ele>267.56008911133</ele>
        <time>2014-05-28T12:24:26Z</time>
      </trkpt>
      <trkpt lat="43.4213" lon="6.05131">
        <ele>267.56008911133</ele>
        <time>2014-05-28T12:24:50Z</time>
      </trkpt>
      <trkpt lat="43.4213" lon="6.05131">
        <ele>267.56008911133</ele>
        <time>2014-05-28T12:25:01Z</time>
      </trkpt>
      <trkpt lat="43.42131" lon="6.05131">
        <ele>267.63046264648</ele>
        <time>2014-05-28T12:25:06Z</time>
      </trkpt>
      <trkpt lat="43.42131" lon="6.05131">
        <ele>267.63046264648</ele>
        <time>2014-05-28T12:25:12Z</time>
      </trkpt>
      <trkpt lat="43.42131" lon="6.05132">
        <ele>267.59271240234</ele>
        <time>2014-05-28T12:25:17Z</time>
      </trkpt>
      <trkpt lat="43.42135" lon="6.05135">
        <ele>267.86737060547</ele>
        <time>2014-05-28T12:25:25Z</time>
      </trkpt>
      <trkpt lat="43.42135" lon="6.05135">
        <ele>267.86737060547</ele>
        <time>2014-05-28T12:25:47Z</time>
      </trkpt>
      <trkpt lat="43.42135" lon="6.05135">
        <ele>267.86737060547</ele>
        <time>2014-05-28T12:26:00Z</time>
      </trkpt>
      <trkpt lat="43.42136" lon="6.05136">
        <ele>267.82958984375</ele>
        <time>2014-05-28T12:26:03Z</time>
      </trkpt>
      <trkpt lat="43.42138" lon="6.05141">
        <ele>267.54516601562</ele>
        <time>2014-05-28T12:26:05Z</time>
      </trkpt>
      <trkpt lat="43.42141" lon="6.05149">
        <ele>266.86444091797</ele>
        <time>2014-05-28T12:26:07Z</time>
      </trkpt>
      <trkpt lat="43.42142" lon="6.05154">
        <ele>266.29452514648</ele>
        <time>2014-05-28T12:26:08Z</time>
      </trkpt>
      <trkpt lat="43.42144" lon="6.05159">
        <ele>266.01986694336</ele>
        <time>2014-05-28T12:26:09Z</time>
      </trkpt>
      <trkpt lat="43.4215" lon="6.05174">
        <ele>266.44769287109</ele>
        <time>2014-05-28T12:26:12Z</time>
      </trkpt>
      <trkpt lat="43.42154" lon="6.05177">
        <ele>267.28213500977</ele>
        <time>2014-05-28T12:26:13Z</time>
      </trkpt>
      <trkpt lat="43.42157" lon="6.05181">
        <ele>268.09066772461</ele>
        <time>2014-05-28T12:26:14Z</time>
      </trkpt>
      <trkpt lat="43.42167" lon="6.05187">
        <ele>270.51489257812</ele>
        <time>2014-05-28T12:26:18Z</time>
      </trkpt>
      <trkpt lat="43.42171" lon="6.05189">
        <ele>271.25924682617</ele>
        <time>2014-05-28T12:26:20Z</time>
      </trkpt>
      <trkpt lat="43.42173" lon="6.05187">
        <ele>271.58129882812</ele>
        <time>2014-05-28T12:26:22Z</time>
      </trkpt>
      <trkpt lat="43.42175" lon="6.05187">
        <ele>271.73754882812</ele>
        <time>2014-05-28T12:26:23Z</time>
      </trkpt>
      <trkpt lat="43.42176" lon="6.05187">
        <ele>271.91110229492</ele>
        <time>2014-05-28T12:26:24Z</time>
      </trkpt>
      <trkpt lat="43.42178" lon="6.05186">
        <ele>272.24700927734</ele>
        <time>2014-05-28T12:26:26Z</time>
      </trkpt>
      <trkpt lat="43.42189" lon="6.05178">
        <ele>273.91073608398</ele>
        <time>2014-05-28T12:26:28Z</time>
      </trkpt>
      <trkpt lat="43.42189" lon="6.05178">
        <ele>273.91073608398</ele>
        <time>2014-05-28T12:26:52Z</time>
      </trkpt>
      <trkpt lat="43.42189" lon="6.05178">
        <ele>273.91073608398</ele>
        <time>2014-05-28T12:27:07Z</time>
      </trkpt>
      <trkpt lat="43.42192" lon="6.05175">
        <ele>274.46789550781</ele>
        <time>2014-05-28T12:27:12Z</time>
      </trkpt>
      <trkpt lat="43.42192" lon="6.05175">
        <ele>274.46789550781</ele>
        <time>2014-05-28T12:27:37Z</time>
      </trkpt>
      <trkpt lat="43.42192" lon="6.05176">
        <ele>274.47198486328</ele>
        <time>2014-05-28T12:27:48Z</time>
      </trkpt>
      <trkpt lat="43.42192" lon="6.05176">
        <ele>274.47198486328</ele>
        <time>2014-05-28T12:28:06Z</time>
      </trkpt>
      <trkpt lat="43.42192" lon="6.05175">
        <ele>274.61535644531</ele>
        <time>2014-05-28T12:28:29Z</time>
      </trkpt>
      <trkpt lat="43.42192" lon="6.05175">
        <ele>274.61535644531</ele>
        <time>2014-05-28T12:28:41Z</time>
      </trkpt>
      <trkpt lat="43.42195" lon="6.05179">
        <ele>275.03277587891</ele>
        <time>2014-05-28T12:28:47Z</time>
      </trkpt>
      <trkpt lat="43.42199" lon="6.05186">
        <ele>275.48596191406</ele>
        <time>2014-05-28T12:28:51Z</time>
      </trkpt>
      <trkpt lat="43.42203" lon="6.05192">
        <ele>275.93914794922</ele>
        <time>2014-05-28T12:28:55Z</time>
      </trkpt>
      <trkpt lat="43.42207" lon="6.05198">
        <ele>276.51867675781</ele>
        <time>2014-05-28T12:28:58Z</time>
      </trkpt>
      <trkpt lat="43.42211" lon="6.05207">
        <ele>277.22592163086</ele>
        <time>2014-05-28T12:29:03Z</time>
      </trkpt>
      <trkpt lat="43.42216" lon="6.05219">
        <ele>278.18896484375</ele>
        <time>2014-05-28T12:29:07Z</time>
      </trkpt>
      <trkpt lat="43.42224" lon="6.05226">
        <ele>279.068359375</ele>
        <time>2014-05-28T12:29:10Z</time>
      </trkpt>
      <trkpt lat="43.42244" lon="6.0522">
        <ele>279.72937011719</ele>
        <time>2014-05-28T12:29:15Z</time>
      </trkpt>
      <trkpt lat="43.42249" lon="6.05221">
        <ele>279.91647338867</ele>
        <time>2014-05-28T12:29:17Z</time>
      </trkpt>
      <trkpt lat="43.42252" lon="6.0522">
        <ele>279.93487548828</ele>
        <time>2014-05-28T12:29:18Z</time>
      </trkpt>
      <trkpt lat="43.42254" lon="6.0522">
        <ele>279.90911865234</ele>
        <time>2014-05-28T12:29:19Z</time>
      </trkpt>
      <trkpt lat="43.42261" lon="6.05216">
        <ele>279.78552246094</ele>
        <time>2014-05-28T12:29:21Z</time>
      </trkpt>
      <trkpt lat="43.42276" lon="6.05203">
        <ele>279.30145263672</ele>
        <time>2014-05-28T12:29:25Z</time>
      </trkpt>
      <trkpt lat="43.42281" lon="6.05197">
        <ele>279.20971679688</ele>
        <time>2014-05-28T12:29:27Z</time>
      </trkpt>
      <trkpt lat="43.42284" lon="6.05196">
        <ele>279.26165771484</ele>
        <time>2014-05-28T12:29:28Z</time>
      </trkpt>
      <trkpt lat="43.42286" lon="6.05196">
        <ele>279.32778930664</ele>
        <time>2014-05-28T12:29:29Z</time>
      </trkpt>
      <trkpt lat="43.42294" lon="6.05201">
        <ele>279.66467285156</ele>
        <time>2014-05-28T12:29:32Z</time>
      </trkpt>
      <trkpt lat="43.42306" lon="6.05209">
        <ele>280.01736450195</ele>
        <time>2014-05-28T12:29:37Z</time>
      </trkpt>
      <trkpt lat="43.42322" lon="6.05205">
        <ele>281.86709594727</ele>
        <time>2014-05-28T12:29:43Z</time>
      </trkpt>
      <trkpt lat="43.42327" lon="6.05203">
        <ele>282.73886108398</ele>
        <time>2014-05-28T12:29:46Z</time>
      </trkpt>
      <trkpt lat="43.42331" lon="6.05205">
        <ele>282.81704711914</ele>
        <time>2014-05-28T12:29:48Z</time>
      </trkpt>
      <trkpt lat="43.42332" lon="6.05206">
        <ele>282.83413696289</ele>
        <time>2014-05-28T12:29:49Z</time>
      </trkpt>
      <trkpt lat="43.42334" lon="6.05206">
        <ele>283.00448608398</ele>
        <time>2014-05-28T12:29:50Z</time>
      </trkpt>
      <trkpt lat="43.42336" lon="6.05206">
        <ele>283.17877197266</ele>
        <time>2014-05-28T12:29:51Z</time>
      </trkpt>
      <trkpt lat="43.42339" lon="6.05205">
        <ele>283.67825317383</ele>
        <time>2014-05-28T12:29:53Z</time>
      </trkpt>
      <trkpt lat="43.42345" lon="6.05205">
        <ele>284.1201171875</ele>
        <time>2014-05-28T12:29:57Z</time>
      </trkpt>
      <trkpt lat="43.42353" lon="6.05204">
        <ele>285.09106445312</ele>
        <time>2014-05-28T12:30:02Z</time>
      </trkpt>
      <trkpt lat="43.42356" lon="6.05203">
        <ele>285.65057373047</ele>
        <time>2014-05-28T12:30:04Z</time>
      </trkpt>
      <trkpt lat="43.42361" lon="6.05195">
        <ele>288.72210693359</ele>
        <time>2014-05-28T12:30:08Z</time>
      </trkpt>
      <trkpt lat="43.42365" lon="6.05192">
        <ele>290.00973510742</ele>
        <time>2014-05-28T12:30:11Z</time>
      </trkpt>
      <trkpt lat="43.42367" lon="6.05193">
        <ele>290.33416748047</ele>
        <time>2014-05-28T12:30:13Z</time>
      </trkpt>
      <trkpt lat="43.42368" lon="6.05192">
        <ele>290.49725341797</ele>
        <time>2014-05-28T12:30:14Z</time>
      </trkpt>
      <trkpt lat="43.42372" lon="6.0519">
        <ele>291.79330444336</ele>
        <time>2014-05-28T12:30:19Z</time>
      </trkpt>
      <trkpt lat="43.42374" lon="6.05189">
        <ele>292.27221679688</ele>
        <time>2014-05-28T12:30:23Z</time>
      </trkpt>
      <trkpt lat="43.42374" lon="6.05189">
        <ele>292.24304199219</ele>
        <time>2014-05-28T12:30:26Z</time>
      </trkpt>
      <trkpt lat="43.42375" lon="6.05189">
        <ele>292.32888793945</ele>
        <time>2014-05-28T12:30:27Z</time>
      </trkpt>
      <trkpt lat="43.42376" lon="6.05189">
        <ele>292.44390869141</ele>
        <time>2014-05-28T12:30:28Z</time>
      </trkpt>
      <trkpt lat="43.42376" lon="6.05189">
        <ele>292.54174804688</ele>
        <time>2014-05-28T12:30:29Z</time>
      </trkpt>
      <trkpt lat="43.42376" lon="6.05189">
        <ele>292.54174804688</ele>
        <time>2014-05-28T12:30:30Z</time>
      </trkpt>
      <trkpt lat="43.42377" lon="6.05189">
        <ele>292.57949829102</ele>
        <time>2014-05-28T12:30:33Z</time>
      </trkpt>
      <trkpt lat="43.42377" lon="6.05189">
        <ele>292.57949829102</ele>
        <time>2014-05-28T12:30:36Z</time>
      </trkpt>
      <trkpt lat="43.42377" lon="6.05189">
        <ele>292.57949829102</ele>
        <time>2014-05-28T12:30:41Z</time>
      </trkpt>
      <trkpt lat="43.42378" lon="6.05189">
        <ele>292.76147460938</ele>
        <time>2014-05-28T12:30:44Z</time>
      </trkpt>
      <trkpt lat="43.42382" lon="6.05189">
        <ele>293.49789428711</ele>
        <time>2014-05-28T12:30:54Z</time>
      </trkpt>
      <trkpt lat="43.42383" lon="6.05187">
        <ele>293.98712158203</ele>
        <time>2014-05-28T12:31:00Z</time>
      </trkpt>
      <trkpt lat="43.42384" lon="6.05187">
        <ele>294.04205322266</ele>
        <time>2014-05-28T12:31:03Z</time>
      </trkpt>
      <trkpt lat="43.4239" lon="6.05179">
        <ele>296.92416381836</ele>
        <time>2014-05-28T12:31:09Z</time>
      </trkpt>
      <trkpt lat="43.4239" lon="6.05179">
        <ele>297.15075683594</ele>
        <time>2014-05-28T12:31:10Z</time>
      </trkpt>
      <trkpt lat="43.42393" lon="6.05174">
        <ele>298.54034423828</ele>
        <time>2014-05-28T12:31:13Z</time>
      </trkpt>
      <trkpt lat="43.42393" lon="6.05175">
        <ele>298.44253540039</ele>
        <time>2014-05-28T12:31:15Z</time>
      </trkpt>
      <trkpt lat="43.42396" lon="6.05184">
        <ele>296.53903198242</ele>
        <time>2014-05-28T12:31:19Z</time>
      </trkpt>
      <trkpt lat="43.42399" lon="6.05193">
        <ele>294.88131713867</ele>
        <time>2014-05-28T12:31:22Z</time>
      </trkpt>
      <trkpt lat="43.42401" lon="6.05202">
        <ele>291.55783081055</ele>
        <time>2014-05-28T12:31:24Z</time>
      </trkpt>
      <trkpt lat="43.42403" lon="6.05211">
        <ele>287.79745483398</ele>
        <time>2014-05-28T12:31:26Z</time>
      </trkpt>
      <trkpt lat="43.42405" lon="6.05214">
        <ele>286.36331176758</ele>
        <time>2014-05-28T12:31:27Z</time>
      </trkpt>
      <trkpt lat="43.42406" lon="6.05217">
        <ele>285.34881591797</ele>
        <time>2014-05-28T12:31:28Z</time>
      </trkpt>
      <trkpt lat="43.42408" lon="6.05219">
        <ele>284.9621887207</ele>
        <time>2014-05-28T12:31:29Z</time>
      </trkpt>
      <trkpt lat="43.4241" lon="6.05221">
        <ele>284.46893310547</ele>
        <time>2014-05-28T12:31:30Z</time>
      </trkpt>
      <trkpt lat="43.42411" lon="6.05221">
        <ele>284.35784912109</ele>
        <time>2014-05-28T12:31:32Z</time>
      </trkpt>
      <trkpt lat="43.42411" lon="6.05221">
        <ele>284.35784912109</ele>
        <time>2014-05-28T12:31:42Z</time>
      </trkpt>
      <trkpt lat="43.42411" lon="6.05221">
        <ele>284.35784912109</ele>
        <time>2014-05-28T12:31:51Z</time>
      </trkpt>
      <trkpt lat="43.42411" lon="6.05224">
        <ele>283.6926574707</ele>
        <time>2014-05-28T12:31:57Z</time>
      </trkpt>
      <trkpt lat="43.42411" lon="6.05224">
        <ele>283.64926147461</ele>
        <time>2014-05-28T12:31:58Z</time>
      </trkpt>
      <trkpt lat="43.42411" lon="6.05224">
        <ele>283.64926147461</ele>
        <time>2014-05-28T12:32:20Z</time>
      </trkpt>
      <trkpt lat="43.42411" lon="6.05224">
        <ele>283.64926147461</ele>
        <time>2014-05-28T12:32:27Z</time>
      </trkpt>
      <trkpt lat="43.42411" lon="6.05224">
        <ele>283.8258972168</ele>
        <time>2014-05-28T12:32:38Z</time>
      </trkpt>
      <trkpt lat="43.42411" lon="6.05224">
        <ele>283.8258972168</ele>
        <time>2014-05-28T12:32:45Z</time>
      </trkpt>
      <trkpt lat="43.42411" lon="6.05224">
        <ele>283.8258972168</ele>
        <time>2014-05-28T12:32:59Z</time>
      </trkpt>
      <trkpt lat="43.42412" lon="6.05225">
        <ele>283.7106628418</ele>
        <time>2014-05-28T12:33:03Z</time>
      </trkpt>
      <trkpt lat="43.42415" lon="6.05227">
        <ele>283.99322509766</ele>
        <time>2014-05-28T12:33:07Z</time>
      </trkpt>
      <trkpt lat="43.42416" lon="6.05227">
        <ele>283.96643066406</ele>
        <time>2014-05-28T12:33:11Z</time>
      </trkpt>
      <trkpt lat="43.42416" lon="6.05227">
        <ele>283.97482299805</ele>
        <time>2014-05-28T12:33:18Z</time>
      </trkpt>
      <trkpt lat="43.42416" lon="6.05227">
        <ele>283.97482299805</ele>
        <time>2014-05-28T12:33:46Z</time>
      </trkpt>
      <trkpt lat="43.42416" lon="6.05227">
        <ele>284.05621337891</ele>
        <time>2014-05-28T12:34:01Z</time>
      </trkpt>
      <trkpt lat="43.42416" lon="6.05227">
        <ele>284.05621337891</ele>
        <time>2014-05-28T12:34:25Z</time>
      </trkpt>
      <trkpt lat="43.42416" lon="6.05228">
        <ele>283.96276855469</ele>
        <time>2014-05-28T12:35:54Z</time>
      </trkpt>
      <trkpt lat="43.42416" lon="6.05228">
        <ele>283.96276855469</ele>
        <time>2014-05-28T12:36:13Z</time>
      </trkpt>
      <trkpt lat="43.42416" lon="6.05228">
        <ele>283.9797668457</ele>
        <time>2014-05-28T12:36:56Z</time>
      </trkpt>
      <trkpt lat="43.42416" lon="6.05228">
        <ele>283.9797668457</ele>
        <time>2014-05-28T12:37:24Z</time>
      </trkpt>
      <trkpt lat="43.42417" lon="6.05228">
        <ele>283.97192382812</ele>
        <time>2014-05-28T12:37:33Z</time>
      </trkpt>
      <trkpt lat="43.42417" lon="6.05228">
        <ele>283.97192382812</ele>
        <time>2014-05-28T12:37:51Z</time>
      </trkpt>
      <trkpt lat="43.42417" lon="6.05228">
        <ele>283.97192382812</ele>
        <time>2014-05-28T12:38:04Z</time>
      </trkpt>
      <trkpt lat="43.42417" lon="6.05227">
        <ele>284.08383178711</ele>
        <time>2014-05-28T12:38:14Z</time>
      </trkpt>
      <trkpt lat="43.42417" lon="6.05227">
        <ele>284.08383178711</ele>
        <time>2014-05-28T12:38:38Z</time>
      </trkpt>
      <trkpt lat="43.42417" lon="6.05228">
        <ele>284.00637817383</ele>
        <time>2014-05-28T12:39:02Z</time>
      </trkpt>
      <trkpt lat="43.42417" lon="6.05228">
        <ele>284.00637817383</ele>
        <time>2014-05-28T12:39:21Z</time>
      </trkpt>
      <trkpt lat="43.42418" lon="6.05228">
        <ele>284.14691162109</ele>
        <time>2014-05-28T12:39:23Z</time>
      </trkpt>
      <trkpt lat="43.42418" lon="6.05228">
        <ele>284.14691162109</ele>
        <time>2014-05-28T12:39:41Z</time>
      </trkpt>
      <trkpt lat="43.42422" lon="6.05227">
        <ele>284.7048034668</ele>
        <time>2014-05-28T12:39:45Z</time>
      </trkpt>
      <trkpt lat="43.42425" lon="6.05227">
        <ele>285.11868286133</ele>
        <time>2014-05-28T12:39:47Z</time>
      </trkpt>
      <trkpt lat="43.42426" lon="6.05226">
        <ele>285.37503051758</ele>
        <time>2014-05-28T12:39:48Z</time>
      </trkpt>
      <trkpt lat="43.42429" lon="6.05226">
        <ele>285.90014648438</ele>
        <time>2014-05-28T12:39:50Z</time>
      </trkpt>
      <trkpt lat="43.42432" lon="6.05226">
        <ele>286.29437255859</ele>
        <time>2014-05-28T12:39:52Z</time>
      </trkpt>
      <trkpt lat="43.4244" lon="6.05224">
        <ele>287.69555664062</ele>
        <time>2014-05-28T12:39:58Z</time>
      </trkpt>
      <trkpt lat="43.4245" lon="6.05219">
        <ele>291.53485107422</ele>
        <time>2014-05-28T12:40:04Z</time>
      </trkpt>
      <trkpt lat="43.42451" lon="6.05219">
        <ele>291.90087890625</ele>
        <time>2014-05-28T12:40:05Z</time>
      </trkpt>
      <trkpt lat="43.42453" lon="6.05219">
        <ele>292.31973266602</ele>
        <time>2014-05-28T12:40:06Z</time>
      </trkpt>
      <trkpt lat="43.42454" lon="6.05218">
        <ele>292.89712524414</ele>
        <time>2014-05-28T12:40:07Z</time>
      </trkpt>
      <trkpt lat="43.42455" lon="6.05218">
        <ele>293.28341674805</ele>
        <time>2014-05-28T12:40:08Z</time>
      </trkpt>
      <trkpt lat="43.42457" lon="6.05217">
        <ele>293.80334472656</ele>
        <time>2014-05-28T12:40:09Z</time>
      </trkpt>
      <trkpt lat="43.42458" lon="6.05217">
        <ele>294.17001342773</ele>
        <time>2014-05-28T12:40:10Z</time>
      </trkpt>
      <trkpt lat="43.42463" lon="6.05216">
        <ele>295.48498535156</ele>
        <time>2014-05-28T12:40:13Z</time>
      </trkpt>
      <trkpt lat="43.42463" lon="6.05216">
        <ele>295.65026855469</ele>
        <time>2014-05-28T12:40:15Z</time>
      </trkpt>
      <trkpt lat="43.42463" lon="6.05216">
        <ele>295.65026855469</ele>
        <time>2014-05-28T12:40:17Z</time>
      </trkpt>
      <trkpt lat="43.42464" lon="6.05216">
        <ele>295.8586730957</ele>
        <time>2014-05-28T12:40:18Z</time>
      </trkpt>
      <trkpt lat="43.42464" lon="6.05216">
        <ele>295.97787475586</ele>
        <time>2014-05-28T12:40:27Z</time>
      </trkpt>
      <trkpt lat="43.42464" lon="6.05216">
        <ele>296.08218383789</ele>
        <time>2014-05-28T12:40:39Z</time>
      </trkpt>
      <trkpt lat="43.42465" lon="6.05215">
        <ele>296.3635559082</ele>
        <time>2014-05-28T12:40:47Z</time>
      </trkpt>
      <trkpt lat="43.42465" lon="6.05215">
        <ele>296.3635559082</ele>
        <time>2014-05-28T12:40:53Z</time>
      </trkpt>
      <trkpt lat="43.42466" lon="6.05217">
        <ele>296.21200561523</ele>
        <time>2014-05-28T12:40:56Z</time>
      </trkpt>
      <trkpt lat="43.4247" lon="6.05219">
        <ele>296.57269287109</ele>
        <time>2014-05-28T12:40:59Z</time>
      </trkpt>
      <trkpt lat="43.42474" lon="6.05219">
        <ele>297.20779418945</ele>
        <time>2014-05-28T12:41:01Z</time>
      </trkpt>
      <trkpt lat="43.42479" lon="6.0522">
        <ele>297.55291748047</ele>
        <time>2014-05-28T12:41:04Z</time>
      </trkpt>
      <trkpt lat="43.42483" lon="6.05222">
        <ele>297.47775268555</ele>
        <time>2014-05-28T12:41:06Z</time>
      </trkpt>
      <trkpt lat="43.42488" lon="6.05225">
        <ele>297.52169799805</ele>
        <time>2014-05-28T12:41:08Z</time>
      </trkpt>
      <trkpt lat="43.42495" lon="6.05231">
        <ele>297.38735961914</ele>
        <time>2014-05-28T12:41:11Z</time>
      </trkpt>
      <trkpt lat="43.425" lon="6.05232">
        <ele>298.18560791016</ele>
        <time>2014-05-28T12:41:13Z</time>
      </trkpt>
      <trkpt lat="43.42511" lon="6.05232">
        <ele>298.63327026367</ele>
        <time>2014-05-28T12:41:19Z</time>
      </trkpt>
      <trkpt lat="43.42525" lon="6.05232">
        <ele>299.17782592773</ele>
        <time>2014-05-28T12:41:24Z</time>
      </trkpt>
      <trkpt lat="43.42534" lon="6.05232">
        <ele>299.45318603516</ele>
        <time>2014-05-28T12:41:28Z</time>
      </trkpt>
      <trkpt lat="43.42546" lon="6.05226">
        <ele>299.90124511719</ele>
        <time>2014-05-28T12:41:34Z</time>
      </trkpt>
      <trkpt lat="43.42548" lon="6.05226">
        <ele>299.92791748047</ele>
        <time>2014-05-28T12:41:36Z</time>
      </trkpt>
      <trkpt lat="43.4255" lon="6.05226">
        <ele>299.95428466797</ele>
        <time>2014-05-28T12:41:38Z</time>
      </trkpt>
      <trkpt lat="43.42555" lon="6.05224">
        <ele>299.99600219727</ele>
        <time>2014-05-28T12:41:40Z</time>
      </trkpt>
      <trkpt lat="43.42559" lon="6.05224">
        <ele>300</ele>
        <time>2014-05-28T12:41:42Z</time>
      </trkpt>
      <trkpt lat="43.42561" lon="6.05223">
        <ele>300</ele>
        <time>2014-05-28T12:41:43Z</time>
      </trkpt>
      <trkpt lat="43.42564" lon="6.05224">
        <ele>300</ele>
        <time>2014-05-28T12:41:45Z</time>
      </trkpt>
      <trkpt lat="43.4257" lon="6.05226">
        <ele>300</ele>
        <time>2014-05-28T12:41:48Z</time>
      </trkpt>
      <trkpt lat="43.42572" lon="6.05228">
        <ele>300</ele>
        <time>2014-05-28T12:41:49Z</time>
      </trkpt>
      <trkpt lat="43.42578" lon="6.05232">
        <ele>300</ele>
        <time>2014-05-28T12:41:52Z</time>
      </trkpt>
      <trkpt lat="43.42582" lon="6.05239">
        <ele>300</ele>
        <time>2014-05-28T12:41:55Z</time>
      </trkpt>
      <trkpt lat="43.42586" lon="6.05244">
        <ele>300</ele>
        <time>2014-05-28T12:41:57Z</time>
      </trkpt>
      <trkpt lat="43.42587" lon="6.05248">
        <ele>300</ele>
        <time>2014-05-28T12:41:59Z</time>
      </trkpt>
      <trkpt lat="43.4259" lon="6.05251">
        <ele>300</ele>
        <time>2014-05-28T12:42:01Z</time>
      </trkpt>
      <trkpt lat="43.42595" lon="6.05257">
        <ele>300</ele>
        <time>2014-05-28T12:42:06Z</time>
      </trkpt>
      <trkpt lat="43.42596" lon="6.05258">
        <ele>300</ele>
        <time>2014-05-28T12:42:07Z</time>
      </trkpt>
      <trkpt lat="43.42599" lon="6.05262">
        <ele>300</ele>
        <time>2014-05-28T12:42:10Z</time>
      </trkpt>
      <trkpt lat="43.42605" lon="6.05269">
        <ele>300</ele>
        <time>2014-05-28T12:42:15Z</time>
      </trkpt>
      <trkpt lat="43.42606" lon="6.05271">
        <ele>300</ele>
        <time>2014-05-28T12:42:16Z</time>
      </trkpt>
      <trkpt lat="43.42608" lon="6.05271">
        <ele>300</ele>
        <time>2014-05-28T12:42:17Z</time>
      </trkpt>
      <trkpt lat="43.4261" lon="6.05272">
        <ele>300</ele>
        <time>2014-05-28T12:42:18Z</time>
      </trkpt>
      <trkpt lat="43.42612" lon="6.05272">
        <ele>300</ele>
        <time>2014-05-28T12:42:19Z</time>
      </trkpt>
      <trkpt lat="43.42613" lon="6.05274">
        <ele>300</ele>
        <time>2014-05-28T12:42:20Z</time>
      </trkpt>
      <trkpt lat="43.42618" lon="6.05277">
        <ele>300</ele>
        <time>2014-05-28T12:42:24Z</time>
      </trkpt>
      <trkpt lat="43.42619" lon="6.05277">
        <ele>300</ele>
        <time>2014-05-28T12:42:25Z</time>
      </trkpt>
      <trkpt lat="43.42619" lon="6.05278">
        <ele>299.99633789062</ele>
        <time>2014-05-28T12:42:30Z</time>
      </trkpt>
      <trkpt lat="43.42619" lon="6.05278">
        <ele>299.99633789062</ele>
        <time>2014-05-28T12:42:49Z</time>
      </trkpt>
      <trkpt lat="43.42619" lon="6.05278">
        <ele>299.99633789062</ele>
        <time>2014-05-28T12:43:00Z</time>
      </trkpt>
      <trkpt lat="43.42619" lon="6.05278">
        <ele>299.99017333984</ele>
        <time>2014-05-28T12:43:07Z</time>
      </trkpt>
      <trkpt lat="43.42619" lon="6.05278">
        <ele>299.99017333984</ele>
        <time>2014-05-28T12:43:09Z</time>
      </trkpt>
      <trkpt lat="43.42622" lon="6.0528">
        <ele>299.95614624023</ele>
        <time>2014-05-28T12:43:18Z</time>
      </trkpt>
      <trkpt lat="43.42628" lon="6.05287">
        <ele>299.8674621582</ele>
        <time>2014-05-28T12:43:22Z</time>
      </trkpt>
      <trkpt lat="43.42633" lon="6.0529">
        <ele>299.90557861328</ele>
        <time>2014-05-28T12:43:25Z</time>
      </trkpt>
      <trkpt lat="43.42638" lon="6.05293">
        <ele>299.97503662109</ele>
        <time>2014-05-28T12:43:27Z</time>
      </trkpt>
      <trkpt lat="43.42643" lon="6.05301">
        <ele>300</ele>
        <time>2014-05-28T12:43:31Z</time>
      </trkpt>
      <trkpt lat="43.42645" lon="6.05305">
        <ele>300</ele>
        <time>2014-05-28T12:43:33Z</time>
      </trkpt>
      <trkpt lat="43.42646" lon="6.05308">
        <ele>300</ele>
        <time>2014-05-28T12:43:35Z</time>
      </trkpt>
      <trkpt lat="43.42651" lon="6.05316">
        <ele>300</ele>
        <time>2014-05-28T12:43:39Z</time>
      </trkpt>
      <trkpt lat="43.42658" lon="6.05323">
        <ele>300</ele>
        <time>2014-05-28T12:43:45Z</time>
      </trkpt>
      <trkpt lat="43.42661" lon="6.05324">
        <ele>300</ele>
        <time>2014-05-28T12:43:47Z</time>
      </trkpt>
      <trkpt lat="43.42665" lon="6.05329">
        <ele>300</ele>
        <time>2014-05-28T12:43:51Z</time>
      </trkpt>
      <trkpt lat="43.42667" lon="6.05325">
        <ele>300</ele>
        <time>2014-05-28T12:43:59Z</time>
      </trkpt>
      <trkpt lat="43.42667" lon="6.05323">
        <ele>300</ele>
        <time>2014-05-28T12:44:00Z</time>
      </trkpt>
      <trkpt lat="43.42667" lon="6.05324">
        <ele>300</ele>
        <time>2014-05-28T12:44:04Z</time>
      </trkpt>
      <trkpt lat="43.42667" lon="6.05324">
        <ele>300</ele>
        <time>2014-05-28T12:44:17Z</time>
      </trkpt>
      <trkpt lat="43.42667" lon="6.05324">
        <ele>300</ele>
        <time>2014-05-28T12:44:27Z</time>
      </trkpt>
      <trkpt lat="43.42668" lon="6.05326">
        <ele>300</ele>
        <time>2014-05-28T12:44:28Z</time>
      </trkpt>
      <trkpt lat="43.42671" lon="6.05333">
        <ele>300</ele>
        <time>2014-05-28T12:44:31Z</time>
      </trkpt>
      <trkpt lat="43.42673" lon="6.05336">
        <ele>300</ele>
        <time>2014-05-28T12:44:33Z</time>
      </trkpt>
      <trkpt lat="43.42674" lon="6.05338">
        <ele>300</ele>
        <time>2014-05-28T12:44:35Z</time>
      </trkpt>
      <trkpt lat="43.42675" lon="6.05339">
        <ele>300</ele>
        <time>2014-05-28T12:44:36Z</time>
      </trkpt>
      <trkpt lat="43.42675" lon="6.05339">
        <ele>300</ele>
        <time>2014-05-28T12:44:53Z</time>
      </trkpt>
      <trkpt lat="43.42675" lon="6.05339">
        <ele>300</ele>
        <time>2014-05-28T12:45:14Z</time>
      </trkpt>
      <trkpt lat="43.42675" lon="6.05339">
        <ele>300</ele>
        <time>2014-05-28T12:45:16Z</time>
      </trkpt>
      <trkpt lat="43.42675" lon="6.0534">
        <ele>300</ele>
        <time>2014-05-28T12:45:18Z</time>
      </trkpt>
      <trkpt lat="43.42677" lon="6.05343">
        <ele>300</ele>
        <time>2014-05-28T12:45:20Z</time>
      </trkpt>
      <trkpt lat="43.42679" lon="6.05344">
        <ele>300</ele>
        <time>2014-05-28T12:45:21Z</time>
      </trkpt>
      <trkpt lat="43.4268" lon="6.05346">
        <ele>300</ele>
        <time>2014-05-28T12:45:22Z</time>
      </trkpt>
      <trkpt lat="43.42684" lon="6.05348">
        <ele>300</ele>
        <time>2014-05-28T12:45:24Z</time>
      </trkpt>
      <trkpt lat="43.42688" lon="6.05349">
        <ele>300</ele>
        <time>2014-05-28T12:45:26Z</time>
      </trkpt>
      <trkpt lat="43.42693" lon="6.05348">
        <ele>300</ele>
        <time>2014-05-28T12:45:28Z</time>
      </trkpt>
      <trkpt lat="43.42702" lon="6.05349">
        <ele>300</ele>
        <time>2014-05-28T12:45:33Z</time>
      </trkpt>
      <trkpt lat="43.42708" lon="6.05358">
        <ele>300</ele>
        <time>2014-05-28T12:45:37Z</time>
      </trkpt>
      <trkpt lat="43.42709" lon="6.05367">
        <ele>300</ele>
        <time>2014-05-28T12:45:40Z</time>
      </trkpt>
      <trkpt lat="43.42707" lon="6.05378">
        <ele>300</ele>
        <time>2014-05-28T12:45:43Z</time>
      </trkpt>
      <trkpt lat="43.42707" lon="6.05385">
        <ele>300</ele>
        <time>2014-05-28T12:45:45Z</time>
      </trkpt>
      <trkpt lat="43.42707" lon="6.05388">
        <ele>300</ele>
        <time>2014-05-28T12:45:46Z</time>
      </trkpt>
      <trkpt lat="43.42714" lon="6.05409">
        <ele>300</ele>
        <time>2014-05-28T12:45:52Z</time>
      </trkpt>
      <trkpt lat="43.42716" lon="6.05414">
        <ele>300</ele>
        <time>2014-05-28T12:45:54Z</time>
      </trkpt>
      <trkpt lat="43.42719" lon="6.0542">
        <ele>300.13723754883</ele>
        <time>2014-05-28T12:45:57Z</time>
      </trkpt>
      <trkpt lat="43.42725" lon="6.0543">
        <ele>300.43719482422</ele>
        <time>2014-05-28T12:46:01Z</time>
      </trkpt>
      <trkpt lat="43.42727" lon="6.05433">
        <ele>300.48864746094</ele>
        <time>2014-05-28T12:46:02Z</time>
      </trkpt>
      <trkpt lat="43.42727" lon="6.05436">
        <ele>300.57183837891</ele>
        <time>2014-05-28T12:46:03Z</time>
      </trkpt>
      <trkpt lat="43.42729" lon="6.05448">
        <ele>301.04016113281</ele>
        <time>2014-05-28T12:46:07Z</time>
      </trkpt>
      <trkpt lat="43.42725" lon="6.05465">
        <ele>302.35507202148</ele>
        <time>2014-05-28T12:46:13Z</time>
      </trkpt>
      <trkpt lat="43.42723" lon="6.0547">
        <ele>302.80139160156</ele>
        <time>2014-05-28T12:46:15Z</time>
      </trkpt>
      <trkpt lat="43.42722" lon="6.05481">
        <ele>303.29650878906</ele>
        <time>2014-05-28T12:46:19Z</time>
      </trkpt>
      <trkpt lat="43.42724" lon="6.05502">
        <ele>304.13745117188</ele>
        <time>2014-05-28T12:46:26Z</time>
      </trkpt>
      <trkpt lat="43.42728" lon="6.05537">
        <ele>307.12051391602</ele>
        <time>2014-05-28T12:46:39Z</time>
      </trkpt>
      <trkpt lat="43.42734" lon="6.05558">
        <ele>309.12283325195</ele>
        <time>2014-05-28T12:46:47Z</time>
      </trkpt>
      <trkpt lat="43.42735" lon="6.05568">
        <ele>309.67657470703</ele>
        <time>2014-05-28T12:46:51Z</time>
      </trkpt>
      <trkpt lat="43.4274" lon="6.05579">
        <ele>310.37161254883</ele>
        <time>2014-05-28T12:46:56Z</time>
      </trkpt>
      <trkpt lat="43.42745" lon="6.05586">
        <ele>311.09536743164</ele>
        <time>2014-05-28T12:47:01Z</time>
      </trkpt>
      <trkpt lat="43.42746" lon="6.05589">
        <ele>311.52282714844</ele>
        <time>2014-05-28T12:47:03Z</time>
      </trkpt>
      <trkpt lat="43.42747" lon="6.05596">
        <ele>312.27124023438</ele>
        <time>2014-05-28T12:47:07Z</time>
      </trkpt>
      <trkpt lat="43.42747" lon="6.05601">
        <ele>312.83773803711</ele>
        <time>2014-05-28T12:47:10Z</time>
      </trkpt>
      <trkpt lat="43.4275" lon="6.05608">
        <ele>313.6496887207</ele>
        <time>2014-05-28T12:47:14Z</time>
      </trkpt>
      <trkpt lat="43.4275" lon="6.05618">
        <ele>314.48947143555</ele>
        <time>2014-05-28T12:47:19Z</time>
      </trkpt>
      <trkpt lat="43.42748" lon="6.05625">
        <ele>314.92776489258</ele>
        <time>2014-05-28T12:47:23Z</time>
      </trkpt>
      <trkpt lat="43.42746" lon="6.05628">
        <ele>315.10974121094</ele>
        <time>2014-05-28T12:47:25Z</time>
      </trkpt>
      <trkpt lat="43.4274" lon="6.05639">
        <ele>315.62127685547</ele>
        <time>2014-05-28T12:47:31Z</time>
      </trkpt>
      <trkpt lat="43.42734" lon="6.05645">
        <ele>315.77435302734</ele>
        <time>2014-05-28T12:47:35Z</time>
      </trkpt>
      <trkpt lat="43.42731" lon="6.05649">
        <ele>315.94812011719</ele>
        <time>2014-05-28T12:47:37Z</time>
      </trkpt>
      <trkpt lat="43.42728" lon="6.05653">
        <ele>316.13192749023</ele>
        <time>2014-05-28T12:47:39Z</time>
      </trkpt>
      <trkpt lat="43.42722" lon="6.05671">
        <ele>317.47576904297</ele>
        <time>2014-05-28T12:47:48Z</time>
      </trkpt>
      <trkpt lat="43.42719" lon="6.05679">
        <ele>318.28430175781</ele>
        <time>2014-05-28T12:47:53Z</time>
      </trkpt>
      <trkpt lat="43.42718" lon="6.05679">
        <ele>318.34094238281</ele>
        <time>2014-05-28T12:47:54Z</time>
      </trkpt>
      <trkpt lat="43.42715" lon="6.05681">
        <ele>318.50061035156</ele>
        <time>2014-05-28T12:47:56Z</time>
      </trkpt>
      <trkpt lat="43.42709" lon="6.05686">
        <ele>319.09283447266</ele>
        <time>2014-05-28T12:48:01Z</time>
      </trkpt>
      <trkpt lat="43.42707" lon="6.05692">
        <ele>319.70565795898</ele>
        <time>2014-05-28T12:48:05Z</time>
      </trkpt>
      <trkpt lat="43.42706" lon="6.05696">
        <ele>320.01745605469</ele>
        <time>2014-05-28T12:48:07Z</time>
      </trkpt>
      <trkpt lat="43.42704" lon="6.05704">
        <ele>320.12408447266</ele>
        <time>2014-05-28T12:48:11Z</time>
      </trkpt>
      <trkpt lat="43.42703" lon="6.05706">
        <ele>320.12829589844</ele>
        <time>2014-05-28T12:48:13Z</time>
      </trkpt>
      <trkpt lat="43.42702" lon="6.05709">
        <ele>320.13934326172</ele>
        <time>2014-05-28T12:48:15Z</time>
      </trkpt>
      <trkpt lat="43.42698" lon="6.05725">
        <ele>320.37564086914</ele>
        <time>2014-05-28T12:48:22Z</time>
      </trkpt>
      <trkpt lat="43.42697" lon="6.05728">
        <ele>320.64068603516</ele>
        <time>2014-05-28T12:48:24Z</time>
      </trkpt>
      <trkpt lat="43.42696" lon="6.05729">
        <ele>320.80059814453</ele>
        <time>2014-05-28T12:48:25Z</time>
      </trkpt>
      <trkpt lat="43.42696" lon="6.05736">
        <ele>321.48471069336</ele>
        <time>2014-05-28T12:48:29Z</time>
      </trkpt>
      <trkpt lat="43.42699" lon="6.05739">
        <ele>321.90902709961</ele>
        <time>2014-05-28T12:48:33Z</time>
      </trkpt>
      <trkpt lat="43.42702" lon="6.0574">
        <ele>321.99383544922</ele>
        <time>2014-05-28T12:48:36Z</time>
      </trkpt>
      <trkpt lat="43.42703" lon="6.0574">
        <ele>321.98504638672</ele>
        <time>2014-05-28T12:48:37Z</time>
      </trkpt>
      <trkpt lat="43.42703" lon="6.0574">
        <ele>321.98504638672</ele>
        <time>2014-05-28T12:48:54Z</time>
      </trkpt>
      <trkpt lat="43.42703" lon="6.0574">
        <ele>321.98504638672</ele>
        <time>2014-05-28T12:49:09Z</time>
      </trkpt>
      <trkpt lat="43.42703" lon="6.0574">
        <ele>321.99893188477</ele>
        <time>2014-05-28T12:49:11Z</time>
      </trkpt>
      <trkpt lat="43.42703" lon="6.0574">
        <ele>322.04547119141</ele>
        <time>2014-05-28T12:49:13Z</time>
      </trkpt>
      <trkpt lat="43.42701" lon="6.05739">
        <ele>321.91647338867</ele>
        <time>2014-05-28T12:49:18Z</time>
      </trkpt>
      <trkpt lat="43.42699" lon="6.05739">
        <ele>321.83685302734</ele>
        <time>2014-05-28T12:49:22Z</time>
      </trkpt>
      <trkpt lat="43.42697" lon="6.05739">
        <ele>321.82281494141</ele>
        <time>2014-05-28T12:49:25Z</time>
      </trkpt>
      <trkpt lat="43.42697" lon="6.05739">
        <ele>321.80722045898</ele>
        <time>2014-05-28T12:49:28Z</time>
      </trkpt>
      <trkpt lat="43.42697" lon="6.05739">
        <ele>321.82778930664</ele>
        <time>2014-05-28T12:49:32Z</time>
      </trkpt>
      <trkpt lat="43.42697" lon="6.05739">
        <ele>321.82778930664</ele>
        <time>2014-05-28T12:49:50Z</time>
      </trkpt>
      <trkpt lat="43.42697" lon="6.05739">
        <ele>321.87762451172</ele>
        <time>2014-05-28T12:52:16Z</time>
      </trkpt>
      <trkpt lat="43.42697" lon="6.05739">
        <ele>321.87762451172</ele>
        <time>2014-05-28T12:52:35Z</time>
      </trkpt>
      <trkpt lat="43.42697" lon="6.05739">
        <ele>321.88757324219</ele>
        <time>2014-05-28T12:52:50Z</time>
      </trkpt>
      <trkpt lat="43.42697" lon="6.05739">
        <ele>321.88757324219</ele>
        <time>2014-05-28T12:53:08Z</time>
      </trkpt>
      <trkpt lat="43.42697" lon="6.05739">
        <ele>321.88757324219</ele>
        <time>2014-05-28T12:53:21Z</time>
      </trkpt>
      <trkpt lat="43.42697" lon="6.05739">
        <ele>321.89755249023</ele>
        <time>2014-05-28T12:53:25Z</time>
      </trkpt>
      <trkpt lat="43.42698" lon="6.0574">
        <ele>321.93264770508</ele>
        <time>2014-05-28T12:53:29Z</time>
      </trkpt>
      <trkpt lat="43.42698" lon="6.0574">
        <ele>321.93264770508</ele>
        <time>2014-05-28T12:53:30Z</time>
      </trkpt>
      <trkpt lat="43.42702" lon="6.0574">
        <ele>322.0400390625</ele>
        <time>2014-05-28T12:53:34Z</time>
      </trkpt>
      <trkpt lat="43.42704" lon="6.0574">
        <ele>322.09173583984</ele>
        <time>2014-05-28T12:53:35Z</time>
      </trkpt>
      <trkpt lat="43.42714" lon="6.05741">
        <ele>322.22503662109</ele>
        <time>2014-05-28T12:53:39Z</time>
      </trkpt>
      <trkpt lat="43.42728" lon="6.05743">
        <ele>322.525390625</ele>
        <time>2014-05-28T12:53:44Z</time>
      </trkpt>
      <trkpt lat="43.42731" lon="6.05744">
        <ele>322.55972290039</ele>
        <time>2014-05-28T12:53:45Z</time>
      </trkpt>
      <trkpt lat="43.4274" lon="6.05745">
        <ele>322.61120605469</ele>
        <time>2014-05-28T12:53:48Z</time>
      </trkpt>
      <trkpt lat="43.42747" lon="6.05746">
        <ele>322.67987060547</ele>
        <time>2014-05-28T12:53:51Z</time>
      </trkpt>
      <trkpt lat="43.42758" lon="6.05739">
        <ele>322.3141784668</ele>
        <time>2014-05-28T12:53:56Z</time>
      </trkpt>
      <trkpt lat="43.42767" lon="6.05733">
        <ele>322.13107299805</ele>
        <time>2014-05-28T12:54:01Z</time>
      </trkpt>
      <trkpt lat="43.42775" lon="6.05735">
        <ele>322.39834594727</ele>
        <time>2014-05-28T12:54:06Z</time>
      </trkpt>
      <trkpt lat="43.42783" lon="6.05741">
        <ele>322.86566162109</ele>
        <time>2014-05-28T12:54:14Z</time>
      </trkpt>
      <trkpt lat="43.42784" lon="6.05741">
        <ele>322.91543579102</ele>
        <time>2014-05-28T12:54:15Z</time>
      </trkpt>
      <trkpt lat="43.42786" lon="6.05743">
        <ele>323.05621337891</ele>
        <time>2014-05-28T12:54:17Z</time>
      </trkpt>
      <trkpt lat="43.42788" lon="6.05746">
        <ele>323.22613525391</ele>
        <time>2014-05-28T12:54:19Z</time>
      </trkpt>
      <trkpt lat="43.42791" lon="6.05747">
        <ele>323.38064575195</ele>
        <time>2014-05-28T12:54:21Z</time>
      </trkpt>
      <trkpt lat="43.42798" lon="6.05747">
        <ele>323.63641357422</ele>
        <time>2014-05-28T12:54:25Z</time>
      </trkpt>
      <trkpt lat="43.42807" lon="6.05742">
        <ele>323.67388916016</ele>
        <time>2014-05-28T12:54:29Z</time>
      </trkpt>
      <trkpt lat="43.42817" lon="6.05739">
        <ele>323.35824584961</ele>
        <time>2014-05-28T12:54:33Z</time>
      </trkpt>
      <trkpt lat="43.42821" lon="6.05738">
        <ele>323.25238037109</ele>
        <time>2014-05-28T12:54:35Z</time>
      </trkpt>
      <trkpt lat="43.42825" lon="6.05736">
        <ele>323.14181518555</ele>
        <time>2014-05-28T12:54:38Z</time>
      </trkpt>
      <trkpt lat="43.42828" lon="6.05734">
        <ele>323.08752441406</ele>
        <time>2014-05-28T12:54:42Z</time>
      </trkpt>
      <trkpt lat="43.42828" lon="6.05734">
        <ele>323.08169555664</ele>
        <time>2014-05-28T12:54:47Z</time>
      </trkpt>
      <trkpt lat="43.42829" lon="6.05734">
        <ele>323.06317138672</ele>
        <time>2014-05-28T12:54:49Z</time>
      </trkpt>
      <trkpt lat="43.42833" lon="6.05732">
        <ele>323.00494384766</ele>
        <time>2014-05-28T12:54:54Z</time>
      </trkpt>
      <trkpt lat="43.4284" lon="6.0572">
        <ele>322.45883178711</ele>
        <time>2014-05-28T12:54:59Z</time>
      </trkpt>
      <trkpt lat="43.42842" lon="6.05713">
        <ele>322.17001342773</ele>
        <time>2014-05-28T12:55:01Z</time>
      </trkpt>
      <trkpt lat="43.42844" lon="6.05702">
        <ele>321.81182861328</ele>
        <time>2014-05-28T12:55:04Z</time>
      </trkpt>
      <trkpt lat="43.42849" lon="6.05641">
        <ele>321.95355224609</ele>
        <time>2014-05-28T12:55:18Z</time>
      </trkpt>
      <trkpt lat="43.42852" lon="6.05624">
        <ele>322</ele>
        <time>2014-05-28T12:55:21Z</time>
      </trkpt>
      <trkpt lat="43.42852" lon="6.05612">
        <ele>322</ele>
        <time>2014-05-28T12:55:23Z</time>
      </trkpt>
      <trkpt lat="43.42854" lon="6.05595">
        <ele>322.57769775391</ele>
        <time>2014-05-28T12:55:26Z</time>
      </trkpt>
      <trkpt lat="43.42857" lon="6.05568">
        <ele>322.92422485352</ele>
        <time>2014-05-28T12:55:31Z</time>
      </trkpt>
      <trkpt lat="43.42863" lon="6.05545">
        <ele>323</ele>
        <time>2014-05-28T12:55:37Z</time>
      </trkpt>
      <trkpt lat="43.42864" lon="6.05544">
        <ele>323</ele>
        <time>2014-05-28T12:55:41Z</time>
      </trkpt>
      <trkpt lat="43.42864" lon="6.05545">
        <ele>323</ele>
        <time>2014-05-28T12:55:49Z</time>
      </trkpt>
      <trkpt lat="43.42871" lon="6.05547">
        <ele>323</ele>
        <time>2014-05-28T12:55:53Z</time>
      </trkpt>
      <trkpt lat="43.42884" lon="6.05554">
        <ele>323</ele>
        <time>2014-05-28T12:55:58Z</time>
      </trkpt>
      <trkpt lat="43.42886" lon="6.05556">
        <ele>322.99301147461</ele>
        <time>2014-05-28T12:55:59Z</time>
      </trkpt>
      <trkpt lat="43.42888" lon="6.05557">
        <ele>322.95544433594</ele>
        <time>2014-05-28T12:56:00Z</time>
      </trkpt>
      <trkpt lat="43.42891" lon="6.05557">
        <ele>322.71502685547</ele>
        <time>2014-05-28T12:56:01Z</time>
      </trkpt>
      <trkpt lat="43.42894" lon="6.05559">
        <ele>322.39627075195</ele>
        <time>2014-05-28T12:56:02Z</time>
      </trkpt>
      <trkpt lat="43.42897" lon="6.05559">
        <ele>322.02868652344</ele>
        <time>2014-05-28T12:56:03Z</time>
      </trkpt>
      <trkpt lat="43.4291" lon="6.05554">
        <ele>320.72415161133</ele>
        <time>2014-05-28T12:56:08Z</time>
      </trkpt>
      <trkpt lat="43.42915" lon="6.05551">
        <ele>320.2825012207</ele>
        <time>2014-05-28T12:56:10Z</time>
      </trkpt>
      <trkpt lat="43.42924" lon="6.05549">
        <ele>320.30139160156</ele>
        <time>2014-05-28T12:56:13Z</time>
      </trkpt>
      <trkpt lat="43.42935" lon="6.05537">
        <ele>321.13412475586</ele>
        <time>2014-05-28T12:56:19Z</time>
      </trkpt>
      <trkpt lat="43.42942" lon="6.05532">
        <ele>321.65057373047</ele>
        <time>2014-05-28T12:56:23Z</time>
      </trkpt>
      <trkpt lat="43.42949" lon="6.05528">
        <ele>322.34268188477</ele>
        <time>2014-05-28T12:56:26Z</time>
      </trkpt>
      <trkpt lat="43.42952" lon="6.05526">
        <ele>322.56237792969</ele>
        <time>2014-05-28T12:56:27Z</time>
      </trkpt>
      <trkpt lat="43.42955" lon="6.05523">
        <ele>322.84124755859</ele>
        <time>2014-05-28T12:56:29Z</time>
      </trkpt>
      <trkpt lat="43.42956" lon="6.05522">
        <ele>322.96362304688</ele>
        <time>2014-05-28T12:56:30Z</time>
      </trkpt>
      <trkpt lat="43.4296" lon="6.05521">
        <ele>323.20935058594</ele>
        <time>2014-05-28T12:56:32Z</time>
      </trkpt>
      <trkpt lat="43.42964" lon="6.0552">
        <ele>323.50442504883</ele>
        <time>2014-05-28T12:56:34Z</time>
      </trkpt>
      <trkpt lat="43.42969" lon="6.05518">
        <ele>323.79312133789</ele>
        <time>2014-05-28T12:56:36Z</time>
      </trkpt>
      <trkpt lat="43.42972" lon="6.05516">
        <ele>323.97592163086</ele>
        <time>2014-05-28T12:56:37Z</time>
      </trkpt>
      <trkpt lat="43.42979" lon="6.05511">
        <ele>323.48095703125</ele>
        <time>2014-05-28T12:56:40Z</time>
      </trkpt>
      <trkpt lat="43.42982" lon="6.05509">
        <ele>323.31616210938</ele>
        <time>2014-05-28T12:56:41Z</time>
      </trkpt>
      <trkpt lat="43.42985" lon="6.05507">
        <ele>323.06896972656</ele>
        <time>2014-05-28T12:56:43Z</time>
      </trkpt>
      <trkpt lat="43.42987" lon="6.05506">
        <ele>322.931640625</ele>
        <time>2014-05-28T12:56:44Z</time>
      </trkpt>
      <trkpt lat="43.42991" lon="6.05505">
        <ele>322.62951660156</ele>
        <time>2014-05-28T12:56:47Z</time>
      </trkpt>
      <trkpt lat="43.42998" lon="6.05504">
        <ele>322.16259765625</ele>
        <time>2014-05-28T12:56:51Z</time>
      </trkpt>
      <trkpt lat="43.43" lon="6.05504">
        <ele>321.99890136719</ele>
        <time>2014-05-28T12:56:53Z</time>
      </trkpt>
      <trkpt lat="43.43003" lon="6.05505">
        <ele>321.87530517578</ele>
        <time>2014-05-28T12:56:56Z</time>
      </trkpt>
      <trkpt lat="43.43003" lon="6.05505">
        <ele>321.87530517578</ele>
        <time>2014-05-28T12:56:57Z</time>
      </trkpt>
      <trkpt lat="43.43003" lon="6.05505">
        <ele>321.87530517578</ele>
        <time>2014-05-28T12:57:01Z</time>
      </trkpt>
      <trkpt lat="43.43003" lon="6.05505">
        <ele>321.87530517578</ele>
        <time>2014-05-28T12:57:05Z</time>
      </trkpt>
      <trkpt lat="43.43003" lon="6.05505">
        <ele>321.87530517578</ele>
        <time>2014-05-28T12:57:29Z</time>
      </trkpt>
      <trkpt lat="43.43003" lon="6.05505">
        <ele>321.87530517578</ele>
        <time>2014-05-28T12:57:42Z</time>
      </trkpt>
      <trkpt lat="43.43006" lon="6.05508">
        <ele>321.77917480469</ele>
        <time>2014-05-28T12:57:51Z</time>
      </trkpt>
      <trkpt lat="43.43012" lon="6.05517">
        <ele>321.55944824219</ele>
        <time>2014-05-28T12:57:55Z</time>
      </trkpt>
      <trkpt lat="43.43013" lon="6.0552">
        <ele>321.54571533203</ele>
        <time>2014-05-28T12:57:56Z</time>
      </trkpt>
      <trkpt lat="43.43014" lon="6.05535">
        <ele>321.49078369141</ele>
        <time>2014-05-28T12:57:59Z</time>
      </trkpt>
      <trkpt lat="43.43015" lon="6.05541">
        <ele>321.46331787109</ele>
        <time>2014-05-28T12:58:00Z</time>
      </trkpt>
      <trkpt lat="43.43019" lon="6.05557">
        <ele>321.25637817383</ele>
        <time>2014-05-28T12:58:03Z</time>
      </trkpt>
      <trkpt lat="43.4302" lon="6.05568">
        <ele>320.82720947266</ele>
        <time>2014-05-28T12:58:05Z</time>
      </trkpt>
      <trkpt lat="43.43021" lon="6.05574">
        <ele>320.60406494141</ele>
        <time>2014-05-28T12:58:06Z</time>
      </trkpt>
      <trkpt lat="43.43023" lon="6.05579">
        <ele>320.34484863281</ele>
        <time>2014-05-28T12:58:07Z</time>
      </trkpt>
      <trkpt lat="43.43027" lon="6.05591">
        <ele>320.03759765625</ele>
        <time>2014-05-28T12:58:10Z</time>
      </trkpt>
      <trkpt lat="43.43029" lon="6.05611">
        <ele>320</ele>
        <time>2014-05-28T12:58:14Z</time>
      </trkpt>
      <trkpt lat="43.43028" lon="6.05622">
        <ele>320</ele>
        <time>2014-05-28T12:58:16Z</time>
      </trkpt>
      <trkpt lat="43.43027" lon="6.05632">
        <ele>320.02386474609</ele>
        <time>2014-05-28T12:58:18Z</time>
      </trkpt>
      <trkpt lat="43.43026" lon="6.05643">
        <ele>320.06506347656</ele>
        <time>2014-05-28T12:58:20Z</time>
      </trkpt>
      <trkpt lat="43.43024" lon="6.05668">
        <ele>320.13372802734</ele>
        <time>2014-05-28T12:58:24Z</time>
      </trkpt>
      <trkpt lat="43.43027" lon="6.05694">
        <ele>320.02386474609</ele>
        <time>2014-05-28T12:58:29Z</time>
      </trkpt>
      <trkpt lat="43.43021" lon="6.05713">
        <ele>320.07800292969</ele>
        <time>2014-05-28T12:58:33Z</time>
      </trkpt>
      <trkpt lat="43.43016" lon="6.05735">
        <ele>320</ele>
        <time>2014-05-28T12:58:37Z</time>
      </trkpt>
      <trkpt lat="43.43013" lon="6.05739">
        <ele>320</ele>
        <time>2014-05-28T12:58:38Z</time>
      </trkpt>
      <trkpt lat="43.4301" lon="6.05742">
        <ele>320</ele>
        <time>2014-05-28T12:58:39Z</time>
      </trkpt>
      <trkpt lat="43.43007" lon="6.05746">
        <ele>320</ele>
        <time>2014-05-28T12:58:40Z</time>
      </trkpt>
      <trkpt lat="43.43005" lon="6.05751">
        <ele>320</ele>
        <time>2014-05-28T12:58:41Z</time>
      </trkpt>
      <trkpt lat="43.43003" lon="6.05756">
        <ele>320</ele>
        <time>2014-05-28T12:58:42Z</time>
      </trkpt>
      <trkpt lat="43.43" lon="6.05776">
        <ele>320</ele>
        <time>2014-05-28T12:58:46Z</time>
      </trkpt>
      <trkpt lat="43.42999" lon="6.05791">
        <ele>320.05383300781</ele>
        <time>2014-05-28T12:58:51Z</time>
      </trkpt>
      <trkpt lat="43.42998" lon="6.05792">
        <ele>320.08129882812</ele>
        <time>2014-05-28T12:58:57Z</time>
      </trkpt>
      <trkpt lat="43.42998" lon="6.05792">
        <ele>320.08129882812</ele>
        <time>2014-05-28T12:59:13Z</time>
      </trkpt>
      <trkpt lat="43.42998" lon="6.05792">
        <ele>320.08129882812</ele>
        <time>2014-05-28T12:59:27Z</time>
      </trkpt>
      <trkpt lat="43.43" lon="6.05799">
        <ele>320.01263427734</ele>
        <time>2014-05-28T12:59:31Z</time>
      </trkpt>
      <trkpt lat="43.43002" lon="6.05808">
        <ele>319.87634277344</ele>
        <time>2014-05-28T12:59:33Z</time>
      </trkpt>
      <trkpt lat="43.43002" lon="6.05816">
        <ele>319.52944946289</ele>
        <time>2014-05-28T12:59:35Z</time>
      </trkpt>
      <trkpt lat="43.43002" lon="6.05822">
        <ele>319.30316162109</ele>
        <time>2014-05-28T12:59:36Z</time>
      </trkpt>
      <trkpt lat="43.43004" lon="6.0584">
        <ele>317.83514404297</ele>
        <time>2014-05-28T12:59:39Z</time>
      </trkpt>
      <trkpt lat="43.43004" lon="6.05849">
        <ele>316.78961181641</ele>
        <time>2014-05-28T12:59:41Z</time>
      </trkpt>
      <trkpt lat="43.43005" lon="6.05852">
        <ele>316.22100830078</ele>
        <time>2014-05-28T12:59:42Z</time>
      </trkpt>
      <trkpt lat="43.43008" lon="6.05855">
        <ele>315.61904907227</ele>
        <time>2014-05-28T12:59:43Z</time>
      </trkpt>
      <trkpt lat="43.43016" lon="6.05861">
        <ele>313.61755371094</ele>
        <time>2014-05-28T12:59:46Z</time>
      </trkpt>
      <trkpt lat="43.4302" lon="6.05863">
        <ele>312.90344238281</ele>
        <time>2014-05-28T12:59:47Z</time>
      </trkpt>
      <trkpt lat="43.43025" lon="6.05864">
        <ele>312.07769775391</ele>
        <time>2014-05-28T12:59:48Z</time>
      </trkpt>
      <trkpt lat="43.4303" lon="6.05864">
        <ele>311.10992431641</ele>
        <time>2014-05-28T12:59:49Z</time>
      </trkpt>
      <trkpt lat="43.43039" lon="6.05861">
        <ele>309.23101806641</ele>
        <time>2014-05-28T12:59:51Z</time>
      </trkpt>
      <trkpt lat="43.43042" lon="6.0586">
        <ele>308.59243774414</ele>
        <time>2014-05-28T12:59:52Z</time>
      </trkpt>
      <trkpt lat="43.43045" lon="6.05859">
        <ele>307.98132324219</ele>
        <time>2014-05-28T12:59:53Z</time>
      </trkpt>
      <trkpt lat="43.43048" lon="6.05858">
        <ele>307.24661254883</ele>
        <time>2014-05-28T12:59:54Z</time>
      </trkpt>
      <trkpt lat="43.43053" lon="6.05856">
        <ele>306.33337402344</ele>
        <time>2014-05-28T12:59:55Z</time>
      </trkpt>
      <trkpt lat="43.43058" lon="6.05855">
        <ele>305.25915527344</ele>
        <time>2014-05-28T12:59:56Z</time>
      </trkpt>
      <trkpt lat="43.43068" lon="6.05854">
        <ele>303.14630126953</ele>
        <time>2014-05-28T12:59:58Z</time>
      </trkpt>
      <trkpt lat="43.43073" lon="6.05854">
        <ele>302.05850219727</ele>
        <time>2014-05-28T12:59:59Z</time>
      </trkpt>
      <trkpt lat="43.43078" lon="6.05853">
        <ele>301.03869628906</ele>
        <time>2014-05-28T13:00:00Z</time>
      </trkpt>
      <trkpt lat="43.43083" lon="6.05851">
        <ele>300.12133789062</ele>
        <time>2014-05-28T13:00:01Z</time>
      </trkpt>
      <trkpt lat="43.43092" lon="6.05848">
        <ele>299.55307006836</ele>
        <time>2014-05-28T13:00:03Z</time>
      </trkpt>
      <trkpt lat="43.43095" lon="6.05848">
        <ele>299.11532592773</ele>
        <time>2014-05-28T13:00:04Z</time>
      </trkpt>
      <trkpt lat="43.43099" lon="6.05847">
        <ele>298.89904785156</ele>
        <time>2014-05-28T13:00:05Z</time>
      </trkpt>
      <trkpt lat="43.43103" lon="6.05845">
        <ele>298.63125610352</ele>
        <time>2014-05-28T13:00:06Z</time>
      </trkpt>
      <trkpt lat="43.43112" lon="6.05847">
        <ele>297.37286376953</ele>
        <time>2014-05-28T13:00:08Z</time>
      </trkpt>
      <trkpt lat="43.43117" lon="6.05847">
        <ele>296.5666809082</ele>
        <time>2014-05-28T13:00:09Z</time>
      </trkpt>
      <trkpt lat="43.43133" lon="6.05846">
        <ele>294.05679321289</ele>
        <time>2014-05-28T13:00:12Z</time>
      </trkpt>
      <trkpt lat="43.43138" lon="6.05844">
        <ele>293.32302856445</ele>
        <time>2014-05-28T13:00:13Z</time>
      </trkpt>
      <trkpt lat="43.43143" lon="6.05844">
        <ele>291.96185302734</ele>
        <time>2014-05-28T13:00:14Z</time>
      </trkpt>
      <trkpt lat="43.43148" lon="6.05841">
        <ele>290.66360473633</ele>
        <time>2014-05-28T13:00:15Z</time>
      </trkpt>
      <trkpt lat="43.43153" lon="6.0584">
        <ele>289.20236206055</ele>
        <time>2014-05-28T13:00:16Z</time>
      </trkpt>
      <trkpt lat="43.43157" lon="6.05839">
        <ele>287.81726074219</ele>
        <time>2014-05-28T13:00:17Z</time>
      </trkpt>
      <trkpt lat="43.43162" lon="6.05837">
        <ele>286.31381225586</ele>
        <time>2014-05-28T13:00:18Z</time>
      </trkpt>
      <trkpt lat="43.43168" lon="6.05835">
        <ele>284.71493530273</ele>
        <time>2014-05-28T13:00:19Z</time>
      </trkpt>
      <trkpt lat="43.43173" lon="6.05832">
        <ele>283.92529296875</ele>
        <time>2014-05-28T13:00:20Z</time>
      </trkpt>
      <trkpt lat="43.43177" lon="6.05828">
        <ele>283.37768554688</ele>
        <time>2014-05-28T13:00:21Z</time>
      </trkpt>
      <trkpt lat="43.43179" lon="6.05825">
        <ele>283.17169189453</ele>
        <time>2014-05-28T13:00:22Z</time>
      </trkpt>
      <trkpt lat="43.43179" lon="6.05822">
        <ele>283.19229125977</ele>
        <time>2014-05-28T13:00:23Z</time>
      </trkpt>
      <trkpt lat="43.43179" lon="6.05822">
        <ele>283.21118164062</ele>
        <time>2014-05-28T13:00:24Z</time>
      </trkpt>
      <trkpt lat="43.43179" lon="6.05822">
        <ele>283.21118164062</ele>
        <time>2014-05-28T13:00:25Z</time>
      </trkpt>
      <trkpt lat="43.43179" lon="6.05822">
        <ele>283.13565063477</ele>
        <time>2014-05-28T13:00:27Z</time>
      </trkpt>
      <trkpt lat="43.43179" lon="6.05822">
        <ele>283.13565063477</ele>
        <time>2014-05-28T13:00:52Z</time>
      </trkpt>
      <trkpt lat="43.43179" lon="6.05822">
        <ele>283.13565063477</ele>
        <time>2014-05-28T13:01:05Z</time>
      </trkpt>
      <trkpt lat="43.43179" lon="6.05822">
        <ele>283.21118164062</ele>
        <time>2014-05-28T13:01:19Z</time>
      </trkpt>
      <trkpt lat="43.43179" lon="6.05822">
        <ele>283.21118164062</ele>
        <time>2014-05-28T13:01:29Z</time>
      </trkpt>
      <trkpt lat="43.43179" lon="6.05821">
        <ele>283.14938354492</ele>
        <time>2014-05-28T13:01:32Z</time>
      </trkpt>
      <trkpt lat="43.43179" lon="6.05818">
        <ele>283.39828491211</ele>
        <time>2014-05-28T13:01:36Z</time>
      </trkpt>
      <trkpt lat="43.43178" lon="6.05823">
        <ele>283.28671264648</ele>
        <time>2014-05-28T13:01:39Z</time>
      </trkpt>
      <trkpt lat="43.43174" lon="6.05832">
        <ele>283.78280639648</ele>
        <time>2014-05-28T13:01:44Z</time>
      </trkpt>
      <trkpt lat="43.4317" lon="6.05834">
        <ele>284.33898925781</ele>
        <time>2014-05-28T13:01:47Z</time>
      </trkpt>
      <trkpt lat="43.43166" lon="6.05836">
        <ele>285.14282226562</ele>
        <time>2014-05-28T13:01:50Z</time>
      </trkpt>
      <trkpt lat="43.43164" lon="6.05836">
        <ele>285.60311889648</ele>
        <time>2014-05-28T13:01:52Z</time>
      </trkpt>
      <trkpt lat="43.43161" lon="6.05838">
        <ele>286.52890014648</ele>
        <time>2014-05-28T13:01:55Z</time>
      </trkpt>
      <trkpt lat="43.4316" lon="6.05838">
        <ele>286.97650146484</ele>
        <time>2014-05-28T13:01:57Z</time>
      </trkpt>
      <trkpt lat="43.43157" lon="6.05839">
        <ele>287.79196166992</ele>
        <time>2014-05-28T13:01:59Z</time>
      </trkpt>
      <trkpt lat="43.43156" lon="6.0584">
        <ele>288.00762939453</ele>
        <time>2014-05-28T13:02:00Z</time>
      </trkpt>
      <trkpt lat="43.43145" lon="6.05843">
        <ele>291.52770996094</ele>
        <time>2014-05-28T13:02:09Z</time>
      </trkpt>
      <trkpt lat="43.4314" lon="6.05844">
        <ele>292.974609375</ele>
        <time>2014-05-28T13:02:13Z</time>
      </trkpt>
      <trkpt lat="43.4313" lon="6.05846">
        <ele>294.4436340332</ele>
        <time>2014-05-28T13:02:20Z</time>
      </trkpt>
      <trkpt lat="43.43122" lon="6.05846">
        <ele>295.77410888672</ele>
        <time>2014-05-28T13:02:26Z</time>
      </trkpt>
      <trkpt lat="43.43117" lon="6.05846">
        <ele>296.68151855469</ele>
        <time>2014-05-28T13:02:31Z</time>
      </trkpt>
      <trkpt lat="43.43114" lon="6.05846">
        <ele>297.03536987305</ele>
        <time>2014-05-28T13:02:33Z</time>
      </trkpt>
      <trkpt lat="43.43111" lon="6.05846">
        <ele>297.64764404297</ele>
        <time>2014-05-28T13:02:36Z</time>
      </trkpt>
      <trkpt lat="43.43109" lon="6.05846">
        <ele>297.88452148438</ele>
        <time>2014-05-28T13:02:38Z</time>
      </trkpt>
      <trkpt lat="43.43108" lon="6.05846">
        <ele>298.01843261719</ele>
        <time>2014-05-28T13:02:43Z</time>
      </trkpt>
      <trkpt lat="43.43108" lon="6.05845">
        <ele>298.08535766602</ele>
        <time>2014-05-28T13:02:45Z</time>
      </trkpt>
      <trkpt lat="43.43108" lon="6.05845">
        <ele>298.08535766602</ele>
        <time>2014-05-28T13:02:47Z</time>
      </trkpt>
      <trkpt lat="43.43107" lon="6.05845">
        <ele>298.15747070312</ele>
        <time>2014-05-28T13:02:49Z</time>
      </trkpt>
      <trkpt lat="43.43106" lon="6.05845">
        <ele>298.30166625977</ele>
        <time>2014-05-28T13:02:54Z</time>
      </trkpt>
      <trkpt lat="43.43105" lon="6.05845">
        <ele>298.40466308594</ele>
        <time>2014-05-28T13:02:59Z</time>
      </trkpt>
      <trkpt lat="43.43105" lon="6.05845">
        <ele>298.44586181641</ele>
        <time>2014-05-28T13:03:00Z</time>
      </trkpt>
      <trkpt lat="43.43103" lon="6.05845">
        <ele>298.66213989258</ele>
        <time>2014-05-28T13:03:06Z</time>
      </trkpt>
      <trkpt lat="43.43102" lon="6.05845">
        <ele>298.73937988281</ele>
        <time>2014-05-28T13:03:12Z</time>
      </trkpt>
      <trkpt lat="43.43102" lon="6.05845">
        <ele>298.73937988281</ele>
        <time>2014-05-28T13:03:40Z</time>
      </trkpt>
      <trkpt lat="43.43102" lon="6.05844">
        <ele>298.83209228516</ele>
        <time>2014-05-28T13:04:29Z</time>
      </trkpt>
      <trkpt lat="43.43102" lon="6.05844">
        <ele>298.83209228516</ele>
        <time>2014-05-28T13:04:39Z</time>
      </trkpt>
      <trkpt lat="43.43102" lon="6.05844">
        <ele>298.83209228516</ele>
        <time>2014-05-28T13:04:54Z</time>
      </trkpt>
      <trkpt lat="43.43102" lon="6.05845">
        <ele>298.67761230469</ele>
        <time>2014-05-28T13:05:01Z</time>
      </trkpt>
      <trkpt lat="43.43103" lon="6.05844">
        <ele>298.78573608398</ele>
        <time>2014-05-28T13:05:03Z</time>
      </trkpt>
      <trkpt lat="43.43104" lon="6.05844">
        <ele>298.63641357422</ele>
        <time>2014-05-28T13:05:06Z</time>
      </trkpt>
      <trkpt lat="43.43109" lon="6.05844">
        <ele>298.13687133789</ele>
        <time>2014-05-28T13:05:08Z</time>
      </trkpt>
      <trkpt lat="43.43121" lon="6.05846">
        <ele>296.06790161133</ele>
        <time>2014-05-28T13:05:13Z</time>
      </trkpt>
      <trkpt lat="43.43121" lon="6.05846">
        <ele>296.07247924805</ele>
        <time>2014-05-28T13:05:14Z</time>
      </trkpt>
      <trkpt lat="43.43121" lon="6.05846">
        <ele>296.07247924805</ele>
        <time>2014-05-28T13:05:18Z</time>
      </trkpt>
      <trkpt lat="43.43128" lon="6.05846">
        <ele>294.90441894531</ele>
        <time>2014-05-28T13:05:23Z</time>
      </trkpt>
      <trkpt lat="43.43136" lon="6.05845">
        <ele>293.60635375977</ele>
        <time>2014-05-28T13:05:26Z</time>
      </trkpt>
      <trkpt lat="43.4314" lon="6.05843">
        <ele>292.80505371094</ele>
        <time>2014-05-28T13:05:28Z</time>
      </trkpt>
      <trkpt lat="43.43145" lon="6.05842">
        <ele>291.57083129883</ele>
        <time>2014-05-28T13:05:30Z</time>
      </trkpt>
      <trkpt lat="43.43148" lon="6.05841">
        <ele>290.67227172852</ele>
        <time>2014-05-28T13:05:32Z</time>
      </trkpt>
      <trkpt lat="43.43148" lon="6.05841">
        <ele>290.67227172852</ele>
        <time>2014-05-28T13:05:35Z</time>
      </trkpt>
      <trkpt lat="43.43148" lon="6.05841">
        <ele>290.67227172852</ele>
        <time>2014-05-28T13:05:36Z</time>
      </trkpt>
      <trkpt lat="43.43148" lon="6.05841">
        <ele>290.55838012695</ele>
        <time>2014-05-28T13:05:37Z</time>
      </trkpt>
      <trkpt lat="43.43152" lon="6.0584">
        <ele>289.33578491211</ele>
        <time>2014-05-28T13:05:39Z</time>
      </trkpt>
      <trkpt lat="43.43158" lon="6.05838">
        <ele>287.7395324707</ele>
        <time>2014-05-28T13:05:43Z</time>
      </trkpt>
      <trkpt lat="43.43158" lon="6.05837">
        <ele>287.62933349609</ele>
        <time>2014-05-28T13:05:50Z</time>
      </trkpt>
      <trkpt lat="43.43158" lon="6.05837">
        <ele>287.63385009766</ele>
        <time>2014-05-28T13:05:54Z</time>
      </trkpt>
      <trkpt lat="43.43158" lon="6.05837">
        <ele>287.63385009766</ele>
        <time>2014-05-28T13:05:58Z</time>
      </trkpt>
      <trkpt lat="43.43159" lon="6.05837">
        <ele>287.38174438477</ele>
        <time>2014-05-28T13:06:05Z</time>
      </trkpt>
      <trkpt lat="43.43159" lon="6.05837">
        <ele>287.27111816406</ele>
        <time>2014-05-28T13:06:11Z</time>
      </trkpt>
      <trkpt lat="43.43159" lon="6.05837">
        <ele>287.27111816406</ele>
        <time>2014-05-28T13:06:13Z</time>
      </trkpt>
      <trkpt lat="43.4316" lon="6.05837">
        <ele>287.03634643555</ele>
        <time>2014-05-28T13:06:14Z</time>
      </trkpt>
      <trkpt lat="43.43163" lon="6.05836">
        <ele>286.23928833008</ele>
        <time>2014-05-28T13:06:15Z</time>
      </trkpt>
      <trkpt lat="43.43173" lon="6.05831">
        <ele>283.89953613281</ele>
        <time>2014-05-28T13:06:18Z</time>
      </trkpt>
      <trkpt lat="43.43176" lon="6.05829">
        <ele>283.42230224609</ele>
        <time>2014-05-28T13:06:19Z</time>
      </trkpt>
      <trkpt lat="43.43178" lon="6.05827">
        <ele>283.16998291016</ele>
        <time>2014-05-28T13:06:20Z</time>
      </trkpt>
      <trkpt lat="43.43179" lon="6.05825">
        <ele>283.17510986328</ele>
        <time>2014-05-28T13:06:21Z</time>
      </trkpt>
      <trkpt lat="43.43179" lon="6.05823">
        <ele>283.17855834961</ele>
        <time>2014-05-28T13:06:22Z</time>
      </trkpt>
      <trkpt lat="43.4318" lon="6.05821">
        <ele>283.10473632812</ele>
        <time>2014-05-28T13:06:23Z</time>
      </trkpt>
      <trkpt lat="43.4318" lon="6.05821">
        <ele>283.10473632812</ele>
        <time>2014-05-28T13:06:45Z</time>
      </trkpt>
      <trkpt lat="43.43179" lon="6.05821">
        <ele>283.16827392578</ele>
        <time>2014-05-28T13:07:03Z</time>
      </trkpt>
      <trkpt lat="43.43179" lon="6.05821">
        <ele>283.16827392578</ele>
        <time>2014-05-28T13:07:13Z</time>
      </trkpt>
      <trkpt lat="43.43179" lon="6.0582">
        <ele>283.18884277344</ele>
        <time>2014-05-28T13:07:23Z</time>
      </trkpt>
      <trkpt lat="43.4318" lon="6.05817">
        <ele>283.16482543945</ele>
        <time>2014-05-28T13:07:26Z</time>
      </trkpt>
      <trkpt lat="43.43182" lon="6.05814">
        <ele>283.01376342773</ele>
        <time>2014-05-28T13:07:28Z</time>
      </trkpt>
      <trkpt lat="43.43188" lon="6.058">
        <ele>282.11489868164</ele>
        <time>2014-05-28T13:07:34Z</time>
      </trkpt>
      <trkpt lat="43.43195" lon="6.05789">
        <ele>280.91796875</ele>
        <time>2014-05-28T13:07:37Z</time>
      </trkpt>
      <trkpt lat="43.43198" lon="6.05785">
        <ele>280.51043701172</ele>
        <time>2014-05-28T13:07:38Z</time>
      </trkpt>
      <trkpt lat="43.43203" lon="6.05778">
        <ele>279.72262573242</ele>
        <time>2014-05-28T13:07:40Z</time>
      </trkpt>
      <trkpt lat="43.43209" lon="6.05769">
        <ele>279.04318237305</ele>
        <time>2014-05-28T13:07:42Z</time>
      </trkpt>
      <trkpt lat="43.43211" lon="6.05764">
        <ele>278.82107543945</ele>
        <time>2014-05-28T13:07:43Z</time>
      </trkpt>
      <trkpt lat="43.43214" lon="6.05749">
        <ele>278.62924194336</ele>
        <time>2014-05-28T13:07:46Z</time>
      </trkpt>
      <trkpt lat="43.43216" lon="6.05718">
        <ele>280.71942138672</ele>
        <time>2014-05-28T13:07:52Z</time>
      </trkpt>
      <trkpt lat="43.43218" lon="6.057">
        <ele>280.47222900391</ele>
        <time>2014-05-28T13:07:55Z</time>
      </trkpt>
      <trkpt lat="43.43222" lon="6.05657">
        <ele>280.02124023438</ele>
        <time>2014-05-28T13:08:02Z</time>
      </trkpt>
      <trkpt lat="43.43223" lon="6.05651">
        <ele>279.80993652344</ele>
        <time>2014-05-28T13:08:03Z</time>
      </trkpt>
      <trkpt lat="43.43226" lon="6.05624">
        <ele>278.77334594727</ele>
        <time>2014-05-28T13:08:07Z</time>
      </trkpt>
      <trkpt lat="43.4323" lon="6.05589">
        <ele>278.06884765625</ele>
        <time>2014-05-28T13:08:12Z</time>
      </trkpt>
      <trkpt lat="43.43233" lon="6.05568">
        <ele>277.35278320312</ele>
        <time>2014-05-28T13:08:15Z</time>
      </trkpt>
      <trkpt lat="43.43234" lon="6.05562">
        <ele>276.96826171875</ele>
        <time>2014-05-28T13:08:16Z</time>
      </trkpt>
      <trkpt lat="43.43252" lon="6.0549">
        <ele>275.07522583008</ele>
        <time>2014-05-28T13:08:25Z</time>
      </trkpt>
      <trkpt lat="43.43257" lon="6.05471">
        <ele>274.72821044922</ele>
        <time>2014-05-28T13:08:27Z</time>
      </trkpt>
      <trkpt lat="43.43261" lon="6.05462">
        <ele>274.17611694336</ele>
        <time>2014-05-28T13:08:28Z</time>
      </trkpt>
      <trkpt lat="43.43265" lon="6.05452">
        <ele>273.72177124023</ele>
        <time>2014-05-28T13:08:29Z</time>
      </trkpt>
      <trkpt lat="43.43269" lon="6.05443">
        <ele>273.37741088867</ele>
        <time>2014-05-28T13:08:30Z</time>
      </trkpt>
      <trkpt lat="43.43272" lon="6.05434">
        <ele>273.15426635742</ele>
        <time>2014-05-28T13:08:31Z</time>
      </trkpt>
      <trkpt lat="43.43276" lon="6.05425">
        <ele>272.99462890625</ele>
        <time>2014-05-28T13:08:32Z</time>
      </trkpt>
      <trkpt lat="43.43279" lon="6.05415">
        <ele>272.89886474609</ele>
        <time>2014-05-28T13:08:33Z</time>
      </trkpt>
      <trkpt lat="43.43282" lon="6.05406">
        <ele>272.88513183594</ele>
        <time>2014-05-28T13:08:34Z</time>
      </trkpt>
      <trkpt lat="43.43284" lon="6.05398">
        <ele>273.03103637695</ele>
        <time>2014-05-28T13:08:35Z</time>
      </trkpt>
      <trkpt lat="43.4329" lon="6.05383">
        <ele>272.80932617188</ele>
        <time>2014-05-28T13:08:37Z</time>
      </trkpt>
      <trkpt lat="43.43296" lon="6.05371">
        <ele>272.47698974609</ele>
        <time>2014-05-28T13:08:39Z</time>
      </trkpt>
      <trkpt lat="43.43311" lon="6.05352">
        <ele>271.0309753418</ele>
        <time>2014-05-28T13:08:43Z</time>
      </trkpt>
      <trkpt lat="43.43317" lon="6.05341">
        <ele>270.23828125</ele>
        <time>2014-05-28T13:08:45Z</time>
      </trkpt>
      <trkpt lat="43.43323" lon="6.05329">
        <ele>269.6969909668</ele>
        <time>2014-05-28T13:08:47Z</time>
      </trkpt>
      <trkpt lat="43.43335" lon="6.05304">
        <ele>268.83697509766</ele>
        <time>2014-05-28T13:08:51Z</time>
      </trkpt>
      <trkpt lat="43.43337" lon="6.05296">
        <ele>268.81982421875</ele>
        <time>2014-05-28T13:08:52Z</time>
      </trkpt>
      <trkpt lat="43.43346" lon="6.05268">
        <ele>268.47650146484</ele>
        <time>2014-05-28T13:08:56Z</time>
      </trkpt>
      <trkpt lat="43.43348" lon="6.05261">
        <ele>268.51425170898</ele>
        <time>2014-05-28T13:08:57Z</time>
      </trkpt>
      <trkpt lat="43.4336" lon="6.05232">
        <ele>266.56423950195</ele>
        <time>2014-05-28T13:09:02Z</time>
      </trkpt>
      <trkpt lat="43.43362" lon="6.05226">
        <ele>266.11309814453</ele>
        <time>2014-05-28T13:09:03Z</time>
      </trkpt>
      <trkpt lat="43.43369" lon="6.05197">
        <ele>264.50463867188</ele>
        <time>2014-05-28T13:09:08Z</time>
      </trkpt>
      <trkpt lat="43.43379" lon="6.05167">
        <ele>263.09310913086</ele>
        <time>2014-05-28T13:09:14Z</time>
      </trkpt>
      <trkpt lat="43.4338" lon="6.05162">
        <ele>262.8747253418</ele>
        <time>2014-05-28T13:09:15Z</time>
      </trkpt>
      <trkpt lat="43.43384" lon="6.05148">
        <ele>262.39590454102</ele>
        <time>2014-05-28T13:09:18Z</time>
      </trkpt>
      <trkpt lat="43.43388" lon="6.05137">
        <ele>262.17749023438</ele>
        <time>2014-05-28T13:09:21Z</time>
      </trkpt>
      <trkpt lat="43.43392" lon="6.05122">
        <ele>262.33486938477</ele>
        <time>2014-05-28T13:09:27Z</time>
      </trkpt>
      <trkpt lat="43.43396" lon="6.05106">
        <ele>262.27886962891</ele>
        <time>2014-05-28T13:09:33Z</time>
      </trkpt>
      <trkpt lat="43.43398" lon="6.05101">
        <ele>262.14050292969</ele>
        <time>2014-05-28T13:09:35Z</time>
      </trkpt>
      <trkpt lat="43.43401" lon="6.05096">
        <ele>261.96026611328</ele>
        <time>2014-05-28T13:09:37Z</time>
      </trkpt>
      <trkpt lat="43.43404" lon="6.05084">
        <ele>261.86508178711</ele>
        <time>2014-05-28T13:09:41Z</time>
      </trkpt>
      <trkpt lat="43.43409" lon="6.05063">
        <ele>262.30499267578</ele>
        <time>2014-05-28T13:09:47Z</time>
      </trkpt>
      <trkpt lat="43.43413" lon="6.05042">
        <ele>262.72729492188</ele>
        <time>2014-05-28T13:09:51Z</time>
      </trkpt>
      <trkpt lat="43.43414" lon="6.05036">
        <ele>262.88864135742</ele>
        <time>2014-05-28T13:09:52Z</time>
      </trkpt>
      <trkpt lat="43.43415" lon="6.0503">
        <ele>263.03970336914</ele>
        <time>2014-05-28T13:09:53Z</time>
      </trkpt>
      <trkpt lat="43.43416" lon="6.05023">
        <ele>263.19592285156</ele>
        <time>2014-05-28T13:09:54Z</time>
      </trkpt>
      <trkpt lat="43.43417" lon="6.05017">
        <ele>263.35385131836</ele>
        <time>2014-05-28T13:09:55Z</time>
      </trkpt>
      <trkpt lat="43.43419" lon="6.0501">
        <ele>263.50833129883</ele>
        <time>2014-05-28T13:09:56Z</time>
      </trkpt>
      <trkpt lat="43.43419" lon="6.05003">
        <ele>263.68685913086</ele>
        <time>2014-05-28T13:09:57Z</time>
      </trkpt>
      <trkpt lat="43.43422" lon="6.0499">
        <ele>263.97183227539</ele>
        <time>2014-05-28T13:09:59Z</time>
      </trkpt>
      <trkpt lat="43.43423" lon="6.04984">
        <ele>264.12805175781</ele>
        <time>2014-05-28T13:10:00Z</time>
      </trkpt>
      <trkpt lat="43.43425" lon="6.04977">
        <ele>264.26022338867</ele>
        <time>2014-05-28T13:10:01Z</time>
      </trkpt>
      <trkpt lat="43.43426" lon="6.04971">
        <ele>264.35702514648</ele>
        <time>2014-05-28T13:10:02Z</time>
      </trkpt>
      <trkpt lat="43.43427" lon="6.04964">
        <ele>264.47723388672</ele>
        <time>2014-05-28T13:10:03Z</time>
      </trkpt>
      <trkpt lat="43.43427" lon="6.04946">
        <ele>264.81967163086</ele>
        <time>2014-05-28T13:10:06Z</time>
      </trkpt>
      <trkpt lat="43.43428" lon="6.0493">
        <ele>264.94808959961</ele>
        <time>2014-05-28T13:10:09Z</time>
      </trkpt>
      <trkpt lat="43.43432" lon="6.049">
        <ele>265.49694824219</ele>
        <time>2014-05-28T13:10:15Z</time>
      </trkpt>
      <trkpt lat="43.43434" lon="6.04867">
        <ele>266.03735351562</ele>
        <time>2014-05-28T13:10:22Z</time>
      </trkpt>
      <trkpt lat="43.43435" lon="6.04851">
        <ele>266.37841796875</ele>
        <time>2014-05-28T13:10:25Z</time>
      </trkpt>
      <trkpt lat="43.43435" lon="6.04833">
        <ele>267.01702880859</ele>
        <time>2014-05-28T13:10:29Z</time>
      </trkpt>
      <trkpt lat="43.43436" lon="6.04801">
        <ele>267.90655517578</ele>
        <time>2014-05-28T13:10:36Z</time>
      </trkpt>
      <trkpt lat="43.43435" lon="6.04792">
        <ele>267.98895263672</ele>
        <time>2014-05-28T13:10:40Z</time>
      </trkpt>
      <trkpt lat="43.43435" lon="6.04791">
        <ele>267.98895263672</ele>
        <time>2014-05-28T13:10:41Z</time>
      </trkpt>
      <trkpt lat="43.43435" lon="6.0479">
        <ele>268.03015136719</ele>
        <time>2014-05-28T13:10:45Z</time>
      </trkpt>
      <trkpt lat="43.43435" lon="6.0479">
        <ele>268.03015136719</ele>
        <time>2014-05-28T13:10:48Z</time>
      </trkpt>
      <trkpt lat="43.43435" lon="6.0479">
        <ele>268.03015136719</ele>
        <time>2014-05-28T13:10:49Z</time>
      </trkpt>
      <trkpt lat="43.43435" lon="6.04789">
        <ele>267.98895263672</ele>
        <time>2014-05-28T13:10:54Z</time>
      </trkpt>
      <trkpt lat="43.43437" lon="6.04785">
        <ele>267.82415771484</ele>
        <time>2014-05-28T13:10:56Z</time>
      </trkpt>
      <trkpt lat="43.43438" lon="6.04774">
        <ele>267.84350585938</ele>
        <time>2014-05-28T13:10:59Z</time>
      </trkpt>
      <trkpt lat="43.43439" lon="6.04763">
        <ele>268.09411621094</ele>
        <time>2014-05-28T13:11:02Z</time>
      </trkpt>
      <trkpt lat="43.43439" lon="6.04754">
        <ele>268.43057250977</ele>
        <time>2014-05-28T13:11:05Z</time>
      </trkpt>
      <trkpt lat="43.43438" lon="6.04734">
        <ele>269.23052978516</ele>
        <time>2014-05-28T13:11:11Z</time>
      </trkpt>
      <trkpt lat="43.4344" lon="6.04715">
        <ele>269.53564453125</ele>
        <time>2014-05-28T13:11:16Z</time>
      </trkpt>
      <trkpt lat="43.43439" lon="6.04712">
        <ele>269.65063476562</ele>
        <time>2014-05-28T13:11:17Z</time>
      </trkpt>
      <trkpt lat="43.43441" lon="6.04705">
        <ele>269.44677734375</ele>
        <time>2014-05-28T13:11:19Z</time>
      </trkpt>
      <trkpt lat="43.43442" lon="6.04697">
        <ele>269.37545776367</ele>
        <time>2014-05-28T13:11:21Z</time>
      </trkpt>
      <trkpt lat="43.43445" lon="6.04683">
        <ele>269.38751220703</ele>
        <time>2014-05-28T13:11:26Z</time>
      </trkpt>
      <trkpt lat="43.43448" lon="6.04668">
        <ele>269.55401611328</ele>
        <time>2014-05-28T13:11:31Z</time>
      </trkpt>
      <trkpt lat="43.43454" lon="6.0464">
        <ele>269.94369506836</ele>
        <time>2014-05-28T13:11:38Z</time>
      </trkpt>
      <trkpt lat="43.43457" lon="6.0461">
        <ele>269.7126159668</ele>
        <time>2014-05-28T13:11:45Z</time>
      </trkpt>
      <trkpt lat="43.43461" lon="6.04584">
        <ele>269.57745361328</ele>
        <time>2014-05-28T13:11:51Z</time>
      </trkpt>
      <trkpt lat="43.43464" lon="6.04567">
        <ele>269.60202026367</ele>
        <time>2014-05-28T13:11:55Z</time>
      </trkpt>
      <trkpt lat="43.43465" lon="6.04563">
        <ele>269.63040161133</ele>
        <time>2014-05-28T13:11:56Z</time>
      </trkpt>
      <trkpt lat="43.4347" lon="6.04546">
        <ele>269.31353759766</ele>
        <time>2014-05-28T13:11:59Z</time>
      </trkpt>
      <trkpt lat="43.43475" lon="6.04526">
        <ele>268.60470581055</ele>
        <time>2014-05-28T13:12:02Z</time>
      </trkpt>
      <trkpt lat="43.43476" lon="6.04511">
        <ele>268.90966796875</ele>
        <time>2014-05-28T13:12:04Z</time>
      </trkpt>
      <trkpt lat="43.43476" lon="6.04488">
        <ele>269.23248291016</ele>
        <time>2014-05-28T13:12:07Z</time>
      </trkpt>
      <trkpt lat="43.43475" lon="6.04472">
        <ele>269.50714111328</ele>
        <time>2014-05-28T13:12:09Z</time>
      </trkpt>
      <trkpt lat="43.43475" lon="6.04464">
        <ele>269.78457641602</ele>
        <time>2014-05-28T13:12:10Z</time>
      </trkpt>
      <trkpt lat="43.4348" lon="6.04441">
        <ele>269.45495605469</ele>
        <time>2014-05-28T13:12:13Z</time>
      </trkpt>
      <trkpt lat="43.4348" lon="6.04433">
        <ele>269.37121582031</ele>
        <time>2014-05-28T13:12:14Z</time>
      </trkpt>
      <trkpt lat="43.43482" lon="6.04426">
        <ele>269.15023803711</ele>
        <time>2014-05-28T13:12:15Z</time>
      </trkpt>
      <trkpt lat="43.43485" lon="6.04412">
        <ele>268.73355102539</ele>
        <time>2014-05-28T13:12:17Z</time>
      </trkpt>
      <trkpt lat="43.43486" lon="6.04407">
        <ele>268.61877441406</ele>
        <time>2014-05-28T13:12:18Z</time>
      </trkpt>
      <trkpt lat="43.43487" lon="6.04401">
        <ele>268.64001464844</ele>
        <time>2014-05-28T13:12:19Z</time>
      </trkpt>
      <trkpt lat="43.43486" lon="6.04392">
        <ele>268.96606445312</ele>
        <time>2014-05-28T13:12:21Z</time>
      </trkpt>
      <trkpt lat="43.43486" lon="6.04382">
        <ele>269.13900756836</ele>
        <time>2014-05-28T13:12:23Z</time>
      </trkpt>
      <trkpt lat="43.43489" lon="6.0435">
        <ele>269.1178894043</ele>
        <time>2014-05-28T13:12:30Z</time>
      </trkpt>
      <trkpt lat="43.43492" lon="6.04317">
        <ele>268.70068359375</ele>
        <time>2014-05-28T13:12:36Z</time>
      </trkpt>
      <trkpt lat="43.43495" lon="6.04295">
        <ele>268.51538085938</ele>
        <time>2014-05-28T13:12:40Z</time>
      </trkpt>
      <trkpt lat="43.43499" lon="6.04278">
        <ele>268.30236816406</ele>
        <time>2014-05-28T13:12:43Z</time>
      </trkpt>
      <trkpt lat="43.43507" lon="6.04256">
        <ele>267.44055175781</ele>
        <time>2014-05-28T13:12:47Z</time>
      </trkpt>
      <trkpt lat="43.43512" lon="6.04248">
        <ele>266.80621337891</ele>
        <time>2014-05-28T13:12:49Z</time>
      </trkpt>
      <trkpt lat="43.43522" lon="6.0424">
        <ele>265.34530639648</ele>
        <time>2014-05-28T13:12:52Z</time>
      </trkpt>
      <trkpt lat="43.4353" lon="6.04234">
        <ele>264.45196533203</ele>
        <time>2014-05-28T13:12:54Z</time>
      </trkpt>
      <trkpt lat="43.43537" lon="6.0422">
        <ele>264.40963745117</ele>
        <time>2014-05-28T13:12:57Z</time>
      </trkpt>
      <trkpt lat="43.43541" lon="6.04201">
        <ele>264.44866943359</ele>
        <time>2014-05-28T13:13:01Z</time>
      </trkpt>
      <trkpt lat="43.43534" lon="6.04168">
        <ele>266.31219482422</ele>
        <time>2014-05-28T13:13:10Z</time>
      </trkpt>
      <trkpt lat="43.43538" lon="6.04149">
        <ele>266.17489624023</ele>
        <time>2014-05-28T13:13:16Z</time>
      </trkpt>
      <trkpt lat="43.43543" lon="6.04138">
        <ele>265.90844726562</ele>
        <time>2014-05-28T13:13:20Z</time>
      </trkpt>
      <trkpt lat="43.43546" lon="6.04132">
        <ele>265.95993041992</ele>
        <time>2014-05-28T13:13:22Z</time>
      </trkpt>
      <trkpt lat="43.43547" lon="6.04129">
        <ele>265.95648193359</ele>
        <time>2014-05-28T13:13:23Z</time>
      </trkpt>
      <trkpt lat="43.43553" lon="6.04112">
        <ele>266.15734863281</ele>
        <time>2014-05-28T13:13:28Z</time>
      </trkpt>
      <trkpt lat="43.4356" lon="6.04087">
        <ele>266.37741088867</ele>
        <time>2014-05-28T13:13:34Z</time>
      </trkpt>
      <trkpt lat="43.43568" lon="6.04064">
        <ele>266.36541748047</ele>
        <time>2014-05-28T13:13:41Z</time>
      </trkpt>
      <trkpt lat="43.43585" lon="6.04035">
        <ele>265.55068969727</ele>
        <time>2014-05-28T13:13:52Z</time>
      </trkpt>
      <trkpt lat="43.43591" lon="6.04024">
        <ele>265.31591796875</ele>
        <time>2014-05-28T13:13:56Z</time>
      </trkpt>
      <trkpt lat="43.43592" lon="6.04022">
        <ele>265.15301513672</ele>
        <time>2014-05-28T13:13:57Z</time>
      </trkpt>
      <trkpt lat="43.43594" lon="6.0402">
        <ele>265.0224609375</ele>
        <time>2014-05-28T13:13:58Z</time>
      </trkpt>
      <trkpt lat="43.436" lon="6.04003">
        <ele>264.60363769531</ele>
        <time>2014-05-28T13:14:04Z</time>
      </trkpt>
      <trkpt lat="43.43601" lon="6.03998">
        <ele>264.50930786133</ele>
        <time>2014-05-28T13:14:06Z</time>
      </trkpt>
      <trkpt lat="43.43601" lon="6.03997">
        <ele>264.57626342773</ele>
        <time>2014-05-28T13:14:07Z</time>
      </trkpt>
      <trkpt lat="43.43601" lon="6.03997">
        <ele>264.57626342773</ele>
        <time>2014-05-28T13:14:19Z</time>
      </trkpt>
      <trkpt lat="43.43601" lon="6.03997">
        <ele>264.57797241211</ele>
        <time>2014-05-28T13:14:44Z</time>
      </trkpt>
      <trkpt lat="43.43601" lon="6.03997">
        <ele>264.57797241211</ele>
        <time>2014-05-28T13:15:01Z</time>
      </trkpt>
      <trkpt lat="43.43601" lon="6.03997">
        <ele>264.58999633789</ele>
        <time>2014-05-28T13:15:04Z</time>
      </trkpt>
      <trkpt lat="43.43604" lon="6.03989">
        <ele>264.44580078125</ele>
        <time>2014-05-28T13:15:07Z</time>
      </trkpt>
      <trkpt lat="43.43602" lon="6.03985">
        <ele>264.78396606445</ele>
        <time>2014-05-28T13:15:08Z</time>
      </trkpt>
      <trkpt lat="43.43602" lon="6.03966">
        <ele>265.67370605469</ele>
        <time>2014-05-28T13:15:11Z</time>
      </trkpt>
      <trkpt lat="43.43602" lon="6.03957">
        <ele>266.21032714844</ele>
        <time>2014-05-28T13:15:12Z</time>
      </trkpt>
      <trkpt lat="43.43601" lon="6.03949">
        <ele>266.82601928711</ele>
        <time>2014-05-28T13:15:13Z</time>
      </trkpt>
      <trkpt lat="43.436" lon="6.03941">
        <ele>267.23229980469</ele>
        <time>2014-05-28T13:15:14Z</time>
      </trkpt>
      <trkpt lat="43.43597" lon="6.03934">
        <ele>267.56188964844</ele>
        <time>2014-05-28T13:15:15Z</time>
      </trkpt>
      <trkpt lat="43.43594" lon="6.0393">
        <ele>267.85028076172</ele>
        <time>2014-05-28T13:15:16Z</time>
      </trkpt>
      <trkpt lat="43.43592" lon="6.03924">
        <ele>268.05627441406</ele>
        <time>2014-05-28T13:15:17Z</time>
      </trkpt>
      <trkpt lat="43.43592" lon="6.0392">
        <ele>268.05627441406</ele>
        <time>2014-05-28T13:15:18Z</time>
      </trkpt>
      <trkpt lat="43.43591" lon="6.03915">
        <ele>268.26477050781</ele>
        <time>2014-05-28T13:15:19Z</time>
      </trkpt>
      <trkpt lat="43.4359" lon="6.03913">
        <ele>268.4518737793</ele>
        <time>2014-05-28T13:15:20Z</time>
      </trkpt>
      <trkpt lat="43.43587" lon="6.03906">
        <ele>268.95141601562</ele>
        <time>2014-05-28T13:15:22Z</time>
      </trkpt>
      <trkpt lat="43.43587" lon="6.03893">
        <ele>269.43719482422</ele>
        <time>2014-05-28T13:15:25Z</time>
      </trkpt>
      <trkpt lat="43.43587" lon="6.03889">
        <ele>269.53677368164</ele>
        <time>2014-05-28T13:15:26Z</time>
      </trkpt>
      <trkpt lat="43.43587" lon="6.03884">
        <ele>269.775390625</ele>
        <time>2014-05-28T13:15:28Z</time>
      </trkpt>
      <trkpt lat="43.43587" lon="6.03867">
        <ele>270.41567993164</ele>
        <time>2014-05-28T13:15:32Z</time>
      </trkpt>
      <trkpt lat="43.43586" lon="6.03859">
        <ele>270.80364990234</ele>
        <time>2014-05-28T13:15:34Z</time>
      </trkpt>
      <trkpt lat="43.43584" lon="6.03849">
        <ele>271.29974365234</ele>
        <time>2014-05-28T13:15:36Z</time>
      </trkpt>
      <trkpt lat="43.43582" lon="6.03835">
        <ele>272.06799316406</ele>
        <time>2014-05-28T13:15:39Z</time>
      </trkpt>
      <trkpt lat="43.43579" lon="6.03822">
        <ele>272.83267211914</ele>
        <time>2014-05-28T13:15:42Z</time>
      </trkpt>
      <trkpt lat="43.43575" lon="6.03812">
        <ele>273.72015380859</ele>
        <time>2014-05-28T13:15:45Z</time>
      </trkpt>
      <trkpt lat="43.43571" lon="6.03803">
        <ele>274.35647583008</ele>
        <time>2014-05-28T13:15:49Z</time>
      </trkpt>
      <trkpt lat="43.4357" lon="6.03798">
        <ele>274.61996459961</ele>
        <time>2014-05-28T13:15:51Z</time>
      </trkpt>
      <trkpt lat="43.43567" lon="6.03788">
        <ele>275.08972167969</ele>
        <time>2014-05-28T13:15:54Z</time>
      </trkpt>
      <trkpt lat="43.43567" lon="6.03782">
        <ele>275.27651977539</ele>
        <time>2014-05-28T13:15:56Z</time>
      </trkpt>
      <trkpt lat="43.43568" lon="6.03763">
        <ele>275.6946105957</ele>
        <time>2014-05-28T13:16:03Z</time>
      </trkpt>
      <trkpt lat="43.43569" lon="6.03747">
        <ele>276.14093017578</ele>
        <time>2014-05-28T13:16:06Z</time>
      </trkpt>
      <trkpt lat="43.43569" lon="6.03741">
        <ele>276.35037231445</ele>
        <time>2014-05-28T13:16:07Z</time>
      </trkpt>
      <trkpt lat="43.43568" lon="6.03723">
        <ele>277.23956298828</ele>
        <time>2014-05-28T13:16:10Z</time>
      </trkpt>
      <trkpt lat="43.43568" lon="6.03711">
        <ele>277.38958740234</ele>
        <time>2014-05-28T13:16:12Z</time>
      </trkpt>
      <trkpt lat="43.4357" lon="6.03699">
        <ele>277.41177368164</ele>
        <time>2014-05-28T13:16:14Z</time>
      </trkpt>
      <trkpt lat="43.43575" lon="6.03676">
        <ele>276.91021728516</ele>
        <time>2014-05-28T13:16:18Z</time>
      </trkpt>
      <trkpt lat="43.4358" lon="6.03648">
        <ele>277.03649902344</ele>
        <time>2014-05-28T13:16:23Z</time>
      </trkpt>
      <trkpt lat="43.43582" lon="6.03636">
        <ele>277.26312255859</ele>
        <time>2014-05-28T13:16:25Z</time>
      </trkpt>
      <trkpt lat="43.43582" lon="6.03619">
        <ele>277.89138793945</ele>
        <time>2014-05-28T13:16:28Z</time>
      </trkpt>
      <trkpt lat="43.43582" lon="6.03601">
        <ele>278.52996826172</ele>
        <time>2014-05-28T13:16:31Z</time>
      </trkpt>
      <trkpt lat="43.43583" lon="6.03588">
        <ele>278.91790771484</ele>
        <time>2014-05-28T13:16:33Z</time>
      </trkpt>
      <trkpt lat="43.43584" lon="6.03582">
        <ele>278.95080566406</ele>
        <time>2014-05-28T13:16:34Z</time>
      </trkpt>
      <trkpt lat="43.43585" lon="6.03576">
        <ele>278.74722290039</ele>
        <time>2014-05-28T13:16:35Z</time>
      </trkpt>
      <trkpt lat="43.43596" lon="6.03557">
        <ele>277.62289428711</ele>
        <time>2014-05-28T13:16:40Z</time>
      </trkpt>
      <trkpt lat="43.43605" lon="6.03534">
        <ele>276.69671630859</ele>
        <time>2014-05-28T13:16:45Z</time>
      </trkpt>
      <trkpt lat="43.4361" lon="6.03515">
        <ele>276.57125854492</ele>
        <time>2014-05-28T13:16:49Z</time>
      </trkpt>
      <trkpt lat="43.43613" lon="6.03492">
        <ele>277.01626586914</ele>
        <time>2014-05-28T13:16:54Z</time>
      </trkpt>
      <trkpt lat="43.43621" lon="6.03469">
        <ele>276.62182617188</ele>
        <time>2014-05-28T13:17:00Z</time>
      </trkpt>
      <trkpt lat="43.43623" lon="6.03463">
        <ele>276.2373046875</ele>
        <time>2014-05-28T13:17:02Z</time>
      </trkpt>
      <trkpt lat="43.43624" lon="6.0346">
        <ele>276.07250976562</ele>
        <time>2014-05-28T13:17:03Z</time>
      </trkpt>
      <trkpt lat="43.43626" lon="6.03456">
        <ele>275.90771484375</ele>
        <time>2014-05-28T13:17:04Z</time>
      </trkpt>
      <trkpt lat="43.43628" lon="6.03432">
        <ele>275.9853515625</ele>
        <time>2014-05-28T13:17:10Z</time>
      </trkpt>
      <trkpt lat="43.43627" lon="6.03412">
        <ele>276.7594909668</ele>
        <time>2014-05-28T13:17:15Z</time>
      </trkpt>
      <trkpt lat="43.43627" lon="6.03391">
        <ele>277.08038330078</ele>
        <time>2014-05-28T13:17:19Z</time>
      </trkpt>
      <trkpt lat="43.43641" lon="6.03366">
        <ele>275.67260742188</ele>
        <time>2014-05-28T13:17:26Z</time>
      </trkpt>
      <trkpt lat="43.43649" lon="6.0335">
        <ele>275.53369140625</ele>
        <time>2014-05-28T13:17:30Z</time>
      </trkpt>
      <trkpt lat="43.43653" lon="6.03342">
        <ele>275.30950927734</ele>
        <time>2014-05-28T13:17:32Z</time>
      </trkpt>
      <trkpt lat="43.43666" lon="6.03322">
        <ele>274.51586914062</ele>
        <time>2014-05-28T13:17:37Z</time>
      </trkpt>
      <trkpt lat="43.43666" lon="6.03307">
        <ele>274.99798583984</ele>
        <time>2014-05-28T13:17:40Z</time>
      </trkpt>
      <trkpt lat="43.43674" lon="6.03297">
        <ele>275</ele>
        <time>2014-05-28T13:17:44Z</time>
      </trkpt>
      <trkpt lat="43.43684" lon="6.03284">
        <ele>275</ele>
        <time>2014-05-28T13:17:49Z</time>
      </trkpt>
      <trkpt lat="43.43692" lon="6.03263">
        <ele>275.53555297852</ele>
        <time>2014-05-28T13:17:55Z</time>
      </trkpt>
      <trkpt lat="43.4369" lon="6.03249">
        <ele>276</ele>
        <time>2014-05-28T13:17:59Z</time>
      </trkpt>
      <trkpt lat="43.43688" lon="6.03237">
        <ele>276</ele>
        <time>2014-05-28T13:18:02Z</time>
      </trkpt>
      <trkpt lat="43.43686" lon="6.0323">
        <ele>276</ele>
        <time>2014-05-28T13:18:04Z</time>
      </trkpt>
      <trkpt lat="43.43687" lon="6.03214">
        <ele>276.30023193359</ele>
        <time>2014-05-28T13:18:08Z</time>
      </trkpt>
      <trkpt lat="43.4369" lon="6.03205">
        <ele>276.61608886719</ele>
        <time>2014-05-28T13:18:12Z</time>
      </trkpt>
      <trkpt lat="43.43691" lon="6.03201">
        <ele>276.76028442383</ele>
        <time>2014-05-28T13:18:14Z</time>
      </trkpt>
      <trkpt lat="43.43692" lon="6.03197">
        <ele>276.89761352539</ele>
        <time>2014-05-28T13:18:16Z</time>
      </trkpt>
      <trkpt lat="43.43692" lon="6.03195">
        <ele>276.9817199707</ele>
        <time>2014-05-28T13:18:20Z</time>
      </trkpt>
      <trkpt lat="43.43692" lon="6.03195">
        <ele>276.9817199707</ele>
        <time>2014-05-28T13:18:52Z</time>
      </trkpt>
      <trkpt lat="43.43692" lon="6.03195">
        <ele>276.9765625</ele>
        <time>2014-05-28T13:19:42Z</time>
      </trkpt>
      <trkpt lat="43.43692" lon="6.03195">
        <ele>276.9765625</ele>
        <time>2014-05-28T13:19:43Z</time>
      </trkpt>
      <trkpt lat="43.43692" lon="6.03193">
        <ele>277</ele>
        <time>2014-05-28T13:19:51Z</time>
      </trkpt>
      <trkpt lat="43.43692" lon="6.0319">
        <ele>277</ele>
        <time>2014-05-28T13:19:52Z</time>
      </trkpt>
      <trkpt lat="43.43692" lon="6.03182">
        <ele>277</ele>
        <time>2014-05-28T13:19:54Z</time>
      </trkpt>
      <trkpt lat="43.43692" lon="6.03172">
        <ele>277</ele>
        <time>2014-05-28T13:19:56Z</time>
      </trkpt>
      <trkpt lat="43.43693" lon="6.03168">
        <ele>277</ele>
        <time>2014-05-28T13:19:57Z</time>
      </trkpt>
      <trkpt lat="43.43693" lon="6.03139">
        <ele>277.04992675781</ele>
        <time>2014-05-28T13:20:03Z</time>
      </trkpt>
      <trkpt lat="43.43692" lon="6.03111">
        <ele>277.99002075195</ele>
        <time>2014-05-28T13:20:09Z</time>
      </trkpt>
      <trkpt lat="43.43696" lon="6.03092">
        <ele>277.98110961914</ele>
        <time>2014-05-28T13:20:13Z</time>
      </trkpt>
      <trkpt lat="43.43706" lon="6.03071">
        <ele>278</ele>
        <time>2014-05-28T13:20:18Z</time>
      </trkpt>
      <trkpt lat="43.43722" lon="6.03057">
        <ele>278</ele>
        <time>2014-05-28T13:20:23Z</time>
      </trkpt>
      <trkpt lat="43.4374" lon="6.03045">
        <ele>278</ele>
        <time>2014-05-28T13:20:29Z</time>
      </trkpt>
      <trkpt lat="43.43758" lon="6.03037">
        <ele>278.28839111328</ele>
        <time>2014-05-28T13:20:34Z</time>
      </trkpt>
      <trkpt lat="43.43762" lon="6.03028">
        <ele>278.42572021484</ele>
        <time>2014-05-28T13:20:36Z</time>
      </trkpt>
      <trkpt lat="43.43776" lon="6.03002">
        <ele>279.84552001953</ele>
        <time>2014-05-28T13:20:42Z</time>
      </trkpt>
      <trkpt lat="43.43785" lon="6.02986">
        <ele>280</ele>
        <time>2014-05-28T13:20:46Z</time>
      </trkpt>
      <trkpt lat="43.43784" lon="6.02968">
        <ele>280</ele>
        <time>2014-05-28T13:20:50Z</time>
      </trkpt>
      <trkpt lat="43.43789" lon="6.02953">
        <ele>280</ele>
        <time>2014-05-28T13:20:54Z</time>
      </trkpt>
      <trkpt lat="43.43795" lon="6.02932">
        <ele>280</ele>
        <time>2014-05-28T13:21:00Z</time>
      </trkpt>
      <trkpt lat="43.43793" lon="6.02909">
        <ele>280</ele>
        <time>2014-05-28T13:21:06Z</time>
      </trkpt>
      <trkpt lat="43.43795" lon="6.02889">
        <ele>280</ele>
        <time>2014-05-28T13:21:11Z</time>
      </trkpt>
      <trkpt lat="43.43799" lon="6.0287">
        <ele>280</ele>
        <time>2014-05-28T13:21:16Z</time>
      </trkpt>
      <trkpt lat="43.43805" lon="6.02853">
        <ele>280</ele>
        <time>2014-05-28T13:21:20Z</time>
      </trkpt>
      <trkpt lat="43.43806" lon="6.02849">
        <ele>280</ele>
        <time>2014-05-28T13:21:21Z</time>
      </trkpt>
      <trkpt lat="43.43811" lon="6.02832">
        <ele>280</ele>
        <time>2014-05-28T13:21:25Z</time>
      </trkpt>
      <trkpt lat="43.43811" lon="6.02828">
        <ele>280</ele>
        <time>2014-05-28T13:21:26Z</time>
      </trkpt>
      <trkpt lat="43.43806" lon="6.02814">
        <ele>280</ele>
        <time>2014-05-28T13:21:31Z</time>
      </trkpt>
      <trkpt lat="43.43799" lon="6.02805">
        <ele>280</ele>
        <time>2014-05-28T13:21:35Z</time>
      </trkpt>
      <trkpt lat="43.43797" lon="6.02801">
        <ele>280</ele>
        <time>2014-05-28T13:21:36Z</time>
      </trkpt>
      <trkpt lat="43.43794" lon="6.02792">
        <ele>280</ele>
        <time>2014-05-28T13:21:39Z</time>
      </trkpt>
      <trkpt lat="43.43788" lon="6.02779">
        <ele>280</ele>
        <time>2014-05-28T13:21:43Z</time>
      </trkpt>
      <trkpt lat="43.43787" lon="6.02776">
        <ele>280</ele>
        <time>2014-05-28T13:21:44Z</time>
      </trkpt>
      <trkpt lat="43.43788" lon="6.02764">
        <ele>280</ele>
        <time>2014-05-28T13:21:48Z</time>
      </trkpt>
      <trkpt lat="43.43789" lon="6.02758">
        <ele>280</ele>
        <time>2014-05-28T13:21:50Z</time>
      </trkpt>
      <trkpt lat="43.43789" lon="6.0275">
        <ele>280</ele>
        <time>2014-05-28T13:21:52Z</time>
      </trkpt>
      <trkpt lat="43.43784" lon="6.02731">
        <ele>280</ele>
        <time>2014-05-28T13:21:57Z</time>
      </trkpt>
      <trkpt lat="43.43781" lon="6.02725">
        <ele>280</ele>
        <time>2014-05-28T13:22:00Z</time>
      </trkpt>
      <trkpt lat="43.43779" lon="6.02725">
        <ele>280</ele>
        <time>2014-05-28T13:22:01Z</time>
      </trkpt>
      <trkpt lat="43.4377" lon="6.02715">
        <ele>281.20672607422</ele>
        <time>2014-05-28T13:22:06Z</time>
      </trkpt>
      <trkpt lat="43.43767" lon="6.02711">
        <ele>281.71575927734</ele>
        <time>2014-05-28T13:22:08Z</time>
      </trkpt>
      <trkpt lat="43.43766" lon="6.02705">
        <ele>282.13241577148</ele>
        <time>2014-05-28T13:22:10Z</time>
      </trkpt>
      <trkpt lat="43.43768" lon="6.02703">
        <ele>281.92962646484</ele>
        <time>2014-05-28T13:22:12Z</time>
      </trkpt>
      <trkpt lat="43.43771" lon="6.02702">
        <ele>281.58486938477</ele>
        <time>2014-05-28T13:22:14Z</time>
      </trkpt>
      <trkpt lat="43.43772" lon="6.02703">
        <ele>281.45571899414</ele>
        <time>2014-05-28T13:22:15Z</time>
      </trkpt>
      <trkpt lat="43.43774" lon="6.02697">
        <ele>281.45278930664</ele>
        <time>2014-05-28T13:22:17Z</time>
      </trkpt>
      <trkpt lat="43.4378" lon="6.02687">
        <ele>281.15481567383</ele>
        <time>2014-05-28T13:22:21Z</time>
      </trkpt>
      <trkpt lat="43.43781" lon="6.02686">
        <ele>281.15081787109</ele>
        <time>2014-05-28T13:22:22Z</time>
      </trkpt>
      <trkpt lat="43.43781" lon="6.0268">
        <ele>281.37576293945</ele>
        <time>2014-05-28T13:22:25Z</time>
      </trkpt>
      <trkpt lat="43.43781" lon="6.02679">
        <ele>281.4020690918</ele>
        <time>2014-05-28T13:22:30Z</time>
      </trkpt>
      <trkpt lat="43.43779" lon="6.02678">
        <ele>281.49688720703</ele>
        <time>2014-05-28T13:22:40Z</time>
      </trkpt>
      <trkpt lat="43.43779" lon="6.02678">
        <ele>281.49688720703</ele>
        <time>2014-05-28T13:22:46Z</time>
      </trkpt>
      <trkpt lat="43.43779" lon="6.02678">
        <ele>281.49688720703</ele>
        <time>2014-05-28T13:22:56Z</time>
      </trkpt>
      <trkpt lat="43.4378" lon="6.02669">
        <ele>281.78601074219</ele>
        <time>2014-05-28T13:23:02Z</time>
      </trkpt>
      <trkpt lat="43.43781" lon="6.02667">
        <ele>281.74188232422</ele>
        <time>2014-05-28T13:23:03Z</time>
      </trkpt>
      <trkpt lat="43.43782" lon="6.0266">
        <ele>281.85131835938</ele>
        <time>2014-05-28T13:23:06Z</time>
      </trkpt>
      <trkpt lat="43.43781" lon="6.02651">
        <ele>282.23092651367</ele>
        <time>2014-05-28T13:23:10Z</time>
      </trkpt>
      <trkpt lat="43.43781" lon="6.02638">
        <ele>282.74066162109</ele>
        <time>2014-05-28T13:23:15Z</time>
      </trkpt>
      <trkpt lat="43.43784" lon="6.02628">
        <ele>282.96487426758</ele>
        <time>2014-05-28T13:23:18Z</time>
      </trkpt>
      <trkpt lat="43.43787" lon="6.02613">
        <ele>283.24774169922</ele>
        <time>2014-05-28T13:23:22Z</time>
      </trkpt>
      <trkpt lat="43.43789" lon="6.02589">
        <ele>283.38684082031</ele>
        <time>2014-05-28T13:23:28Z</time>
      </trkpt>
      <trkpt lat="43.43786" lon="6.02566">
        <ele>284.6848449707</ele>
        <time>2014-05-28T13:23:34Z</time>
      </trkpt>
      <trkpt lat="43.43786" lon="6.02558">
        <ele>284.89544677734</ele>
        <time>2014-05-28T13:23:36Z</time>
      </trkpt>
      <trkpt lat="43.43786" lon="6.0255">
        <ele>284.72091674805</ele>
        <time>2014-05-28T13:23:38Z</time>
      </trkpt>
      <trkpt lat="43.43786" lon="6.02535">
        <ele>284.44290161133</ele>
        <time>2014-05-28T13:23:42Z</time>
      </trkpt>
      <trkpt lat="43.4379" lon="6.02522">
        <ele>283.15341186523</ele>
        <time>2014-05-28T13:23:46Z</time>
      </trkpt>
      <trkpt lat="43.43792" lon="6.0251">
        <ele>282.55474853516</ele>
        <time>2014-05-28T13:23:50Z</time>
      </trkpt>
      <trkpt lat="43.43792" lon="6.02491">
        <ele>282.53973388672</ele>
        <time>2014-05-28T13:23:56Z</time>
      </trkpt>
      <trkpt lat="43.43792" lon="6.02481">
        <ele>282.85739135742</ele>
        <time>2014-05-28T13:24:00Z</time>
      </trkpt>
      <trkpt lat="43.43791" lon="6.02479">
        <ele>283.05255126953</ele>
        <time>2014-05-28T13:24:01Z</time>
      </trkpt>
      <trkpt lat="43.43787" lon="6.02478">
        <ele>283.95440673828</ele>
        <time>2014-05-28T13:24:04Z</time>
      </trkpt>
      <trkpt lat="43.43785" lon="6.02478">
        <ele>284.18225097656</ele>
        <time>2014-05-28T13:24:05Z</time>
      </trkpt>
      <trkpt lat="43.43782" lon="6.02477">
        <ele>284.92932128906</ele>
        <time>2014-05-28T13:24:07Z</time>
      </trkpt>
      <trkpt lat="43.43781" lon="6.02477">
        <ele>285.09677124023</ele>
        <time>2014-05-28T13:24:08Z</time>
      </trkpt>
      <trkpt lat="43.4378" lon="6.02477">
        <ele>285.34490966797</ele>
        <time>2014-05-28T13:24:11Z</time>
      </trkpt>
      <trkpt lat="43.43779" lon="6.02476">
        <ele>285.69573974609</ele>
        <time>2014-05-28T13:24:15Z</time>
      </trkpt>
      <trkpt lat="43.43778" lon="6.02475">
        <ele>285.86898803711</ele>
        <time>2014-05-28T13:24:17Z</time>
      </trkpt>
      <trkpt lat="43.43778" lon="6.02476">
        <ele>285.86041259766</ele>
        <time>2014-05-28T13:24:18Z</time>
      </trkpt>
      <trkpt lat="43.43778" lon="6.02476">
        <ele>285.86041259766</ele>
        <time>2014-05-28T13:24:30Z</time>
      </trkpt>
      <trkpt lat="43.43778" lon="6.02476">
        <ele>285.84674072266</ele>
        <time>2014-05-28T13:24:37Z</time>
      </trkpt>
      <trkpt lat="43.43777" lon="6.02475">
        <ele>286.01156616211</ele>
        <time>2014-05-28T13:24:44Z</time>
      </trkpt>
      <trkpt lat="43.43775" lon="6.02474">
        <ele>286.30645751953</ele>
        <time>2014-05-28T13:24:48Z</time>
      </trkpt>
      <trkpt lat="43.43772" lon="6.02472">
        <ele>286.86520385742</ele>
        <time>2014-05-28T13:24:50Z</time>
      </trkpt>
      <trkpt lat="43.43768" lon="6.02469">
        <ele>287.47314453125</ele>
        <time>2014-05-28T13:24:52Z</time>
      </trkpt>
      <trkpt lat="43.43769" lon="6.02466">
        <ele>287.25341796875</ele>
        <time>2014-05-28T13:24:53Z</time>
      </trkpt>
      <trkpt lat="43.43771" lon="6.02463">
        <ele>286.923828125</ele>
        <time>2014-05-28T13:24:57Z</time>
      </trkpt>
      <trkpt lat="43.4377" lon="6.02461">
        <ele>287.1435546875</ele>
        <time>2014-05-28T13:25:01Z</time>
      </trkpt>
      <trkpt lat="43.43771" lon="6.02458">
        <ele>287.03369140625</ele>
        <time>2014-05-28T13:25:02Z</time>
      </trkpt>
      <trkpt lat="43.43772" lon="6.02454">
        <ele>286.86889648438</ele>
        <time>2014-05-28T13:25:05Z</time>
      </trkpt>
      <trkpt lat="43.43772" lon="6.02454">
        <ele>286.86889648438</ele>
        <time>2014-05-28T13:25:07Z</time>
      </trkpt>
      <trkpt lat="43.43772" lon="6.0245">
        <ele>286.86889648438</ele>
        <time>2014-05-28T13:25:12Z</time>
      </trkpt>
      <trkpt lat="43.43771" lon="6.02448">
        <ele>286.923828125</ele>
        <time>2014-05-28T13:25:13Z</time>
      </trkpt>
      <trkpt lat="43.43769" lon="6.02442">
        <ele>287.25341796875</ele>
        <time>2014-05-28T13:25:15Z</time>
      </trkpt>
      <trkpt lat="43.43767" lon="6.02436">
        <ele>287.5830078125</ele>
        <time>2014-05-28T13:25:17Z</time>
      </trkpt>
      <trkpt lat="43.43763" lon="6.02431">
        <ele>288.18725585938</ele>
        <time>2014-05-28T13:25:20Z</time>
      </trkpt>
      <trkpt lat="43.43761" lon="6.02429">
        <ele>288.4619140625</ele>
        <time>2014-05-28T13:25:21Z</time>
      </trkpt>
      <trkpt lat="43.43757" lon="6.02427">
        <ele>288.95629882812</ele>
        <time>2014-05-28T13:25:23Z</time>
      </trkpt>
      <trkpt lat="43.43755" lon="6.02419">
        <ele>289.23095703125</ele>
        <time>2014-05-28T13:25:27Z</time>
      </trkpt>
      <trkpt lat="43.43754" lon="6.02412">
        <ele>289.60717773438</ele>
        <time>2014-05-28T13:25:29Z</time>
      </trkpt>
      <trkpt lat="43.43752" lon="6.02411">
        <ele>289.8869934082</ele>
        <time>2014-05-28T13:25:30Z</time>
      </trkpt>
      <trkpt lat="43.43744" lon="6.02403">
        <ele>292.23004150391</ele>
        <time>2014-05-28T13:25:35Z</time>
      </trkpt>
      <trkpt lat="43.43741" lon="6.02398">
        <ele>293.43304443359</ele>
        <time>2014-05-28T13:25:38Z</time>
      </trkpt>
      <trkpt lat="43.43737" lon="6.02392">
        <ele>295.05780029297</ele>
        <time>2014-05-28T13:25:42Z</time>
      </trkpt>
      <trkpt lat="43.43735" lon="6.02384">
        <ele>295.91000366211</ele>
        <time>2014-05-28T13:25:45Z</time>
      </trkpt>
      <trkpt lat="43.43729" lon="6.02373">
        <ele>298.37106323242</ele>
        <time>2014-05-28T13:25:51Z</time>
      </trkpt>
      <trkpt lat="43.43725" lon="6.02365">
        <ele>299.79168701172</ele>
        <time>2014-05-28T13:25:56Z</time>
      </trkpt>
      <trkpt lat="43.43723" lon="6.02364">
        <ele>300.52407836914</ele>
        <time>2014-05-28T13:25:57Z</time>
      </trkpt>
      <trkpt lat="43.4372" lon="6.02363">
        <ele>301.20928955078</ele>
        <time>2014-05-28T13:25:59Z</time>
      </trkpt>
      <trkpt lat="43.43719" lon="6.02363">
        <ele>301.33459472656</ele>
        <time>2014-05-28T13:26:00Z</time>
      </trkpt>
      <trkpt lat="43.43718" lon="6.02362">
        <ele>301.59381103516</ele>
        <time>2014-05-28T13:26:01Z</time>
      </trkpt>
      <trkpt lat="43.43715" lon="6.02357">
        <ele>302.03353881836</ele>
        <time>2014-05-28T13:26:03Z</time>
      </trkpt>
      <trkpt lat="43.43712" lon="6.02353">
        <ele>302.60470581055</ele>
        <time>2014-05-28T13:26:05Z</time>
      </trkpt>
      <trkpt lat="43.4371" lon="6.02342">
        <ele>303.00625610352</ele>
        <time>2014-05-28T13:26:09Z</time>
      </trkpt>
      <trkpt lat="43.43715" lon="6.02335">
        <ele>302.29885864258</ele>
        <time>2014-05-28T13:26:12Z</time>
      </trkpt>
      <trkpt lat="43.43716" lon="6.02334">
        <ele>302.03945922852</ele>
        <time>2014-05-28T13:26:13Z</time>
      </trkpt>
      <trkpt lat="43.4372" lon="6.02328">
        <ele>301.34329223633</ele>
        <time>2014-05-28T13:26:15Z</time>
      </trkpt>
      <trkpt lat="43.43723" lon="6.0232">
        <ele>300.67016601562</ele>
        <time>2014-05-28T13:26:17Z</time>
      </trkpt>
      <trkpt lat="43.43725" lon="6.02315">
        <ele>300.21914672852</ele>
        <time>2014-05-28T13:26:18Z</time>
      </trkpt>
      <trkpt lat="43.4373" lon="6.02304">
        <ele>298.66998291016</ele>
        <time>2014-05-28T13:26:20Z</time>
      </trkpt>
      <trkpt lat="43.43734" lon="6.02299">
        <ele>297.48455810547</ele>
        <time>2014-05-28T13:26:21Z</time>
      </trkpt>
      <trkpt lat="43.43736" lon="6.02292">
        <ele>296.82507324219</ele>
        <time>2014-05-28T13:26:22Z</time>
      </trkpt>
      <trkpt lat="43.43739" lon="6.02287">
        <ele>295.82269287109</ele>
        <time>2014-05-28T13:26:23Z</time>
      </trkpt>
      <trkpt lat="43.43742" lon="6.02281">
        <ele>295.05712890625</ele>
        <time>2014-05-28T13:26:24Z</time>
      </trkpt>
      <trkpt lat="43.43744" lon="6.02276">
        <ele>294.59228515625</ele>
        <time>2014-05-28T13:26:25Z</time>
      </trkpt>
      <trkpt lat="43.43746" lon="6.02271">
        <ele>294.25921630859</ele>
        <time>2014-05-28T13:26:26Z</time>
      </trkpt>
      <trkpt lat="43.43748" lon="6.02265">
        <ele>294.01068115234</ele>
        <time>2014-05-28T13:26:27Z</time>
      </trkpt>
      <trkpt lat="43.43751" lon="6.02258">
        <ele>293.54669189453</ele>
        <time>2014-05-28T13:26:28Z</time>
      </trkpt>
      <trkpt lat="43.43755" lon="6.02252">
        <ele>293.26342773438</ele>
        <time>2014-05-28T13:26:29Z</time>
      </trkpt>
      <trkpt lat="43.43756" lon="6.02247">
        <ele>293.06616210938</ele>
        <time>2014-05-28T13:26:30Z</time>
      </trkpt>
      <trkpt lat="43.43759" lon="6.02237">
        <ele>292.73657226562</ele>
        <time>2014-05-28T13:26:32Z</time>
      </trkpt>
      <trkpt lat="43.4376" lon="6.02233">
        <ele>292.57177734375</ele>
        <time>2014-05-28T13:26:33Z</time>
      </trkpt>
      <trkpt lat="43.43761" lon="6.02226">
        <ele>292.40698242188</ele>
        <time>2014-05-28T13:26:35Z</time>
      </trkpt>
      <trkpt lat="43.43763" lon="6.02214">
        <ele>292.32681274414</ele>
        <time>2014-05-28T13:26:38Z</time>
      </trkpt>
      <trkpt lat="43.43768" lon="6.02193">
        <ele>292.12182617188</ele>
        <time>2014-05-28T13:26:44Z</time>
      </trkpt>
      <trkpt lat="43.4377" lon="6.02191">
        <ele>291.85189819336</ele>
        <time>2014-05-28T13:26:45Z</time>
      </trkpt>
      <trkpt lat="43.43774" lon="6.0218">
        <ele>291.5246887207</ele>
        <time>2014-05-28T13:26:48Z</time>
      </trkpt>
      <trkpt lat="43.43774" lon="6.02171">
        <ele>291.46737670898</ele>
        <time>2014-05-28T13:26:50Z</time>
      </trkpt>
      <trkpt lat="43.43783" lon="6.02161">
        <ele>290.42572021484</ele>
        <time>2014-05-28T13:26:53Z</time>
      </trkpt>
      <trkpt lat="43.43803" lon="6.02136">
        <ele>288.41943359375</ele>
        <time>2014-05-28T13:27:01Z</time>
      </trkpt>
      <trkpt lat="43.4381" lon="6.02104">
        <ele>287.92855834961</ele>
        <time>2014-05-28T13:27:08Z</time>
      </trkpt>
      <trkpt lat="43.43812" lon="6.02097">
        <ele>288.04357910156</ele>
        <time>2014-05-28T13:27:09Z</time>
      </trkpt>
      <trkpt lat="43.43813" lon="6.02092">
        <ele>288.14654541016</ele>
        <time>2014-05-28T13:27:10Z</time>
      </trkpt>
      <trkpt lat="43.43814" lon="6.02088">
        <ele>288.20321655273</ele>
        <time>2014-05-28T13:27:11Z</time>
      </trkpt>
      <trkpt lat="43.43819" lon="6.02079">
        <ele>288.00122070312</ele>
        <time>2014-05-28T13:27:13Z</time>
      </trkpt>
      <trkpt lat="43.43828" lon="6.0206">
        <ele>287.39697265625</ele>
        <time>2014-05-28T13:27:17Z</time>
      </trkpt>
      <trkpt lat="43.43833" lon="6.02028">
        <ele>288.03991699219</ele>
        <time>2014-05-28T13:27:23Z</time>
      </trkpt>
      <trkpt lat="43.43834" lon="6.02007">
        <ele>288</ele>
        <time>2014-05-28T13:27:27Z</time>
      </trkpt>
      <trkpt lat="43.43838" lon="6.01981">
        <ele>288.66784667969</ele>
        <time>2014-05-28T13:27:32Z</time>
      </trkpt>
      <trkpt lat="43.43847" lon="6.01955">
        <ele>289</ele>
        <time>2014-05-28T13:27:38Z</time>
      </trkpt>
      <trkpt lat="43.43851" lon="6.0194">
        <ele>289.15783691406</ele>
        <time>2014-05-28T13:27:42Z</time>
      </trkpt>
      <trkpt lat="43.43852" lon="6.01939">
        <ele>289.20248413086</ele>
        <time>2014-05-28T13:27:43Z</time>
      </trkpt>
      <trkpt lat="43.43852" lon="6.01938">
        <ele>289.240234375</ele>
        <time>2014-05-28T13:27:49Z</time>
      </trkpt>
      <trkpt lat="43.43852" lon="6.01938">
        <ele>289.240234375</ele>
        <time>2014-05-28T13:28:09Z</time>
      </trkpt>
      <trkpt lat="43.43852" lon="6.01938">
        <ele>289.240234375</ele>
        <time>2014-05-28T13:28:23Z</time>
      </trkpt>
      <trkpt lat="43.43853" lon="6.01937">
        <ele>289.25054931641</ele>
        <time>2014-05-28T13:28:28Z</time>
      </trkpt>
      <trkpt lat="43.43853" lon="6.01937">
        <ele>289.25054931641</ele>
        <time>2014-05-28T13:28:41Z</time>
      </trkpt>
      <trkpt lat="43.43853" lon="6.01937">
        <ele>289.26257324219</ele>
        <time>2014-05-28T13:29:51Z</time>
      </trkpt>
      <trkpt lat="43.43853" lon="6.01937">
        <ele>289.26257324219</ele>
        <time>2014-05-28T13:30:02Z</time>
      </trkpt>
      <trkpt lat="43.43853" lon="6.01937">
        <ele>289.26257324219</ele>
        <time>2014-05-28T13:30:20Z</time>
      </trkpt>
      <trkpt lat="43.43853" lon="6.01937">
        <ele>289.27801513672</ele>
        <time>2014-05-28T13:30:24Z</time>
      </trkpt>
      <trkpt lat="43.43853" lon="6.01937">
        <ele>289.26599121094</ele>
        <time>2014-05-28T13:30:27Z</time>
      </trkpt>
      <trkpt lat="43.43852" lon="6.0194">
        <ele>289.17501831055</ele>
        <time>2014-05-28T13:30:29Z</time>
      </trkpt>
      <trkpt lat="43.43852" lon="6.01944">
        <ele>289.00677490234</ele>
        <time>2014-05-28T13:30:32Z</time>
      </trkpt>
      <trkpt lat="43.43851" lon="6.01947">
        <ele>289</ele>
        <time>2014-05-28T13:30:34Z</time>
      </trkpt>
      <trkpt lat="43.43853" lon="6.0195">
        <ele>289</ele>
        <time>2014-05-28T13:30:39Z</time>
      </trkpt>
      <trkpt lat="43.43853" lon="6.01951">
        <ele>289</ele>
        <time>2014-05-28T13:30:47Z</time>
      </trkpt>
      <trkpt lat="43.43853" lon="6.01951">
        <ele>289</ele>
        <time>2014-05-28T13:30:56Z</time>
      </trkpt>
      <trkpt lat="43.43852" lon="6.01951">
        <ele>289</ele>
        <time>2014-05-28T13:31:03Z</time>
      </trkpt>
      <trkpt lat="43.43846" lon="6.01951">
        <ele>289</ele>
        <time>2014-05-28T13:31:06Z</time>
      </trkpt>
      <trkpt lat="43.43841" lon="6.01952">
        <ele>289</ele>
        <time>2014-05-28T13:31:08Z</time>
      </trkpt>
      <trkpt lat="43.43835" lon="6.01957">
        <ele>289</ele>
        <time>2014-05-28T13:31:12Z</time>
      </trkpt>
      <trkpt lat="43.43826" lon="6.0197">
        <ele>289.53430175781</ele>
        <time>2014-05-28T13:31:18Z</time>
      </trkpt>
      <trkpt lat="43.43819" lon="6.01987">
        <ele>289.51110839844</ele>
        <time>2014-05-28T13:31:22Z</time>
      </trkpt>
      <trkpt lat="43.43818" lon="6.01994">
        <ele>289.36865234375</ele>
        <time>2014-05-28T13:31:23Z</time>
      </trkpt>
      <trkpt lat="43.43814" lon="6.02009">
        <ele>289.35827636719</ele>
        <time>2014-05-28T13:31:25Z</time>
      </trkpt>
      <trkpt lat="43.43814" lon="6.02017">
        <ele>289.41320800781</ele>
        <time>2014-05-28T13:31:26Z</time>
      </trkpt>
      <trkpt lat="43.43808" lon="6.02047">
        <ele>289.09661865234</ele>
        <time>2014-05-28T13:31:30Z</time>
      </trkpt>
      <trkpt lat="43.43806" lon="6.02054">
        <ele>289.05029296875</ele>
        <time>2014-05-28T13:31:31Z</time>
      </trkpt>
      <trkpt lat="43.43799" lon="6.02076">
        <ele>289.91381835938</ele>
        <time>2014-05-28T13:31:34Z</time>
      </trkpt>
      <trkpt lat="43.43796" lon="6.02102">
        <ele>289.67977905273</ele>
        <time>2014-05-28T13:31:37Z</time>
      </trkpt>
      <trkpt lat="43.43787" lon="6.02126">
        <ele>290.7265625</ele>
        <time>2014-05-28T13:31:40Z</time>
      </trkpt>
      <trkpt lat="43.43782" lon="6.02133">
        <ele>291.33081054688</ele>
        <time>2014-05-28T13:31:41Z</time>
      </trkpt>
      <trkpt lat="43.4377" lon="6.02153">
        <ele>292.44006347656</ele>
        <time>2014-05-28T13:31:44Z</time>
      </trkpt>
      <trkpt lat="43.43764" lon="6.02166">
        <ele>292.92092895508</ele>
        <time>2014-05-28T13:31:46Z</time>
      </trkpt>
      <trkpt lat="43.43753" lon="6.02188">
        <ele>293.82754516602</ele>
        <time>2014-05-28T13:31:50Z</time>
      </trkpt>
      <trkpt lat="43.43748" lon="6.022">
        <ele>294.26278686523</ele>
        <time>2014-05-28T13:31:52Z</time>
      </trkpt>
      <trkpt lat="43.43743" lon="6.02215">
        <ele>294.92749023438</ele>
        <time>2014-05-28T13:31:54Z</time>
      </trkpt>
      <trkpt lat="43.43743" lon="6.02224">
        <ele>295.07470703125</ele>
        <time>2014-05-28T13:31:55Z</time>
      </trkpt>
      <trkpt lat="43.4374" lon="6.02244">
        <ele>296.05426025391</ele>
        <time>2014-05-28T13:31:58Z</time>
      </trkpt>
      <trkpt lat="43.43739" lon="6.02249">
        <ele>296.27423095703</ele>
        <time>2014-05-28T13:31:59Z</time>
      </trkpt>
      <trkpt lat="43.43738" lon="6.02265">
        <ele>296.33834838867</ele>
        <time>2014-05-28T13:32:03Z</time>
      </trkpt>
      <trkpt lat="43.43732" lon="6.02275">
        <ele>297.64788818359</ele>
        <time>2014-05-28T13:32:06Z</time>
      </trkpt>
      <trkpt lat="43.4373" lon="6.02278">
        <ele>298.0166015625</ele>
        <time>2014-05-28T13:32:07Z</time>
      </trkpt>
      <trkpt lat="43.43727" lon="6.02286">
        <ele>298.92001342773</ele>
        <time>2014-05-28T13:32:09Z</time>
      </trkpt>
      <trkpt lat="43.43719" lon="6.02303">
        <ele>301.35162353516</ele>
        <time>2014-05-28T13:32:14Z</time>
      </trkpt>
      <trkpt lat="43.43718" lon="6.02306">
        <ele>301.56292724609</ele>
        <time>2014-05-28T13:32:15Z</time>
      </trkpt>
      <trkpt lat="43.43716" lon="6.02314">
        <ele>301.90020751953</ele>
        <time>2014-05-28T13:32:18Z</time>
      </trkpt>
      <trkpt lat="43.43715" lon="6.02319">
        <ele>302.17715454102</ele>
        <time>2014-05-28T13:32:20Z</time>
      </trkpt>
      <trkpt lat="43.43709" lon="6.02324">
        <ele>303.19760131836</ele>
        <time>2014-05-28T13:32:24Z</time>
      </trkpt>
      <trkpt lat="43.43708" lon="6.02326">
        <ele>303.4123840332</ele>
        <time>2014-05-28T13:32:25Z</time>
      </trkpt>
      <trkpt lat="43.43705" lon="6.02332">
        <ele>304.06243896484</ele>
        <time>2014-05-28T13:32:29Z</time>
      </trkpt>
      <trkpt lat="43.43705" lon="6.02334">
        <ele>304.09341430664</ele>
        <time>2014-05-28T13:32:30Z</time>
      </trkpt>
      <trkpt lat="43.43705" lon="6.02338">
        <ele>303.99969482422</ele>
        <time>2014-05-28T13:32:32Z</time>
      </trkpt>
      <trkpt lat="43.43707" lon="6.02344">
        <ele>303.60110473633</ele>
        <time>2014-05-28T13:32:36Z</time>
      </trkpt>
      <trkpt lat="43.43708" lon="6.02352">
        <ele>303.15905761719</ele>
        <time>2014-05-28T13:32:39Z</time>
      </trkpt>
      <trkpt lat="43.43712" lon="6.02357">
        <ele>302.48889160156</ele>
        <time>2014-05-28T13:32:42Z</time>
      </trkpt>
      <trkpt lat="43.43719" lon="6.02357">
        <ele>301.52496337891</ele>
        <time>2014-05-28T13:32:46Z</time>
      </trkpt>
      <trkpt lat="43.43719" lon="6.02358">
        <ele>301.4055480957</ele>
        <time>2014-05-28T13:32:47Z</time>
      </trkpt>
      <trkpt lat="43.43722" lon="6.02366">
        <ele>300.82476806641</ele>
        <time>2014-05-28T13:32:50Z</time>
      </trkpt>
      <trkpt lat="43.43726" lon="6.02382">
        <ele>298.86703491211</ele>
        <time>2014-05-28T13:32:54Z</time>
      </trkpt>
      <trkpt lat="43.43727" lon="6.02386">
        <ele>298.37789916992</ele>
        <time>2014-05-28T13:32:55Z</time>
      </trkpt>
      <trkpt lat="43.43729" lon="6.0239">
        <ele>297.60733032227</ele>
        <time>2014-05-28T13:32:56Z</time>
      </trkpt>
      <trkpt lat="43.43735" lon="6.02395">
        <ele>295.62637329102</ele>
        <time>2014-05-28T13:32:58Z</time>
      </trkpt>
      <trkpt lat="43.43737" lon="6.02398">
        <ele>294.6012878418</ele>
        <time>2014-05-28T13:32:59Z</time>
      </trkpt>
      <trkpt lat="43.43741" lon="6.02407">
        <ele>292.9970703125</ele>
        <time>2014-05-28T13:33:01Z</time>
      </trkpt>
      <trkpt lat="43.43743" lon="6.0241">
        <ele>292.38430786133</ele>
        <time>2014-05-28T13:33:02Z</time>
      </trkpt>
      <trkpt lat="43.43745" lon="6.02413">
        <ele>291.47866821289</ele>
        <time>2014-05-28T13:33:03Z</time>
      </trkpt>
      <trkpt lat="43.43748" lon="6.02415">
        <ele>290.72454833984</ele>
        <time>2014-05-28T13:33:04Z</time>
      </trkpt>
      <trkpt lat="43.43751" lon="6.02419">
        <ele>289.89013671875</ele>
        <time>2014-05-28T13:33:06Z</time>
      </trkpt>
      <trkpt lat="43.43756" lon="6.02426">
        <ele>289.17602539062</ele>
        <time>2014-05-28T13:33:08Z</time>
      </trkpt>
      <trkpt lat="43.43756" lon="6.02434">
        <ele>289.06616210938</ele>
        <time>2014-05-28T13:33:10Z</time>
      </trkpt>
      <trkpt lat="43.4376" lon="6.02439">
        <ele>288.51684570312</ele>
        <time>2014-05-28T13:33:12Z</time>
      </trkpt>
      <trkpt lat="43.43764" lon="6.02451">
        <ele>287.96752929688</ele>
        <time>2014-05-28T13:33:16Z</time>
      </trkpt>
      <trkpt lat="43.43768" lon="6.02459">
        <ele>287.36328125</ele>
        <time>2014-05-28T13:33:18Z</time>
      </trkpt>
      <trkpt lat="43.43774" lon="6.02465">
        <ele>286.59423828125</ele>
        <time>2014-05-28T13:33:20Z</time>
      </trkpt>
      <trkpt lat="43.43784" lon="6.02472">
        <ele>284.7490234375</ele>
        <time>2014-05-28T13:33:25Z</time>
      </trkpt>
      <trkpt lat="43.43788" lon="6.02477">
        <ele>283.66049194336</ele>
        <time>2014-05-28T13:33:28Z</time>
      </trkpt>
      <trkpt lat="43.43788" lon="6.02492">
        <ele>283.31085205078</ele>
        <time>2014-05-28T13:33:32Z</time>
      </trkpt>
      <trkpt lat="43.43788" lon="6.02497">
        <ele>283.19143676758</ele>
        <time>2014-05-28T13:33:33Z</time>
      </trkpt>
      <trkpt lat="43.4379" lon="6.02512">
        <ele>282.96279907227</ele>
        <time>2014-05-28T13:33:36Z</time>
      </trkpt>
      <trkpt lat="43.43785" lon="6.02528">
        <ele>284.50140380859</ele>
        <time>2014-05-28T13:33:40Z</time>
      </trkpt>
      <trkpt lat="43.43781" lon="6.02538">
        <ele>285.73724365234</ele>
        <time>2014-05-28T13:33:43Z</time>
      </trkpt>
      <trkpt lat="43.43781" lon="6.0255">
        <ele>285.94497680664</ele>
        <time>2014-05-28T13:33:45Z</time>
      </trkpt>
      <trkpt lat="43.43786" lon="6.0258">
        <ele>284.25390625</ele>
        <time>2014-05-28T13:33:50Z</time>
      </trkpt>
      <trkpt lat="43.43788" lon="6.02598">
        <ele>283.5078125</ele>
        <time>2014-05-28T13:33:53Z</time>
      </trkpt>
      <trkpt lat="43.43787" lon="6.02609">
        <ele>283.45614624023</ele>
        <time>2014-05-28T13:33:55Z</time>
      </trkpt>
      <trkpt lat="43.43779" lon="6.02637">
        <ele>283.05499267578</ele>
        <time>2014-05-28T13:34:00Z</time>
      </trkpt>
      <trkpt lat="43.43779" lon="6.02643">
        <ele>282.76773071289</ele>
        <time>2014-05-28T13:34:01Z</time>
      </trkpt>
      <trkpt lat="43.43782" lon="6.02662">
        <ele>281.82806396484</ele>
        <time>2014-05-28T13:34:04Z</time>
      </trkpt>
      <trkpt lat="43.43782" lon="6.02668">
        <ele>281.67907714844</ele>
        <time>2014-05-28T13:34:05Z</time>
      </trkpt>
      <trkpt lat="43.43783" lon="6.0268">
        <ele>281.22351074219</ele>
        <time>2014-05-28T13:34:08Z</time>
      </trkpt>
      <trkpt lat="43.43781" lon="6.02684">
        <ele>281.23806762695</ele>
        <time>2014-05-28T13:34:10Z</time>
      </trkpt>
      <trkpt lat="43.43772" lon="6.02695">
        <ele>281.86596679688</ele>
        <time>2014-05-28T13:34:14Z</time>
      </trkpt>
      <trkpt lat="43.43769" lon="6.02697">
        <ele>282.09942626953</ele>
        <time>2014-05-28T13:34:15Z</time>
      </trkpt>
      <trkpt lat="43.43758" lon="6.02703">
        <ele>283.27734375</ele>
        <time>2014-05-28T13:34:20Z</time>
      </trkpt>
      <trkpt lat="43.43761" lon="6.0271">
        <ele>282.5539855957</ele>
        <time>2014-05-28T13:34:23Z</time>
      </trkpt>
      <trkpt lat="43.43769" lon="6.02718">
        <ele>281.20028686523</ele>
        <time>2014-05-28T13:34:26Z</time>
      </trkpt>
      <trkpt lat="43.43773" lon="6.0272">
        <ele>280.55899047852</ele>
        <time>2014-05-28T13:34:28Z</time>
      </trkpt>
      <trkpt lat="43.43774" lon="6.02723">
        <ele>280.44189453125</ele>
        <time>2014-05-28T13:34:29Z</time>
      </trkpt>
      <trkpt lat="43.43778" lon="6.02739">
        <ele>280</ele>
        <time>2014-05-28T13:34:33Z</time>
      </trkpt>
      <trkpt lat="43.43779" lon="6.02755">
        <ele>280</ele>
        <time>2014-05-28T13:34:37Z</time>
      </trkpt>
      <trkpt lat="43.4378" lon="6.0277">
        <ele>280</ele>
        <time>2014-05-28T13:34:40Z</time>
      </trkpt>
      <trkpt lat="43.43782" lon="6.02775">
        <ele>280</ele>
        <time>2014-05-28T13:34:41Z</time>
      </trkpt>
      <trkpt lat="43.43789" lon="6.0279">
        <ele>280</ele>
        <time>2014-05-28T13:34:45Z</time>
      </trkpt>
      <trkpt lat="43.43792" lon="6.02798">
        <ele>280</ele>
        <time>2014-05-28T13:34:47Z</time>
      </trkpt>
      <trkpt lat="43.43795" lon="6.02801">
        <ele>280</ele>
        <time>2014-05-28T13:34:48Z</time>
      </trkpt>
      <trkpt lat="43.43798" lon="6.02806">
        <ele>280</ele>
        <time>2014-05-28T13:34:49Z</time>
      </trkpt>
      <trkpt lat="43.43805" lon="6.02823">
        <ele>280</ele>
        <time>2014-05-28T13:34:52Z</time>
      </trkpt>
      <trkpt lat="43.43803" lon="6.02841">
        <ele>280</ele>
        <time>2014-05-28T13:34:55Z</time>
      </trkpt>
      <trkpt lat="43.43794" lon="6.02857">
        <ele>280</ele>
        <time>2014-05-28T13:34:59Z</time>
      </trkpt>
      <trkpt lat="43.43792" lon="6.02862">
        <ele>280</ele>
        <time>2014-05-28T13:35:00Z</time>
      </trkpt>
      <trkpt lat="43.43787" lon="6.02877">
        <ele>280</ele>
        <time>2014-05-28T13:35:03Z</time>
      </trkpt>
      <trkpt lat="43.43784" lon="6.02894">
        <ele>280</ele>
        <time>2014-05-28T13:35:06Z</time>
      </trkpt>
      <trkpt lat="43.43784" lon="6.02905">
        <ele>280</ele>
        <time>2014-05-28T13:35:08Z</time>
      </trkpt>
      <trkpt lat="43.43785" lon="6.02923">
        <ele>280</ele>
        <time>2014-05-28T13:35:11Z</time>
      </trkpt>
      <trkpt lat="43.43784" lon="6.02929">
        <ele>280</ele>
        <time>2014-05-28T13:35:12Z</time>
      </trkpt>
      <trkpt lat="43.43782" lon="6.02935">
        <ele>280</ele>
        <time>2014-05-28T13:35:13Z</time>
      </trkpt>
      <trkpt lat="43.4378" lon="6.0294">
        <ele>280</ele>
        <time>2014-05-28T13:35:14Z</time>
      </trkpt>
      <trkpt lat="43.43777" lon="6.02946">
        <ele>279.97503662109</ele>
        <time>2014-05-28T13:35:15Z</time>
      </trkpt>
      <trkpt lat="43.43773" lon="6.02956">
        <ele>279.81024169922</ele>
        <time>2014-05-28T13:35:17Z</time>
      </trkpt>
      <trkpt lat="43.4377" lon="6.02975">
        <ele>279.72784423828</ele>
        <time>2014-05-28T13:35:21Z</time>
      </trkpt>
      <trkpt lat="43.43769" lon="6.02978">
        <ele>279.67291259766</ele>
        <time>2014-05-28T13:35:23Z</time>
      </trkpt>
      <trkpt lat="43.43769" lon="6.0298">
        <ele>279.68664550781</ele>
        <time>2014-05-28T13:35:25Z</time>
      </trkpt>
      <trkpt lat="43.43769" lon="6.0298">
        <ele>279.68664550781</ele>
        <time>2014-05-28T13:35:27Z</time>
      </trkpt>
      <trkpt lat="43.4377" lon="6.02982">
        <ele>279.71411132812</ele>
        <time>2014-05-28T13:35:28Z</time>
      </trkpt>
      <trkpt lat="43.4377" lon="6.02982">
        <ele>279.71411132812</ele>
        <time>2014-05-28T13:35:30Z</time>
      </trkpt>
      <trkpt lat="43.4377" lon="6.02982">
        <ele>279.71411132812</ele>
        <time>2014-05-28T13:35:31Z</time>
      </trkpt>
      <trkpt lat="43.43771" lon="6.02983">
        <ele>279.76904296875</ele>
        <time>2014-05-28T13:35:36Z</time>
      </trkpt>
      <trkpt lat="43.43771" lon="6.02983">
        <ele>279.76904296875</ele>
        <time>2014-05-28T13:35:59Z</time>
      </trkpt>
      <trkpt lat="43.43772" lon="6.02983">
        <ele>279.78277587891</ele>
        <time>2014-05-28T13:36:21Z</time>
      </trkpt>
      <trkpt lat="43.43772" lon="6.02983">
        <ele>279.78277587891</ele>
        <time>2014-05-28T13:36:35Z</time>
      </trkpt>
      <trkpt lat="43.43772" lon="6.02983">
        <ele>279.78277587891</ele>
        <time>2014-05-28T13:36:51Z</time>
      </trkpt>
      <trkpt lat="43.43771" lon="6.02983">
        <ele>279.76904296875</ele>
        <time>2014-05-28T13:37:00Z</time>
      </trkpt>
      <trkpt lat="43.43771" lon="6.02983">
        <ele>279.76904296875</ele>
        <time>2014-05-28T13:37:18Z</time>
      </trkpt>
      <trkpt lat="43.43772" lon="6.02983">
        <ele>279.78277587891</ele>
        <time>2014-05-28T13:37:43Z</time>
      </trkpt>
      <trkpt lat="43.43772" lon="6.02983">
        <ele>279.78277587891</ele>
        <time>2014-05-28T13:38:08Z</time>
      </trkpt>
      <trkpt lat="43.43772" lon="6.02983">
        <ele>279.78277587891</ele>
        <time>2014-05-28T13:38:32Z</time>
      </trkpt>
      <trkpt lat="43.43772" lon="6.02984">
        <ele>279.78277587891</ele>
        <time>2014-05-28T13:38:40Z</time>
      </trkpt>
      <trkpt lat="43.43772" lon="6.02984">
        <ele>279.78277587891</ele>
        <time>2014-05-28T13:38:50Z</time>
      </trkpt>
      <trkpt lat="43.43772" lon="6.02984">
        <ele>279.78277587891</ele>
        <time>2014-05-28T13:39:09Z</time>
      </trkpt>
      <trkpt lat="43.43772" lon="6.02984">
        <ele>279.78277587891</ele>
        <time>2014-05-28T13:39:28Z</time>
      </trkpt>
      <trkpt lat="43.43772" lon="6.02984">
        <ele>279.78277587891</ele>
        <time>2014-05-28T13:39:40Z</time>
      </trkpt>
      <trkpt lat="43.43772" lon="6.02983">
        <ele>279.79650878906</ele>
        <time>2014-05-28T13:39:47Z</time>
      </trkpt>
      <trkpt lat="43.43772" lon="6.02983">
        <ele>279.79650878906</ele>
        <time>2014-05-28T13:40:15Z</time>
      </trkpt>
      <trkpt lat="43.43772" lon="6.02984">
        <ele>279.79650878906</ele>
        <time>2014-05-28T13:40:37Z</time>
      </trkpt>
      <trkpt lat="43.43772" lon="6.02984">
        <ele>279.79650878906</ele>
        <time>2014-05-28T13:40:58Z</time>
      </trkpt>
      <trkpt lat="43.43773" lon="6.02984">
        <ele>279.82397460938</ele>
        <time>2014-05-28T13:41:02Z</time>
      </trkpt>
      <trkpt lat="43.43773" lon="6.02984">
        <ele>279.82397460938</ele>
        <time>2014-05-28T13:41:21Z</time>
      </trkpt>
      <trkpt lat="43.43773" lon="6.02984">
        <ele>279.82397460938</ele>
        <time>2014-05-28T13:41:31Z</time>
      </trkpt>
      <trkpt lat="43.43774" lon="6.02984">
        <ele>279.85144042969</ele>
        <time>2014-05-28T13:41:43Z</time>
      </trkpt>
      <trkpt lat="43.43775" lon="6.02983">
        <ele>279.89263916016</ele>
        <time>2014-05-28T13:41:54Z</time>
      </trkpt>
      <trkpt lat="43.43775" lon="6.02984">
        <ele>279.89263916016</ele>
        <time>2014-05-28T13:42:01Z</time>
      </trkpt>
      <trkpt lat="43.43775" lon="6.02984">
        <ele>279.89263916016</ele>
        <time>2014-05-28T13:42:23Z</time>
      </trkpt>
      <trkpt lat="43.43775" lon="6.02984">
        <ele>279.90637207031</ele>
        <time>2014-05-28T13:42:45Z</time>
      </trkpt>
      <trkpt lat="43.43776" lon="6.02985">
        <ele>279.92010498047</ele>
        <time>2014-05-28T13:42:51Z</time>
      </trkpt>
      <trkpt lat="43.43776" lon="6.02985">
        <ele>279.94757080078</ele>
        <time>2014-05-28T13:42:59Z</time>
      </trkpt>
      <trkpt lat="43.43776" lon="6.02985">
        <ele>279.94757080078</ele>
        <time>2014-05-28T13:43:19Z</time>
      </trkpt>
      <trkpt lat="43.43776" lon="6.02985">
        <ele>279.94757080078</ele>
        <time>2014-05-28T13:43:30Z</time>
      </trkpt>
      <trkpt lat="43.43776" lon="6.0299">
        <ele>279.94757080078</ele>
        <time>2014-05-28T13:43:37Z</time>
      </trkpt>
      <trkpt lat="43.43776" lon="6.02991">
        <ele>279.92010498047</ele>
        <time>2014-05-28T13:43:38Z</time>
      </trkpt>
      <trkpt lat="43.4377" lon="6.02999">
        <ele>279.71411132812</ele>
        <time>2014-05-28T13:43:43Z</time>
      </trkpt>
      <trkpt lat="43.43766" lon="6.03004">
        <ele>279.45416259766</ele>
        <time>2014-05-28T13:43:45Z</time>
      </trkpt>
      <trkpt lat="43.4376" lon="6.03015">
        <ele>278.81555175781</ele>
        <time>2014-05-28T13:43:49Z</time>
      </trkpt>
      <trkpt lat="43.4375" lon="6.0303">
        <ele>278</ele>
        <time>2014-05-28T13:43:54Z</time>
      </trkpt>
      <trkpt lat="43.4374" lon="6.03035">
        <ele>278</ele>
        <time>2014-05-28T13:43:58Z</time>
      </trkpt>
      <trkpt lat="43.43733" lon="6.03039">
        <ele>278</ele>
        <time>2014-05-28T13:44:01Z</time>
      </trkpt>
      <trkpt lat="43.43729" lon="6.03044">
        <ele>278</ele>
        <time>2014-05-28T13:44:04Z</time>
      </trkpt>
      <trkpt lat="43.43727" lon="6.03047">
        <ele>278</ele>
        <time>2014-05-28T13:44:05Z</time>
      </trkpt>
      <trkpt lat="43.43718" lon="6.03057">
        <ele>278</ele>
        <time>2014-05-28T13:44:10Z</time>
      </trkpt>
      <trkpt lat="43.4371" lon="6.03063">
        <ele>278</ele>
        <time>2014-05-28T13:44:14Z</time>
      </trkpt>
      <trkpt lat="43.43705" lon="6.03067">
        <ele>278</ele>
        <time>2014-05-28T13:44:16Z</time>
      </trkpt>
      <trkpt lat="43.43693" lon="6.03085">
        <ele>278.04321289062</ele>
        <time>2014-05-28T13:44:22Z</time>
      </trkpt>
      <trkpt lat="43.43687" lon="6.03127">
        <ele>277.5632019043</ele>
        <time>2014-05-28T13:44:32Z</time>
      </trkpt>
      <trkpt lat="43.43687" lon="6.0313">
        <ele>277.50317382812</ele>
        <time>2014-05-28T13:44:33Z</time>
      </trkpt>
      <trkpt lat="43.43689" lon="6.03142">
        <ele>277.18646240234</ele>
        <time>2014-05-28T13:44:36Z</time>
      </trkpt>
      <trkpt lat="43.4369" lon="6.03151">
        <ele>277.09786987305</ele>
        <time>2014-05-28T13:44:38Z</time>
      </trkpt>
      <trkpt lat="43.4369" lon="6.03159">
        <ele>277.04745483398</ele>
        <time>2014-05-28T13:44:40Z</time>
      </trkpt>
      <trkpt lat="43.43689" lon="6.03175">
        <ele>277</ele>
        <time>2014-05-28T13:44:44Z</time>
      </trkpt>
      <trkpt lat="43.4369" lon="6.03185">
        <ele>277</ele>
        <time>2014-05-28T13:44:46Z</time>
      </trkpt>
      <trkpt lat="43.43685" lon="6.03207">
        <ele>276.56457519531</ele>
        <time>2014-05-28T13:44:51Z</time>
      </trkpt>
      <trkpt lat="43.43681" lon="6.03226">
        <ele>276</ele>
        <time>2014-05-28T13:44:55Z</time>
      </trkpt>
      <trkpt lat="43.43682" lon="6.03239">
        <ele>276</ele>
        <time>2014-05-28T13:44:59Z</time>
      </trkpt>
      <trkpt lat="43.43683" lon="6.03259">
        <ele>275.6608581543</ele>
        <time>2014-05-28T13:45:04Z</time>
      </trkpt>
      <trkpt lat="43.43676" lon="6.03283">
        <ele>275</ele>
        <time>2014-05-28T13:45:09Z</time>
      </trkpt>
      <trkpt lat="43.4367" lon="6.03298">
        <ele>275</ele>
        <time>2014-05-28T13:45:12Z</time>
      </trkpt>
      <trkpt lat="43.43666" lon="6.03302">
        <ele>275.01605224609</ele>
        <time>2014-05-28T13:45:13Z</time>
      </trkpt>
      <trkpt lat="43.43661" lon="6.03312">
        <ele>275.24545288086</ele>
        <time>2014-05-28T13:45:16Z</time>
      </trkpt>
      <trkpt lat="43.4366" lon="6.03314">
        <ele>275.21640014648</ele>
        <time>2014-05-28T13:45:17Z</time>
      </trkpt>
      <trkpt lat="43.43659" lon="6.03322">
        <ele>275.14477539062</ele>
        <time>2014-05-28T13:45:20Z</time>
      </trkpt>
      <trkpt lat="43.43656" lon="6.03325">
        <ele>275.32171630859</ele>
        <time>2014-05-28T13:45:22Z</time>
      </trkpt>
      <trkpt lat="43.43653" lon="6.03332">
        <ele>275.52111816406</ele>
        <time>2014-05-28T13:45:25Z</time>
      </trkpt>
      <trkpt lat="43.43651" lon="6.03335">
        <ele>275.64282226562</ele>
        <time>2014-05-28T13:45:26Z</time>
      </trkpt>
      <trkpt lat="43.43649" lon="6.03339">
        <ele>275.78277587891</ele>
        <time>2014-05-28T13:45:28Z</time>
      </trkpt>
      <trkpt lat="43.43641" lon="6.03352">
        <ele>276.14599609375</ele>
        <time>2014-05-28T13:45:32Z</time>
      </trkpt>
      <trkpt lat="43.43628" lon="6.03366">
        <ele>277.53210449219</ele>
        <time>2014-05-28T13:45:37Z</time>
      </trkpt>
      <trkpt lat="43.43616" lon="6.03384">
        <ele>279.13153076172</ele>
        <time>2014-05-28T13:45:42Z</time>
      </trkpt>
      <trkpt lat="43.43621" lon="6.03405">
        <ele>277.90390014648</ele>
        <time>2014-05-28T13:45:46Z</time>
      </trkpt>
      <trkpt lat="43.43621" lon="6.03422">
        <ele>277.32089233398</ele>
        <time>2014-05-28T13:45:50Z</time>
      </trkpt>
      <trkpt lat="43.43621" lon="6.03427">
        <ele>277.14581298828</ele>
        <time>2014-05-28T13:45:51Z</time>
      </trkpt>
      <trkpt lat="43.43621" lon="6.03438">
        <ele>276.73553466797</ele>
        <time>2014-05-28T13:45:53Z</time>
      </trkpt>
      <trkpt lat="43.43618" lon="6.0346">
        <ele>277.00634765625</ele>
        <time>2014-05-28T13:45:57Z</time>
      </trkpt>
      <trkpt lat="43.43608" lon="6.0349">
        <ele>277.6042175293</ele>
        <time>2014-05-28T13:46:03Z</time>
      </trkpt>
      <trkpt lat="43.43606" lon="6.03512">
        <ele>277.04229736328</ele>
        <time>2014-05-28T13:46:07Z</time>
      </trkpt>
      <trkpt lat="43.43597" lon="6.03537">
        <ele>277.4794921875</ele>
        <time>2014-05-28T13:46:12Z</time>
      </trkpt>
      <trkpt lat="43.43596" lon="6.03542">
        <ele>277.64428710938</ele>
        <time>2014-05-28T13:46:13Z</time>
      </trkpt>
      <trkpt lat="43.43595" lon="6.03546">
        <ele>277.76788330078</ele>
        <time>2014-05-28T13:46:14Z</time>
      </trkpt>
      <trkpt lat="43.43594" lon="6.0355">
        <ele>277.85028076172</ele>
        <time>2014-05-28T13:46:15Z</time>
      </trkpt>
      <trkpt lat="43.43593" lon="6.03552">
        <ele>277.93267822266</ele>
        <time>2014-05-28T13:46:16Z</time>
      </trkpt>
      <trkpt lat="43.43594" lon="6.03553">
        <ele>277.89147949219</ele>
        <time>2014-05-28T13:46:21Z</time>
      </trkpt>
      <trkpt lat="43.43594" lon="6.03553">
        <ele>277.89147949219</ele>
        <time>2014-05-28T13:46:44Z</time>
      </trkpt>
      <trkpt lat="43.43594" lon="6.03555">
        <ele>277.80908203125</ele>
        <time>2014-05-28T13:48:18Z</time>
      </trkpt>
      <trkpt lat="43.43594" lon="6.03555">
        <ele>277.80908203125</ele>
        <time>2014-05-28T13:48:30Z</time>
      </trkpt>
      <trkpt lat="43.43595" lon="6.03555">
        <ele>277.76788330078</ele>
        <time>2014-05-28T13:48:59Z</time>
      </trkpt>
      <trkpt lat="43.43595" lon="6.03555">
        <ele>277.76788330078</ele>
        <time>2014-05-28T13:49:27Z</time>
      </trkpt>
      <trkpt lat="43.43595" lon="6.03555">
        <ele>277.72668457031</ele>
        <time>2014-05-28T13:50:26Z</time>
      </trkpt>
      <trkpt lat="43.43595" lon="6.03555">
        <ele>277.72668457031</ele>
        <time>2014-05-28T13:50:40Z</time>
      </trkpt>
      <trkpt lat="43.43595" lon="6.03555">
        <ele>277.72668457031</ele>
        <time>2014-05-28T13:51:21Z</time>
      </trkpt>
      <trkpt lat="43.43595" lon="6.03555">
        <ele>277.72668457031</ele>
        <time>2014-05-28T13:51:35Z</time>
      </trkpt>
      <trkpt lat="43.43596" lon="6.03557">
        <ele>277.66848754883</ele>
        <time>2014-05-28T13:51:50Z</time>
      </trkpt>
      <trkpt lat="43.43596" lon="6.03557">
        <ele>277.66848754883</ele>
        <time>2014-05-28T13:52:13Z</time>
      </trkpt>
      <trkpt lat="43.43595" lon="6.03557">
        <ele>277.70584106445</ele>
        <time>2014-05-28T13:52:25Z</time>
      </trkpt>
      <trkpt lat="43.43595" lon="6.03557">
        <ele>277.70584106445</ele>
        <time>2014-05-28T13:52:47Z</time>
      </trkpt>
      <trkpt lat="43.43595" lon="6.03557">
        <ele>277.70367431641</ele>
        <time>2014-05-28T13:53:24Z</time>
      </trkpt>
      <trkpt lat="43.43595" lon="6.03557">
        <ele>277.74066162109</ele>
        <time>2014-05-28T13:53:50Z</time>
      </trkpt>
      <trkpt lat="43.43594" lon="6.03559">
        <ele>277.80844116211</ele>
        <time>2014-05-28T13:54:01Z</time>
      </trkpt>
      <trkpt lat="43.43592" lon="6.0356">
        <ele>277.95837402344</ele>
        <time>2014-05-28T13:54:04Z</time>
      </trkpt>
      <trkpt lat="43.43589" lon="6.03564">
        <ele>278.32696533203</ele>
        <time>2014-05-28T13:54:07Z</time>
      </trkpt>
      <trkpt lat="43.43584" lon="6.03574">
        <ele>278.90365600586</ele>
        <time>2014-05-28T13:54:12Z</time>
      </trkpt>
      <trkpt lat="43.43579" lon="6.03593">
        <ele>279.07928466797</ele>
        <time>2014-05-28T13:54:17Z</time>
      </trkpt>
      <trkpt lat="43.43579" lon="6.03606">
        <ele>278.64324951172</ele>
        <time>2014-05-28T13:54:20Z</time>
      </trkpt>
      <trkpt lat="43.4358" lon="6.03613">
        <ele>278.24844360352</ele>
        <time>2014-05-28T13:54:22Z</time>
      </trkpt>
      <trkpt lat="43.4358" lon="6.03631">
        <ele>277.62875366211</ele>
        <time>2014-05-28T13:54:26Z</time>
      </trkpt>
      <trkpt lat="43.43579" lon="6.0364">
        <ele>277.3815612793</ele>
        <time>2014-05-28T13:54:28Z</time>
      </trkpt>
      <trkpt lat="43.43576" lon="6.03662">
        <ele>277.00045776367</ele>
        <time>2014-05-28T13:54:33Z</time>
      </trkpt>
      <trkpt lat="43.43571" lon="6.03684">
        <ele>277.28100585938</ele>
        <time>2014-05-28T13:54:38Z</time>
      </trkpt>
      <trkpt lat="43.4357" lon="6.03699">
        <ele>277.39965820312</ele>
        <time>2014-05-28T13:54:41Z</time>
      </trkpt>
      <trkpt lat="43.43568" lon="6.03714">
        <ele>277.38421630859</ele>
        <time>2014-05-28T13:54:44Z</time>
      </trkpt>
      <trkpt lat="43.4357" lon="6.03735">
        <ele>276.51858520508</ele>
        <time>2014-05-28T13:54:49Z</time>
      </trkpt>
      <trkpt lat="43.43571" lon="6.03755">
        <ele>275.64141845703</ele>
        <time>2014-05-28T13:54:54Z</time>
      </trkpt>
      <trkpt lat="43.4357" lon="6.03758">
        <ele>275.63626098633</ele>
        <time>2014-05-28T13:54:55Z</time>
      </trkpt>
      <trkpt lat="43.43571" lon="6.03762">
        <ele>275.34271240234</ele>
        <time>2014-05-28T13:54:56Z</time>
      </trkpt>
      <trkpt lat="43.43572" lon="6.03765">
        <ele>275.12640380859</ele>
        <time>2014-05-28T13:54:57Z</time>
      </trkpt>
      <trkpt lat="43.43574" lon="6.03769">
        <ele>274.68695068359</ele>
        <time>2014-05-28T13:54:59Z</time>
      </trkpt>
      <trkpt lat="43.43573" lon="6.03771">
        <ele>274.68869018555</ele>
        <time>2014-05-28T13:55:00Z</time>
      </trkpt>
      <trkpt lat="43.43572" lon="6.03772">
        <ele>274.85690307617</ele>
        <time>2014-05-28T13:55:01Z</time>
      </trkpt>
      <trkpt lat="43.4357" lon="6.03773">
        <ele>275.04229736328</ele>
        <time>2014-05-28T13:55:02Z</time>
      </trkpt>
      <trkpt lat="43.43567" lon="6.03778">
        <ele>275.31866455078</ele>
        <time>2014-05-28T13:55:05Z</time>
      </trkpt>
      <trkpt lat="43.43565" lon="6.03782">
        <ele>275.53497314453</ele>
        <time>2014-05-28T13:55:10Z</time>
      </trkpt>
      <trkpt lat="43.43565" lon="6.03784">
        <ele>275.451171875</ele>
        <time>2014-05-28T13:55:16Z</time>
      </trkpt>
      <trkpt lat="43.43565" lon="6.03784">
        <ele>275.451171875</ele>
        <time>2014-05-28T13:55:26Z</time>
      </trkpt>
      <trkpt lat="43.43565" lon="6.03784">
        <ele>275.54486083984</ele>
        <time>2014-05-28T13:55:31Z</time>
      </trkpt>
      <trkpt lat="43.43564" lon="6.03787">
        <ele>275.5823059082</ele>
        <time>2014-05-28T13:55:33Z</time>
      </trkpt>
      <trkpt lat="43.4356" lon="6.03788">
        <ele>276.05456542969</ele>
        <time>2014-05-28T13:55:36Z</time>
      </trkpt>
      <trkpt lat="43.43557" lon="6.03787">
        <ele>276.47085571289</ele>
        <time>2014-05-28T13:55:38Z</time>
      </trkpt>
      <trkpt lat="43.43542" lon="6.0378">
        <ele>277.87231445312</ele>
        <time>2014-05-28T13:55:49Z</time>
      </trkpt>
      <trkpt lat="43.4354" lon="6.03779">
        <ele>278.04739379883</ele>
        <time>2014-05-28T13:55:51Z</time>
      </trkpt>
      <trkpt lat="43.43536" lon="6.03778">
        <ele>278.40615844727</ele>
        <time>2014-05-28T13:55:54Z</time>
      </trkpt>
      <trkpt lat="43.43534" lon="6.03777">
        <ele>278.60357666016</ele>
        <time>2014-05-28T13:55:55Z</time>
      </trkpt>
      <trkpt lat="43.43524" lon="6.03776">
        <ele>279.33999633789</ele>
        <time>2014-05-28T13:56:01Z</time>
      </trkpt>
      <trkpt lat="43.43519" lon="6.03774">
        <ele>279.76916503906</ele>
        <time>2014-05-28T13:56:04Z</time>
      </trkpt>
      <trkpt lat="43.43516" lon="6.03772">
        <ele>280.04553222656</ele>
        <time>2014-05-28T13:56:06Z</time>
      </trkpt>
      <trkpt lat="43.4351" lon="6.03766">
        <ele>280.69613647461</ele>
        <time>2014-05-28T13:56:10Z</time>
      </trkpt>
      <trkpt lat="43.43505" lon="6.03763">
        <ele>281.17678833008</ele>
        <time>2014-05-28T13:56:13Z</time>
      </trkpt>
      <trkpt lat="43.43496" lon="6.03754">
        <ele>282.36276245117</ele>
        <time>2014-05-28T13:56:19Z</time>
      </trkpt>
      <trkpt lat="43.43489" lon="6.03748">
        <ele>283.70553588867</ele>
        <time>2014-05-28T13:56:24Z</time>
      </trkpt>
      <trkpt lat="43.4348" lon="6.03743">
        <ele>285.58898925781</ele>
        <time>2014-05-28T13:56:30Z</time>
      </trkpt>
      <trkpt lat="43.43476" lon="6.0374">
        <ele>286.37399291992</ele>
        <time>2014-05-28T13:56:33Z</time>
      </trkpt>
      <trkpt lat="43.43475" lon="6.0374">
        <ele>286.66748046875</ele>
        <time>2014-05-28T13:56:34Z</time>
      </trkpt>
      <trkpt lat="43.43471" lon="6.03742">
        <ele>287.04360961914</ele>
        <time>2014-05-28T13:56:36Z</time>
      </trkpt>
      <trkpt lat="43.4347" lon="6.03743">
        <ele>287.17254638672</ele>
        <time>2014-05-28T13:56:37Z</time>
      </trkpt>
      <trkpt lat="43.43464" lon="6.03747">
        <ele>287.53744506836</ele>
        <time>2014-05-28T13:56:41Z</time>
      </trkpt>
      <trkpt lat="43.43462" lon="6.03749">
        <ele>287.56619262695</ele>
        <time>2014-05-28T13:56:42Z</time>
      </trkpt>
      <trkpt lat="43.43449" lon="6.03763">
        <ele>288.08627319336</ele>
        <time>2014-05-28T13:56:51Z</time>
      </trkpt>
      <trkpt lat="43.43446" lon="6.03766">
        <ele>288.14001464844</ele>
        <time>2014-05-28T13:56:54Z</time>
      </trkpt>
      <trkpt lat="43.43437" lon="6.03775">
        <ele>287.63262939453</ele>
        <time>2014-05-28T13:56:59Z</time>
      </trkpt>
      <trkpt lat="43.43435" lon="6.03777">
        <ele>287.47467041016</ele>
        <time>2014-05-28T13:57:00Z</time>
      </trkpt>
      <trkpt lat="43.43428" lon="6.03787">
        <ele>285.65972900391</ele>
        <time>2014-05-28T13:57:04Z</time>
      </trkpt>
      <trkpt lat="43.43426" lon="6.03793">
        <ele>284.48974609375</ele>
        <time>2014-05-28T13:57:06Z</time>
      </trkpt>
      <trkpt lat="43.43421" lon="6.03804">
        <ele>282.35443115234</ele>
        <time>2014-05-28T13:57:09Z</time>
      </trkpt>
      <trkpt lat="43.43413" lon="6.0381">
        <ele>282.18499755859</ele>
        <time>2014-05-28T13:57:12Z</time>
      </trkpt>
      <trkpt lat="43.43411" lon="6.03811">
        <ele>282.39974975586</ele>
        <time>2014-05-28T13:57:13Z</time>
      </trkpt>
      <trkpt lat="43.434" lon="6.03811">
        <ele>283.78863525391</ele>
        <time>2014-05-28T13:57:19Z</time>
      </trkpt>
      <trkpt lat="43.43396" lon="6.0381">
        <ele>284.40341186523</ele>
        <time>2014-05-28T13:57:21Z</time>
      </trkpt>
      <trkpt lat="43.43394" lon="6.03809">
        <ele>284.74096679688</ele>
        <time>2014-05-28T13:57:22Z</time>
      </trkpt>
      <trkpt lat="43.43393" lon="6.03807">
        <ele>285.20141601562</ele>
        <time>2014-05-28T13:57:23Z</time>
      </trkpt>
      <trkpt lat="43.43385" lon="6.03798">
        <ele>287.64739990234</ele>
        <time>2014-05-28T13:57:29Z</time>
      </trkpt>
      <trkpt lat="43.43373" lon="6.03789">
        <ele>290.48559570312</ele>
        <time>2014-05-28T13:57:35Z</time>
      </trkpt>
      <trkpt lat="43.43366" lon="6.0378">
        <ele>292.26898193359</ele>
        <time>2014-05-28T13:57:40Z</time>
      </trkpt>
      <trkpt lat="43.43361" lon="6.03775">
        <ele>293.17752075195</ele>
        <time>2014-05-28T13:57:43Z</time>
      </trkpt>
      <trkpt lat="43.43341" lon="6.03759">
        <ele>296.93655395508</ele>
        <time>2014-05-28T13:57:54Z</time>
      </trkpt>
      <trkpt lat="43.43333" lon="6.03752">
        <ele>298.0712890625</ele>
        <time>2014-05-28T13:57:59Z</time>
      </trkpt>
      <trkpt lat="43.43325" lon="6.03745">
        <ele>299.97323608398</ele>
        <time>2014-05-28T13:58:04Z</time>
      </trkpt>
      <trkpt lat="43.43314" lon="6.03734">
        <ele>302.16287231445</ele>
        <time>2014-05-28T13:58:12Z</time>
      </trkpt>
      <trkpt lat="43.4331" lon="6.03727">
        <ele>302.46615600586</ele>
        <time>2014-05-28T13:58:15Z</time>
      </trkpt>
      <trkpt lat="43.43306" lon="6.03715">
        <ele>302.49841308594</ele>
        <time>2014-05-28T13:58:20Z</time>
      </trkpt>
      <trkpt lat="43.43301" lon="6.03708">
        <ele>302.98962402344</ele>
        <time>2014-05-28T13:58:24Z</time>
      </trkpt>
      <trkpt lat="43.43299" lon="6.03704">
        <ele>303.20935058594</ele>
        <time>2014-05-28T13:58:26Z</time>
      </trkpt>
      <trkpt lat="43.43299" lon="6.03704">
        <ele>303.40161132812</ele>
        <time>2014-05-28T13:58:28Z</time>
      </trkpt>
      <trkpt lat="43.43299" lon="6.03704">
        <ele>303.40161132812</ele>
        <time>2014-05-28T13:58:34Z</time>
      </trkpt>
      <trkpt lat="43.43299" lon="6.03703">
        <ele>303.32952880859</ele>
        <time>2014-05-28T13:58:36Z</time>
      </trkpt>
      <trkpt lat="43.43297" lon="6.03697">
        <ele>303.36727905273</ele>
        <time>2014-05-28T13:58:41Z</time>
      </trkpt>
      <trkpt lat="43.43296" lon="6.03696">
        <ele>303.39129638672</ele>
        <time>2014-05-28T13:58:42Z</time>
      </trkpt>
      <trkpt lat="43.43295" lon="6.03692">
        <ele>303.55749511719</ele>
        <time>2014-05-28T13:58:49Z</time>
      </trkpt>
      <trkpt lat="43.43294" lon="6.03692">
        <ele>303.83834838867</ele>
        <time>2014-05-28T13:58:54Z</time>
      </trkpt>
      <trkpt lat="43.43295" lon="6.03688">
        <ele>303.68618774414</ele>
        <time>2014-05-28T13:58:58Z</time>
      </trkpt>
      <trkpt lat="43.43295" lon="6.03676">
        <ele>303.52056884766</ele>
        <time>2014-05-28T13:59:03Z</time>
      </trkpt>
      <trkpt lat="43.43296" lon="6.03672">
        <ele>303.20712280273</ele>
        <time>2014-05-28T13:59:05Z</time>
      </trkpt>
      <trkpt lat="43.43295" lon="6.0367">
        <ele>303.25549316406</ele>
        <time>2014-05-28T13:59:06Z</time>
      </trkpt>
      <trkpt lat="43.43295" lon="6.03663">
        <ele>303.10409545898</ele>
        <time>2014-05-28T13:59:08Z</time>
      </trkpt>
      <trkpt lat="43.43298" lon="6.03652">
        <ele>302.03271484375</ele>
        <time>2014-05-28T13:59:12Z</time>
      </trkpt>
      <trkpt lat="43.43299" lon="6.03649">
        <ele>301.53622436523</ele>
        <time>2014-05-28T13:59:13Z</time>
      </trkpt>
      <trkpt lat="43.43303" lon="6.03644">
        <ele>300.59915161133</ele>
        <time>2014-05-28T13:59:15Z</time>
      </trkpt>
      <trkpt lat="43.43304" lon="6.03641">
        <ele>300.29653930664</ele>
        <time>2014-05-28T13:59:16Z</time>
      </trkpt>
      <trkpt lat="43.43306" lon="6.0364">
        <ele>300.02224731445</ele>
        <time>2014-05-28T13:59:17Z</time>
      </trkpt>
      <trkpt lat="43.43307" lon="6.03636">
        <ele>300</ele>
        <time>2014-05-28T13:59:18Z</time>
      </trkpt>
      <trkpt lat="43.43308" lon="6.03633">
        <ele>300</ele>
        <time>2014-05-28T13:59:19Z</time>
      </trkpt>
      <trkpt lat="43.43309" lon="6.03632">
        <ele>300</ele>
        <time>2014-05-28T13:59:20Z</time>
      </trkpt>
      <trkpt lat="43.43309" lon="6.0363">
        <ele>300</ele>
        <time>2014-05-28T13:59:21Z</time>
      </trkpt>
      <trkpt lat="43.43309" lon="6.03628">
        <ele>300</ele>
        <time>2014-05-28T13:59:22Z</time>
      </trkpt>
      <trkpt lat="43.4331" lon="6.03625">
        <ele>300</ele>
        <time>2014-05-28T13:59:24Z</time>
      </trkpt>
      <trkpt lat="43.43309" lon="6.03623">
        <ele>300</ele>
        <time>2014-05-28T13:59:26Z</time>
      </trkpt>
      <trkpt lat="43.43308" lon="6.03623">
        <ele>300</ele>
        <time>2014-05-28T13:59:27Z</time>
      </trkpt>
      <trkpt lat="43.43309" lon="6.03622">
        <ele>300</ele>
        <time>2014-05-28T13:59:28Z</time>
      </trkpt>
      <trkpt lat="43.43309" lon="6.03621">
        <ele>300</ele>
        <time>2014-05-28T13:59:29Z</time>
      </trkpt>
      <trkpt lat="43.43309" lon="6.0362">
        <ele>300</ele>
        <time>2014-05-28T13:59:31Z</time>
      </trkpt>
      <trkpt lat="43.4331" lon="6.03617">
        <ele>300</ele>
        <time>2014-05-28T13:59:36Z</time>
      </trkpt>
      <trkpt lat="43.4331" lon="6.03615">
        <ele>300</ele>
        <time>2014-05-28T13:59:39Z</time>
      </trkpt>
      <trkpt lat="43.43309" lon="6.03608">
        <ele>300.28540039062</ele>
        <time>2014-05-28T13:59:45Z</time>
      </trkpt>
      <trkpt lat="43.43309" lon="6.03606">
        <ele>300.5029296875</ele>
        <time>2014-05-28T13:59:47Z</time>
      </trkpt>
      <trkpt lat="43.43309" lon="6.03604">
        <ele>300.68173217773</ele>
        <time>2014-05-28T13:59:49Z</time>
      </trkpt>
      <trkpt lat="43.43309" lon="6.03602">
        <ele>300.90347290039</ele>
        <time>2014-05-28T13:59:53Z</time>
      </trkpt>
      <trkpt lat="43.43309" lon="6.03597">
        <ele>301.41653442383</ele>
        <time>2014-05-28T13:59:59Z</time>
      </trkpt>
      <trkpt lat="43.43309" lon="6.03594">
        <ele>301.73239135742</ele>
        <time>2014-05-28T14:00:02Z</time>
      </trkpt>
      <trkpt lat="43.4331" lon="6.03592">
        <ele>301.9528503418</ele>
        <time>2014-05-28T14:00:04Z</time>
      </trkpt>
      <trkpt lat="43.4331" lon="6.03592">
        <ele>302.00286865234</ele>
        <time>2014-05-28T14:00:06Z</time>
      </trkpt>
      <trkpt lat="43.4331" lon="6.03592">
        <ele>301.99285888672</ele>
        <time>2014-05-28T14:00:07Z</time>
      </trkpt>
      <trkpt lat="43.4331" lon="6.03592">
        <ele>301.99285888672</ele>
        <time>2014-05-28T14:00:13Z</time>
      </trkpt>
      <trkpt lat="43.4331" lon="6.03592">
        <ele>301.99285888672</ele>
        <time>2014-05-28T14:00:20Z</time>
      </trkpt>
      <trkpt lat="43.43309" lon="6.03585">
        <ele>302.62170410156</ele>
        <time>2014-05-28T14:00:26Z</time>
      </trkpt>
      <trkpt lat="43.4331" lon="6.03577">
        <ele>305.20419311523</ele>
        <time>2014-05-28T14:00:31Z</time>
      </trkpt>
      <trkpt lat="43.43309" lon="6.03575">
        <ele>305.48742675781</ele>
        <time>2014-05-28T14:00:32Z</time>
      </trkpt>
      <trkpt lat="43.43308" lon="6.03574">
        <ele>305.57498168945</ele>
        <time>2014-05-28T14:00:34Z</time>
      </trkpt>
      <trkpt lat="43.43306" lon="6.03576">
        <ele>304.5758972168</ele>
        <time>2014-05-28T14:00:37Z</time>
      </trkpt>
      <trkpt lat="43.43306" lon="6.03576">
        <ele>304.5758972168</ele>
        <time>2014-05-28T14:00:39Z</time>
      </trkpt>
      <trkpt lat="43.43306" lon="6.03576">
        <ele>304.43170166016</ele>
        <time>2014-05-28T14:00:40Z</time>
      </trkpt>
      <trkpt lat="43.43306" lon="6.03576">
        <ele>304.41625976562</ele>
        <time>2014-05-28T14:00:41Z</time>
      </trkpt>
      <trkpt lat="43.43305" lon="6.03576">
        <ele>304.32077026367</ele>
        <time>2014-05-28T14:00:42Z</time>
      </trkpt>
      <trkpt lat="43.43303" lon="6.03581">
        <ele>303.50820922852</ele>
        <time>2014-05-28T14:00:48Z</time>
      </trkpt>
      <trkpt lat="43.43302" lon="6.03587">
        <ele>302.7073059082</ele>
        <time>2014-05-28T14:00:55Z</time>
      </trkpt>
      <trkpt lat="43.43301" lon="6.03587">
        <ele>302.86669921875</ele>
        <time>2014-05-28T14:01:02Z</time>
      </trkpt>
      <trkpt lat="43.43301" lon="6.03587">
        <ele>302.93115234375</ele>
        <time>2014-05-28T14:01:09Z</time>
      </trkpt>
      <trkpt lat="43.43297" lon="6.03595">
        <ele>303.17041015625</ele>
        <time>2014-05-28T14:01:14Z</time>
      </trkpt>
      <trkpt lat="43.43297" lon="6.03596">
        <ele>303.10998535156</ele>
        <time>2014-05-28T14:01:15Z</time>
      </trkpt>
      <trkpt lat="43.43296" lon="6.03597">
        <ele>303.22494506836</ele>
        <time>2014-05-28T14:01:16Z</time>
      </trkpt>
      <trkpt lat="43.43293" lon="6.036">
        <ele>303.59869384766</ele>
        <time>2014-05-28T14:01:18Z</time>
      </trkpt>
      <trkpt lat="43.4329" lon="6.03603">
        <ele>304.17657470703</ele>
        <time>2014-05-28T14:01:21Z</time>
      </trkpt>
      <trkpt lat="43.43288" lon="6.03604">
        <ele>304.33200073242</ele>
        <time>2014-05-28T14:01:22Z</time>
      </trkpt>
      <trkpt lat="43.43285" lon="6.03606">
        <ele>304.83047485352</ele>
        <time>2014-05-28T14:01:25Z</time>
      </trkpt>
      <trkpt lat="43.43285" lon="6.03608">
        <ele>304.80615234375</ele>
        <time>2014-05-28T14:01:27Z</time>
      </trkpt>
      <trkpt lat="43.43284" lon="6.03609">
        <ele>304.84243774414</ele>
        <time>2014-05-28T14:01:32Z</time>
      </trkpt>
      <trkpt lat="43.43283" lon="6.03609">
        <ele>305.02563476562</ele>
        <time>2014-05-28T14:01:36Z</time>
      </trkpt>
      <trkpt lat="43.43282" lon="6.0361">
        <ele>305.25531005859</ele>
        <time>2014-05-28T14:01:39Z</time>
      </trkpt>
      <trkpt lat="43.4328" lon="6.03612">
        <ele>305.41339111328</ele>
        <time>2014-05-28T14:01:40Z</time>
      </trkpt>
      <trkpt lat="43.43279" lon="6.03615">
        <ele>305.62487792969</ele>
        <time>2014-05-28T14:01:44Z</time>
      </trkpt>
      <trkpt lat="43.43277" lon="6.03617">
        <ele>306.05773925781</ele>
        <time>2014-05-28T14:01:50Z</time>
      </trkpt>
      <trkpt lat="43.43277" lon="6.03617">
        <ele>306.05773925781</ele>
        <time>2014-05-28T14:02:02Z</time>
      </trkpt>
      <trkpt lat="43.43277" lon="6.03617">
        <ele>306.05773925781</ele>
        <time>2014-05-28T14:02:14Z</time>
      </trkpt>
      <trkpt lat="43.43276" lon="6.03618">
        <ele>306.31311035156</ele>
        <time>2014-05-28T14:02:16Z</time>
      </trkpt>
      <trkpt lat="43.43275" lon="6.0362">
        <ele>306.6604309082</ele>
        <time>2014-05-28T14:02:18Z</time>
      </trkpt>
      <trkpt lat="43.43269" lon="6.03629">
        <ele>308.82360839844</ele>
        <time>2014-05-28T14:02:24Z</time>
      </trkpt>
      <trkpt lat="43.43267" lon="6.03632">
        <ele>309.5927734375</ele>
        <time>2014-05-28T14:02:26Z</time>
      </trkpt>
      <trkpt lat="43.43266" lon="6.03634">
        <ele>310.07455444336</ele>
        <time>2014-05-28T14:02:27Z</time>
      </trkpt>
      <trkpt lat="43.43265" lon="6.03634">
        <ele>310.39440917969</ele>
        <time>2014-05-28T14:02:28Z</time>
      </trkpt>
      <trkpt lat="43.43265" lon="6.03635">
        <ele>310.40188598633</ele>
        <time>2014-05-28T14:02:31Z</time>
      </trkpt>
      <trkpt lat="43.43263" lon="6.03637">
        <ele>311.39276123047</ele>
        <time>2014-05-28T14:02:37Z</time>
      </trkpt>
      <trkpt lat="43.43263" lon="6.03637">
        <ele>311.40954589844</ele>
        <time>2014-05-28T14:02:38Z</time>
      </trkpt>
      <trkpt lat="43.43262" lon="6.03638">
        <ele>311.74649047852</ele>
        <time>2014-05-28T14:02:42Z</time>
      </trkpt>
      <trkpt lat="43.43262" lon="6.03638">
        <ele>311.74649047852</ele>
        <time>2014-05-28T14:02:44Z</time>
      </trkpt>
      <trkpt lat="43.43261" lon="6.03639">
        <ele>312.10458374023</ele>
        <time>2014-05-28T14:02:46Z</time>
      </trkpt>
      <trkpt lat="43.43261" lon="6.0364">
        <ele>312.10806274414</ele>
        <time>2014-05-28T14:02:49Z</time>
      </trkpt>
      <trkpt lat="43.43259" lon="6.03642">
        <ele>312.92837524414</ele>
        <time>2014-05-28T14:02:58Z</time>
      </trkpt>
      <trkpt lat="43.43258" lon="6.03643">
        <ele>313.71966552734</ele>
        <time>2014-05-28T14:03:03Z</time>
      </trkpt>
      <trkpt lat="43.43255" lon="6.03645">
        <ele>314.79354858398</ele>
        <time>2014-05-28T14:03:07Z</time>
      </trkpt>
      <trkpt lat="43.43254" lon="6.03647">
        <ele>314.91683959961</ele>
        <time>2014-05-28T14:03:09Z</time>
      </trkpt>
      <trkpt lat="43.43254" lon="6.03647">
        <ele>314.91326904297</ele>
        <time>2014-05-28T14:03:10Z</time>
      </trkpt>
      <trkpt lat="43.43254" lon="6.03648">
        <ele>315.05419921875</ele>
        <time>2014-05-28T14:03:14Z</time>
      </trkpt>
      <trkpt lat="43.43253" lon="6.03649">
        <ele>315.48785400391</ele>
        <time>2014-05-28T14:03:21Z</time>
      </trkpt>
      <trkpt lat="43.43248" lon="6.03653">
        <ele>316.84097290039</ele>
        <time>2014-05-28T14:03:25Z</time>
      </trkpt>
      <trkpt lat="43.43246" lon="6.03655">
        <ele>317.14465332031</ele>
        <time>2014-05-28T14:03:27Z</time>
      </trkpt>
      <trkpt lat="43.43243" lon="6.03661">
        <ele>317.68762207031</ele>
        <time>2014-05-28T14:03:31Z</time>
      </trkpt>
      <trkpt lat="43.43241" lon="6.03663">
        <ele>317.95941162109</ele>
        <time>2014-05-28T14:03:33Z</time>
      </trkpt>
      <trkpt lat="43.4324" lon="6.03665">
        <ele>318.26095581055</ele>
        <time>2014-05-28T14:03:34Z</time>
      </trkpt>
      <trkpt lat="43.43238" lon="6.03666">
        <ele>318.49661254883</ele>
        <time>2014-05-28T14:03:35Z</time>
      </trkpt>
      <trkpt lat="43.43237" lon="6.03668">
        <ele>318.82458496094</ele>
        <time>2014-05-28T14:03:37Z</time>
      </trkpt>
      <trkpt lat="43.43233" lon="6.03673">
        <ele>319.73095703125</ele>
        <time>2014-05-28T14:03:42Z</time>
      </trkpt>
      <trkpt lat="43.43232" lon="6.03675">
        <ele>319.81335449219</ele>
        <time>2014-05-28T14:03:48Z</time>
      </trkpt>
      <trkpt lat="43.43232" lon="6.03675">
        <ele>319.89575195312</ele>
        <time>2014-05-28T14:03:49Z</time>
      </trkpt>
      <trkpt lat="43.43232" lon="6.03676">
        <ele>319.89575195312</ele>
        <time>2014-05-28T14:03:50Z</time>
      </trkpt>
      <trkpt lat="43.43231" lon="6.03677">
        <ele>320.060546875</ele>
        <time>2014-05-28T14:03:51Z</time>
      </trkpt>
      <trkpt lat="43.43231" lon="6.03677">
        <ele>320.060546875</ele>
        <time>2014-05-28T14:03:52Z</time>
      </trkpt>
      <trkpt lat="43.43231" lon="6.03677">
        <ele>320.060546875</ele>
        <time>2014-05-28T14:03:57Z</time>
      </trkpt>
      <trkpt lat="43.43232" lon="6.03678">
        <ele>319.97814941406</ele>
        <time>2014-05-28T14:04:01Z</time>
      </trkpt>
      <trkpt lat="43.43232" lon="6.03678">
        <ele>319.97814941406</ele>
        <time>2014-05-28T14:04:12Z</time>
      </trkpt>
      <trkpt lat="43.4323" lon="6.03679">
        <ele>320.22534179688</ele>
        <time>2014-05-28T14:04:15Z</time>
      </trkpt>
      <trkpt lat="43.43229" lon="6.03681">
        <ele>320.55493164062</ele>
        <time>2014-05-28T14:04:17Z</time>
      </trkpt>
      <trkpt lat="43.43227" lon="6.03684">
        <ele>320.96691894531</ele>
        <time>2014-05-28T14:04:20Z</time>
      </trkpt>
      <trkpt lat="43.43225" lon="6.03685">
        <ele>321.46130371094</ele>
        <time>2014-05-28T14:04:24Z</time>
      </trkpt>
      <trkpt lat="43.43225" lon="6.03685">
        <ele>321.37890625</ele>
        <time>2014-05-28T14:04:25Z</time>
      </trkpt>
      <trkpt lat="43.43225" lon="6.03685">
        <ele>321.37890625</ele>
        <time>2014-05-28T14:04:26Z</time>
      </trkpt>
      <trkpt lat="43.43225" lon="6.03686">
        <ele>321.46130371094</ele>
        <time>2014-05-28T14:04:27Z</time>
      </trkpt>
      <trkpt lat="43.43225" lon="6.03686">
        <ele>321.46130371094</ele>
        <time>2014-05-28T14:04:28Z</time>
      </trkpt>
      <trkpt lat="43.43224" lon="6.03687">
        <ele>321.54370117188</ele>
        <time>2014-05-28T14:04:29Z</time>
      </trkpt>
      <trkpt lat="43.43223" lon="6.03688">
        <ele>321.79089355469</ele>
        <time>2014-05-28T14:04:34Z</time>
      </trkpt>
      <trkpt lat="43.43223" lon="6.03688">
        <ele>321.79089355469</ele>
        <time>2014-05-28T14:04:36Z</time>
      </trkpt>
      <trkpt lat="43.43223" lon="6.03688">
        <ele>321.79089355469</ele>
        <time>2014-05-28T14:04:42Z</time>
      </trkpt>
      <trkpt lat="43.43219" lon="6.03696">
        <ele>322.43084716797</ele>
        <time>2014-05-28T14:04:47Z</time>
      </trkpt>
      <trkpt lat="43.43216" lon="6.03701">
        <ele>322.92349243164</ele>
        <time>2014-05-28T14:04:52Z</time>
      </trkpt>
      <trkpt lat="43.43216" lon="6.03701">
        <ele>322.92349243164</ele>
        <time>2014-05-28T14:05:13Z</time>
      </trkpt>
      <trkpt lat="43.43216" lon="6.03701">
        <ele>322.92349243164</ele>
        <time>2014-05-28T14:05:24Z</time>
      </trkpt>
      <trkpt lat="43.43215" lon="6.03702">
        <ele>323.02478027344</ele>
        <time>2014-05-28T14:05:31Z</time>
      </trkpt>
      <trkpt lat="43.43215" lon="6.03702">
        <ele>323.02478027344</ele>
        <time>2014-05-28T14:05:48Z</time>
      </trkpt>
      <trkpt lat="43.43215" lon="6.03702">
        <ele>323.02478027344</ele>
        <time>2014-05-28T14:06:09Z</time>
      </trkpt>
      <trkpt lat="43.43215" lon="6.03702">
        <ele>323.02648925781</ele>
        <time>2014-05-28T14:06:11Z</time>
      </trkpt>
      <trkpt lat="43.43215" lon="6.03703">
        <ele>323.09344482422</ele>
        <time>2014-05-28T14:06:17Z</time>
      </trkpt>
      <trkpt lat="43.43215" lon="6.03703">
        <ele>323.09344482422</ele>
        <time>2014-05-28T14:06:34Z</time>
      </trkpt>
      <trkpt lat="43.43214" lon="6.03703">
        <ele>323.15353393555</ele>
        <time>2014-05-28T14:06:57Z</time>
      </trkpt>
      <trkpt lat="43.43214" lon="6.03703">
        <ele>323.15353393555</ele>
        <time>2014-05-28T14:07:09Z</time>
      </trkpt>
      <trkpt lat="43.43214" lon="6.03703">
        <ele>323.19989013672</ele>
        <time>2014-05-28T14:07:22Z</time>
      </trkpt>
      <trkpt lat="43.43214" lon="6.03703">
        <ele>323.19989013672</ele>
        <time>2014-05-28T14:07:57Z</time>
      </trkpt>
      <trkpt lat="43.43214" lon="6.03703">
        <ele>323.23419189453</ele>
        <time>2014-05-28T14:08:52Z</time>
      </trkpt>
      <trkpt lat="43.43214" lon="6.03703">
        <ele>323.23419189453</ele>
        <time>2014-05-28T14:09:05Z</time>
      </trkpt>
      <trkpt lat="43.43213" lon="6.03704">
        <ele>323.35095214844</ele>
        <time>2014-05-28T14:09:13Z</time>
      </trkpt>
      <trkpt lat="43.43213" lon="6.03704">
        <ele>323.35095214844</ele>
        <time>2014-05-28T14:09:44Z</time>
      </trkpt>
      <trkpt lat="43.43213" lon="6.03704">
        <ele>323.32690429688</ele>
        <time>2014-05-28T14:09:59Z</time>
      </trkpt>
      <trkpt lat="43.43213" lon="6.03704">
        <ele>323.32690429688</ele>
        <time>2014-05-28T14:10:14Z</time>
      </trkpt>
      <trkpt lat="43.43213" lon="6.03705">
        <ele>323.42132568359</ele>
        <time>2014-05-28T14:10:24Z</time>
      </trkpt>
      <trkpt lat="43.43212" lon="6.03705">
        <ele>323.52258300781</ele>
        <time>2014-05-28T14:10:27Z</time>
      </trkpt>
      <trkpt lat="43.43209" lon="6.03708">
        <ele>323.91226196289</ele>
        <time>2014-05-28T14:10:29Z</time>
      </trkpt>
      <trkpt lat="43.43205" lon="6.03713">
        <ele>324.50451660156</ele>
        <time>2014-05-28T14:10:32Z</time>
      </trkpt>
      <trkpt lat="43.43201" lon="6.03718">
        <ele>325.09503173828</ele>
        <time>2014-05-28T14:10:35Z</time>
      </trkpt>
      <trkpt lat="43.43199" lon="6.03721">
        <ele>325.50012207031</ele>
        <time>2014-05-28T14:10:37Z</time>
      </trkpt>
      <trkpt lat="43.43197" lon="6.03722">
        <ele>325.69808959961</ele>
        <time>2014-05-28T14:10:38Z</time>
      </trkpt>
      <trkpt lat="43.43196" lon="6.03724">
        <ele>325.98028564453</ele>
        <time>2014-05-28T14:10:39Z</time>
      </trkpt>
      <trkpt lat="43.43195" lon="6.03726">
        <ele>326.19021606445</ele>
        <time>2014-05-28T14:10:40Z</time>
      </trkpt>
      <trkpt lat="43.43194" lon="6.03727">
        <ele>326.36813354492</ele>
        <time>2014-05-28T14:10:41Z</time>
      </trkpt>
      <trkpt lat="43.43191" lon="6.03733">
        <ele>327.23297119141</ele>
        <time>2014-05-28T14:10:45Z</time>
      </trkpt>
      <trkpt lat="43.43189" lon="6.03737">
        <ele>327.71826171875</ele>
        <time>2014-05-28T14:10:47Z</time>
      </trkpt>
      <trkpt lat="43.4319" lon="6.03741">
        <ele>327.84918212891</ele>
        <time>2014-05-28T14:10:49Z</time>
      </trkpt>
      <trkpt lat="43.43191" lon="6.03748">
        <ele>328.23638916016</ele>
        <time>2014-05-28T14:10:54Z</time>
      </trkpt>
      <trkpt lat="43.4319" lon="6.03749">
        <ele>328.45132446289</ele>
        <time>2014-05-28T14:10:55Z</time>
      </trkpt>
      <trkpt lat="43.43185" lon="6.03758">
        <ele>329.36001586914</ele>
        <time>2014-05-28T14:11:01Z</time>
      </trkpt>
      <trkpt lat="43.43177" lon="6.03771">
        <ele>330.60113525391</ele>
        <time>2014-05-28T14:11:08Z</time>
      </trkpt>
      <trkpt lat="43.43176" lon="6.03779">
        <ele>331.06399536133</ele>
        <time>2014-05-28T14:11:12Z</time>
      </trkpt>
      <trkpt lat="43.43173" lon="6.03789">
        <ele>331.42108154297</ele>
        <time>2014-05-28T14:11:16Z</time>
      </trkpt>
      <trkpt lat="43.43171" lon="6.03791">
        <ele>331.5754699707</ele>
        <time>2014-05-28T14:11:17Z</time>
      </trkpt>
      <trkpt lat="43.43164" lon="6.0379">
        <ele>332.1875</ele>
        <time>2014-05-28T14:11:21Z</time>
      </trkpt>
      <trkpt lat="43.43154" lon="6.03781">
        <ele>332.92907714844</ele>
        <time>2014-05-28T14:11:25Z</time>
      </trkpt>
      <trkpt lat="43.43153" lon="6.0377">
        <ele>332.97967529297</ele>
        <time>2014-05-28T14:11:28Z</time>
      </trkpt>
      <trkpt lat="43.43152" lon="6.03762">
        <ele>333.10375976562</ele>
        <time>2014-05-28T14:11:31Z</time>
      </trkpt>
      <trkpt lat="43.43152" lon="6.03752">
        <ele>333.12884521484</ele>
        <time>2014-05-28T14:11:35Z</time>
      </trkpt>
      <trkpt lat="43.43155" lon="6.03733">
        <ele>332.33679199219</ele>
        <time>2014-05-28T14:11:41Z</time>
      </trkpt>
      <trkpt lat="43.43159" lon="6.03713">
        <ele>330.95855712891</ele>
        <time>2014-05-28T14:11:47Z</time>
      </trkpt>
      <trkpt lat="43.43163" lon="6.03701">
        <ele>329.98181152344</ele>
        <time>2014-05-28T14:11:50Z</time>
      </trkpt>
      <trkpt lat="43.43164" lon="6.03694">
        <ele>329.40008544922</ele>
        <time>2014-05-28T14:11:52Z</time>
      </trkpt>
      <trkpt lat="43.43165" lon="6.0369">
        <ele>329.33142089844</ele>
        <time>2014-05-28T14:11:53Z</time>
      </trkpt>
      <trkpt lat="43.43166" lon="6.03679">
        <ele>329.12542724609</ele>
        <time>2014-05-28T14:11:56Z</time>
      </trkpt>
      <trkpt lat="43.4317" lon="6.03648">
        <ele>327.81188964844</ele>
        <time>2014-05-28T14:12:05Z</time>
      </trkpt>
      <trkpt lat="43.43171" lon="6.03633">
        <ele>327.41070556641</ele>
        <time>2014-05-28T14:12:10Z</time>
      </trkpt>
      <trkpt lat="43.43171" lon="6.03623">
        <ele>327.36273193359</ele>
        <time>2014-05-28T14:12:13Z</time>
      </trkpt>
      <trkpt lat="43.4317" lon="6.03616">
        <ele>327.45794677734</ele>
        <time>2014-05-28T14:12:15Z</time>
      </trkpt>
      <trkpt lat="43.4317" lon="6.03612">
        <ele>327.44293212891</ele>
        <time>2014-05-28T14:12:16Z</time>
      </trkpt>
      <trkpt lat="43.43165" lon="6.03599">
        <ele>327.80117797852</ele>
        <time>2014-05-28T14:12:20Z</time>
      </trkpt>
      <trkpt lat="43.43155" lon="6.03589">
        <ele>329.16564941406</ele>
        <time>2014-05-28T14:12:24Z</time>
      </trkpt>
      <trkpt lat="43.43143" lon="6.03586">
        <ele>331.19445800781</ele>
        <time>2014-05-28T14:12:27Z</time>
      </trkpt>
      <trkpt lat="43.4314" lon="6.03586">
        <ele>331.86624145508</ele>
        <time>2014-05-28T14:12:28Z</time>
      </trkpt>
      <trkpt lat="43.43127" lon="6.03587">
        <ele>333.236328125</ele>
        <time>2014-05-28T14:12:31Z</time>
      </trkpt>
      <trkpt lat="43.43121" lon="6.03588">
        <ele>333.93670654297</ele>
        <time>2014-05-28T14:12:33Z</time>
      </trkpt>
      <trkpt lat="43.43113" lon="6.0359">
        <ele>334.84307861328</ele>
        <time>2014-05-28T14:12:36Z</time>
      </trkpt>
      <trkpt lat="43.43111" lon="6.03592">
        <ele>335.01129150391</ele>
        <time>2014-05-28T14:12:37Z</time>
      </trkpt>
      <trkpt lat="43.4311" lon="6.03593">
        <ele>335.2502746582</ele>
        <time>2014-05-28T14:12:38Z</time>
      </trkpt>
      <trkpt lat="43.43107" lon="6.03595">
        <ele>335.61700439453</ele>
        <time>2014-05-28T14:12:40Z</time>
      </trkpt>
      <trkpt lat="43.43106" lon="6.03595">
        <ele>335.80331420898</ele>
        <time>2014-05-28T14:12:43Z</time>
      </trkpt>
      <trkpt lat="43.43106" lon="6.03595">
        <ele>335.80331420898</ele>
        <time>2014-05-28T14:13:10Z</time>
      </trkpt>
      <trkpt lat="43.43106" lon="6.03596">
        <ele>335.86553955078</ele>
        <time>2014-05-28T14:13:31Z</time>
      </trkpt>
      <trkpt lat="43.43106" lon="6.03596">
        <ele>335.86553955078</ele>
        <time>2014-05-28T14:13:54Z</time>
      </trkpt>
      <trkpt lat="43.43105" lon="6.03598">
        <ele>336.00430297852</ele>
        <time>2014-05-28T14:13:56Z</time>
      </trkpt>
      <trkpt lat="43.43103" lon="6.03605">
        <ele>336.32144165039</ele>
        <time>2014-05-28T14:13:58Z</time>
      </trkpt>
      <trkpt lat="43.43103" lon="6.03609">
        <ele>336.50466918945</ele>
        <time>2014-05-28T14:13:59Z</time>
      </trkpt>
      <trkpt lat="43.431" lon="6.0362">
        <ele>337.13195800781</ele>
        <time>2014-05-28T14:14:01Z</time>
      </trkpt>
      <trkpt lat="43.431" lon="6.03625">
        <ele>337.37002563477</ele>
        <time>2014-05-28T14:14:02Z</time>
      </trkpt>
      <trkpt lat="43.43099" lon="6.03636">
        <ele>337.65838623047</ele>
        <time>2014-05-28T14:14:04Z</time>
      </trkpt>
      <trkpt lat="43.43099" lon="6.03642">
        <ele>337.83178710938</ele>
        <time>2014-05-28T14:14:05Z</time>
      </trkpt>
      <trkpt lat="43.43099" lon="6.03661">
        <ele>338.5578918457</ele>
        <time>2014-05-28T14:14:08Z</time>
      </trkpt>
      <trkpt lat="43.43097" lon="6.03678">
        <ele>339.04296875</ele>
        <time>2014-05-28T14:14:11Z</time>
      </trkpt>
      <trkpt lat="43.43095" lon="6.03701">
        <ele>339.61096191406</ele>
        <time>2014-05-28T14:14:15Z</time>
      </trkpt>
      <trkpt lat="43.43095" lon="6.03712">
        <ele>339.98861694336</ele>
        <time>2014-05-28T14:14:17Z</time>
      </trkpt>
      <trkpt lat="43.43096" lon="6.03722">
        <ele>340.14312744141</ele>
        <time>2014-05-28T14:14:21Z</time>
      </trkpt>
      <trkpt lat="43.431" lon="6.03724">
        <ele>339.59777832031</ele>
        <time>2014-05-28T14:14:26Z</time>
      </trkpt>
      <trkpt lat="43.43106" lon="6.03727">
        <ele>338.60559082031</ele>
        <time>2014-05-28T14:14:30Z</time>
      </trkpt>
      <trkpt lat="43.43108" lon="6.0373">
        <ele>338.23822021484</ele>
        <time>2014-05-28T14:14:32Z</time>
      </trkpt>
      <trkpt lat="43.4311" lon="6.03732">
        <ele>337.86056518555</ele>
        <time>2014-05-28T14:14:34Z</time>
      </trkpt>
      <trkpt lat="43.43113" lon="6.0374">
        <ele>337.16616821289</ele>
        <time>2014-05-28T14:14:39Z</time>
      </trkpt>
      <trkpt lat="43.43117" lon="6.03746">
        <ele>336.67224121094</ele>
        <time>2014-05-28T14:14:42Z</time>
      </trkpt>
      <trkpt lat="43.43119" lon="6.03747">
        <ele>336.47821044922</ele>
        <time>2014-05-28T14:14:43Z</time>
      </trkpt>
      <trkpt lat="43.43127" lon="6.03756">
        <ele>335.65805053711</ele>
        <time>2014-05-28T14:14:47Z</time>
      </trkpt>
      <trkpt lat="43.43124" lon="6.03767">
        <ele>335.49325561523</ele>
        <time>2014-05-28T14:14:50Z</time>
      </trkpt>
      <trkpt lat="43.43126" lon="6.03776">
        <ele>334.9714050293</ele>
        <time>2014-05-28T14:14:53Z</time>
      </trkpt>
      <trkpt lat="43.4313" lon="6.03784">
        <ele>334.54000854492</ele>
        <time>2014-05-28T14:14:56Z</time>
      </trkpt>
      <trkpt lat="43.43134" lon="6.0379">
        <ele>334.3034362793</ele>
        <time>2014-05-28T14:14:58Z</time>
      </trkpt>
      <trkpt lat="43.43134" lon="6.03825">
        <ele>334.05422973633</ele>
        <time>2014-05-28T14:15:07Z</time>
      </trkpt>
      <trkpt lat="43.43139" lon="6.03849">
        <ele>334</ele>
        <time>2014-05-28T14:15:12Z</time>
      </trkpt>
      <trkpt lat="43.43137" lon="6.03871">
        <ele>333.98046875</ele>
        <time>2014-05-28T14:15:16Z</time>
      </trkpt>
      <trkpt lat="43.43137" lon="6.03891">
        <ele>333.91748046875</ele>
        <time>2014-05-28T14:15:20Z</time>
      </trkpt>
      <trkpt lat="43.43134" lon="6.03896">
        <ele>333.8076171875</ele>
        <time>2014-05-28T14:15:22Z</time>
      </trkpt>
      <trkpt lat="43.43134" lon="6.03899">
        <ele>333.83508300781</ele>
        <time>2014-05-28T14:15:23Z</time>
      </trkpt>
      <trkpt lat="43.43138" lon="6.03912">
        <ele>333.97241210938</ele>
        <time>2014-05-28T14:15:27Z</time>
      </trkpt>
      <trkpt lat="43.43135" lon="6.03924">
        <ele>333.80999755859</ele>
        <time>2014-05-28T14:15:31Z</time>
      </trkpt>
      <trkpt lat="43.43127" lon="6.03938">
        <ele>333.24774169922</ele>
        <time>2014-05-28T14:15:36Z</time>
      </trkpt>
      <trkpt lat="43.43121" lon="6.03956">
        <ele>332.40411376953</ele>
        <time>2014-05-28T14:15:41Z</time>
      </trkpt>
      <trkpt lat="43.43117" lon="6.03964">
        <ele>331.8818359375</ele>
        <time>2014-05-28T14:15:43Z</time>
      </trkpt>
      <trkpt lat="43.43116" lon="6.03966">
        <ele>331.66131591797</ele>
        <time>2014-05-28T14:15:44Z</time>
      </trkpt>
      <trkpt lat="43.43111" lon="6.03973">
        <ele>330.98638916016</ele>
        <time>2014-05-28T14:15:46Z</time>
      </trkpt>
      <trkpt lat="43.43106" lon="6.03978">
        <ele>330.97436523438</ele>
        <time>2014-05-28T14:15:48Z</time>
      </trkpt>
      <trkpt lat="43.43102" lon="6.03984">
        <ele>330.90054321289</ele>
        <time>2014-05-28T14:15:50Z</time>
      </trkpt>
      <trkpt lat="43.43096" lon="6.04001">
        <ele>330.51431274414</ele>
        <time>2014-05-28T14:15:55Z</time>
      </trkpt>
      <trkpt lat="43.43084" lon="6.04015">
        <ele>330.41131591797</ele>
        <time>2014-05-28T14:16:00Z</time>
      </trkpt>
      <trkpt lat="43.43077" lon="6.04027">
        <ele>330.51943969727</ele>
        <time>2014-05-28T14:16:05Z</time>
      </trkpt>
      <trkpt lat="43.43077" lon="6.04033">
        <ele>330.12225341797</ele>
        <time>2014-05-28T14:16:07Z</time>
      </trkpt>
      <trkpt lat="43.43077" lon="6.04046">
        <ele>329.30285644531</ele>
        <time>2014-05-28T14:16:10Z</time>
      </trkpt>
      <trkpt lat="43.43081" lon="6.04055">
        <ele>328.3369140625</ele>
        <time>2014-05-28T14:16:12Z</time>
      </trkpt>
      <trkpt lat="43.43089" lon="6.04058">
        <ele>328.0895690918</ele>
        <time>2014-05-28T14:16:14Z</time>
      </trkpt>
      <trkpt lat="43.43095" lon="6.04059">
        <ele>328.30242919922</ele>
        <time>2014-05-28T14:16:16Z</time>
      </trkpt>
      <trkpt lat="43.43098" lon="6.0406">
        <ele>328.39169311523</ele>
        <time>2014-05-28T14:16:17Z</time>
      </trkpt>
      <trkpt lat="43.431" lon="6.0406">
        <ele>328.43975830078</ele>
        <time>2014-05-28T14:16:18Z</time>
      </trkpt>
      <trkpt lat="43.43104" lon="6.04062">
        <ele>328.52215576172</ele>
        <time>2014-05-28T14:16:20Z</time>
      </trkpt>
      <trkpt lat="43.43106" lon="6.04062">
        <ele>328.58050537109</ele>
        <time>2014-05-28T14:16:21Z</time>
      </trkpt>
      <trkpt lat="43.43109" lon="6.04063">
        <ele>328.66464233398</ele>
        <time>2014-05-28T14:16:23Z</time>
      </trkpt>
      <trkpt lat="43.4311" lon="6.04063">
        <ele>328.70755004883</ele>
        <time>2014-05-28T14:16:24Z</time>
      </trkpt>
      <trkpt lat="43.43114" lon="6.04064">
        <ele>329.11441040039</ele>
        <time>2014-05-28T14:16:26Z</time>
      </trkpt>
      <trkpt lat="43.43117" lon="6.04065">
        <ele>329.55252075195</ele>
        <time>2014-05-28T14:16:28Z</time>
      </trkpt>
      <trkpt lat="43.43119" lon="6.04066">
        <ele>329.87966918945</ele>
        <time>2014-05-28T14:16:30Z</time>
      </trkpt>
      <trkpt lat="43.43122" lon="6.04067">
        <ele>330.27416992188</ele>
        <time>2014-05-28T14:16:32Z</time>
      </trkpt>
      <trkpt lat="43.43127" lon="6.04066">
        <ele>331.14105224609</ele>
        <time>2014-05-28T14:16:36Z</time>
      </trkpt>
      <trkpt lat="43.43129" lon="6.04065">
        <ele>331.44570922852</ele>
        <time>2014-05-28T14:16:37Z</time>
      </trkpt>
      <trkpt lat="43.43132" lon="6.04064">
        <ele>331.87344360352</ele>
        <time>2014-05-28T14:16:39Z</time>
      </trkpt>
      <trkpt lat="43.4314" lon="6.04057">
        <ele>333.24835205078</ele>
        <time>2014-05-28T14:16:46Z</time>
      </trkpt>
      <trkpt lat="43.43141" lon="6.04055">
        <ele>333.49365234375</ele>
        <time>2014-05-28T14:16:47Z</time>
      </trkpt>
      <trkpt lat="43.43145" lon="6.04049">
        <ele>334.31762695312</ele>
        <time>2014-05-28T14:16:50Z</time>
      </trkpt>
      <trkpt lat="43.43147" lon="6.04038">
        <ele>334.72961425781</ele>
        <time>2014-05-28T14:16:54Z</time>
      </trkpt>
      <trkpt lat="43.43147" lon="6.04035">
        <ele>334.81201171875</ele>
        <time>2014-05-28T14:16:55Z</time>
      </trkpt>
      <trkpt lat="43.4315" lon="6.04026">
        <ele>335.40335083008</ele>
        <time>2014-05-28T14:16:58Z</time>
      </trkpt>
      <trkpt lat="43.43152" lon="6.0402">
        <ele>335.81851196289</ele>
        <time>2014-05-28T14:17:00Z</time>
      </trkpt>
      <trkpt lat="43.43155" lon="6.04005">
        <ele>336.3938293457</ele>
        <time>2014-05-28T14:17:04Z</time>
      </trkpt>
      <trkpt lat="43.43162" lon="6.0398">
        <ele>337.35034179688</ele>
        <time>2014-05-28T14:17:09Z</time>
      </trkpt>
      <trkpt lat="43.43164" lon="6.03975">
        <ele>337.625</ele>
        <time>2014-05-28T14:17:10Z</time>
      </trkpt>
      <trkpt lat="43.43167" lon="6.03956">
        <ele>336.8522644043</ele>
        <time>2014-05-28T14:17:13Z</time>
      </trkpt>
      <trkpt lat="43.43168" lon="6.0395">
        <ele>336.41354370117</ele>
        <time>2014-05-28T14:17:14Z</time>
      </trkpt>
      <trkpt lat="43.43169" lon="6.03945">
        <ele>336.00653076172</ele>
        <time>2014-05-28T14:17:15Z</time>
      </trkpt>
      <trkpt lat="43.43171" lon="6.03933">
        <ele>335.94027709961</ele>
        <time>2014-05-28T14:17:17Z</time>
      </trkpt>
      <trkpt lat="43.43174" lon="6.03917">
        <ele>335.75451660156</ele>
        <time>2014-05-28T14:17:20Z</time>
      </trkpt>
      <trkpt lat="43.43179" lon="6.03907">
        <ele>334.86996459961</ele>
        <time>2014-05-28T14:17:23Z</time>
      </trkpt>
      <trkpt lat="43.43182" lon="6.03903">
        <ele>334.44424438477</ele>
        <time>2014-05-28T14:17:25Z</time>
      </trkpt>
      <trkpt lat="43.43183" lon="6.039">
        <ele>334.17645263672</ele>
        <time>2014-05-28T14:17:26Z</time>
      </trkpt>
      <trkpt lat="43.43186" lon="6.03893">
        <ele>333.60998535156</ele>
        <time>2014-05-28T14:17:28Z</time>
      </trkpt>
      <trkpt lat="43.43188" lon="6.0389">
        <ele>333.34216308594</ele>
        <time>2014-05-28T14:17:29Z</time>
      </trkpt>
      <trkpt lat="43.43188" lon="6.03887">
        <ele>333.13088989258</ele>
        <time>2014-05-28T14:17:30Z</time>
      </trkpt>
      <trkpt lat="43.43192" lon="6.03872">
        <ele>332.48886108398</ele>
        <time>2014-05-28T14:17:34Z</time>
      </trkpt>
      <trkpt lat="43.43195" lon="6.03856">
        <ele>331.81192016602</ele>
        <time>2014-05-28T14:17:39Z</time>
      </trkpt>
      <trkpt lat="43.43196" lon="6.03854">
        <ele>331.63421630859</ele>
        <time>2014-05-28T14:17:40Z</time>
      </trkpt>
      <trkpt lat="43.43199" lon="6.03849">
        <ele>331.16796875</ele>
        <time>2014-05-28T14:17:42Z</time>
      </trkpt>
      <trkpt lat="43.43213" lon="6.03842">
        <ele>329.48553466797</ele>
        <time>2014-05-28T14:17:48Z</time>
      </trkpt>
      <trkpt lat="43.43225" lon="6.03838">
        <ele>327.59765625</ele>
        <time>2014-05-28T14:17:54Z</time>
      </trkpt>
      <trkpt lat="43.4323" lon="6.03836">
        <ele>326.4072265625</ele>
        <time>2014-05-28T14:17:56Z</time>
      </trkpt>
      <trkpt lat="43.43237" lon="6.03835">
        <ele>324.97113037109</ele>
        <time>2014-05-28T14:17:59Z</time>
      </trkpt>
      <trkpt lat="43.43237" lon="6.03834">
        <ele>324.88562011719</ele>
        <time>2014-05-28T14:18:03Z</time>
      </trkpt>
      <trkpt lat="43.43237" lon="6.03834">
        <ele>324.86541748047</ele>
        <time>2014-05-28T14:18:08Z</time>
      </trkpt>
      <trkpt lat="43.43237" lon="6.03834">
        <ele>324.86541748047</ele>
        <time>2014-05-28T14:18:26Z</time>
      </trkpt>
      <trkpt lat="43.43237" lon="6.03834">
        <ele>324.79513549805</ele>
        <time>2014-05-28T14:19:25Z</time>
      </trkpt>
      <trkpt lat="43.43237" lon="6.03834">
        <ele>324.79513549805</ele>
        <time>2014-05-28T14:19:45Z</time>
      </trkpt>
      <trkpt lat="43.43238" lon="6.03835">
        <ele>324.72463989258</ele>
        <time>2014-05-28T14:20:51Z</time>
      </trkpt>
      <trkpt lat="43.43238" lon="6.03835">
        <ele>324.72463989258</ele>
        <time>2014-05-28T14:20:59Z</time>
      </trkpt>
      <trkpt lat="43.43238" lon="6.03835">
        <ele>324.72463989258</ele>
        <time>2014-05-28T14:21:15Z</time>
      </trkpt>
      <trkpt lat="43.43239" lon="6.03833">
        <ele>324.31683349609</ele>
        <time>2014-05-28T14:21:17Z</time>
      </trkpt>
      <trkpt lat="43.43245" lon="6.03832">
        <ele>323.02926635742</ele>
        <time>2014-05-28T14:21:20Z</time>
      </trkpt>
      <trkpt lat="43.43252" lon="6.03835">
        <ele>321.69497680664</ele>
        <time>2014-05-28T14:21:24Z</time>
      </trkpt>
      <trkpt lat="43.43255" lon="6.03837">
        <ele>321.24032592773</ele>
        <time>2014-05-28T14:21:25Z</time>
      </trkpt>
      <trkpt lat="43.43258" lon="6.0384">
        <ele>320.88455200195</ele>
        <time>2014-05-28T14:21:26Z</time>
      </trkpt>
      <trkpt lat="43.43262" lon="6.03843">
        <ele>320.50201416016</ele>
        <time>2014-05-28T14:21:27Z</time>
      </trkpt>
      <trkpt lat="43.43266" lon="6.03845">
        <ele>320.11737060547</ele>
        <time>2014-05-28T14:21:28Z</time>
      </trkpt>
      <trkpt lat="43.43269" lon="6.03849">
        <ele>319.8821105957</ele>
        <time>2014-05-28T14:21:29Z</time>
      </trkpt>
      <trkpt lat="43.43272" lon="6.03852">
        <ele>319.77716064453</ele>
        <time>2014-05-28T14:21:30Z</time>
      </trkpt>
      <trkpt lat="43.43275" lon="6.03857">
        <ele>319.84283447266</ele>
        <time>2014-05-28T14:21:31Z</time>
      </trkpt>
      <trkpt lat="43.43277" lon="6.03861">
        <ele>320.09637451172</ele>
        <time>2014-05-28T14:21:32Z</time>
      </trkpt>
      <trkpt lat="43.43279" lon="6.03867">
        <ele>319.99645996094</ele>
        <time>2014-05-28T14:21:33Z</time>
      </trkpt>
      <trkpt lat="43.4328" lon="6.03872">
        <ele>319.76098632812</ele>
        <time>2014-05-28T14:21:34Z</time>
      </trkpt>
      <trkpt lat="43.43285" lon="6.03884">
        <ele>318.95175170898</ele>
        <time>2014-05-28T14:21:38Z</time>
      </trkpt>
      <trkpt lat="43.43288" lon="6.03891">
        <ele>318.50811767578</ele>
        <time>2014-05-28T14:21:40Z</time>
      </trkpt>
      <trkpt lat="43.43287" lon="6.039">
        <ele>319.21322631836</ele>
        <time>2014-05-28T14:21:42Z</time>
      </trkpt>
      <trkpt lat="43.43285" lon="6.03909">
        <ele>320.01596069336</ele>
        <time>2014-05-28T14:21:44Z</time>
      </trkpt>
      <trkpt lat="43.43284" lon="6.03913">
        <ele>320.55072021484</ele>
        <time>2014-05-28T14:21:45Z</time>
      </trkpt>
      <trkpt lat="43.43282" lon="6.03924">
        <ele>321.19946289062</ele>
        <time>2014-05-28T14:21:48Z</time>
      </trkpt>
      <trkpt lat="43.43283" lon="6.03927">
        <ele>321.15017700195</ele>
        <time>2014-05-28T14:21:49Z</time>
      </trkpt>
      <trkpt lat="43.43284" lon="6.0393">
        <ele>321.05923461914</ele>
        <time>2014-05-28T14:21:50Z</time>
      </trkpt>
      <trkpt lat="43.43286" lon="6.03933">
        <ele>320.9130859375</ele>
        <time>2014-05-28T14:21:51Z</time>
      </trkpt>
      <trkpt lat="43.43286" lon="6.0394">
        <ele>321.19604492188</ele>
        <time>2014-05-28T14:21:53Z</time>
      </trkpt>
      <trkpt lat="43.43286" lon="6.03943">
        <ele>321.34902954102</ele>
        <time>2014-05-28T14:21:54Z</time>
      </trkpt>
      <trkpt lat="43.43285" lon="6.03947">
        <ele>321.58309936523</ele>
        <time>2014-05-28T14:21:55Z</time>
      </trkpt>
      <trkpt lat="43.43286" lon="6.03953">
        <ele>321.82574462891</ele>
        <time>2014-05-28T14:21:56Z</time>
      </trkpt>
      <trkpt lat="43.43287" lon="6.03958">
        <ele>321.97543334961</ele>
        <time>2014-05-28T14:21:57Z</time>
      </trkpt>
      <trkpt lat="43.43288" lon="6.0396">
        <ele>321.96469116211</ele>
        <time>2014-05-28T14:21:58Z</time>
      </trkpt>
      <trkpt lat="43.43288" lon="6.0396">
        <ele>321.96035766602</ele>
        <time>2014-05-28T14:21:59Z</time>
      </trkpt>
      <trkpt lat="43.43288" lon="6.0396">
        <ele>321.91555786133</ele>
        <time>2014-05-28T14:22:00Z</time>
      </trkpt>
      <trkpt lat="43.43288" lon="6.0396">
        <ele>321.91555786133</ele>
        <time>2014-05-28T14:22:01Z</time>
      </trkpt>
      <trkpt lat="43.43288" lon="6.0396">
        <ele>321.99642944336</ele>
        <time>2014-05-28T14:22:06Z</time>
      </trkpt>
      <trkpt lat="43.43288" lon="6.0396">
        <ele>321.99642944336</ele>
        <time>2014-05-28T14:22:42Z</time>
      </trkpt>
      <trkpt lat="43.43288" lon="6.0396">
        <ele>321.9733581543</ele>
        <time>2014-05-28T14:23:35Z</time>
      </trkpt>
      <trkpt lat="43.43288" lon="6.0396">
        <ele>321.9733581543</ele>
        <time>2014-05-28T14:23:51Z</time>
      </trkpt>
      <trkpt lat="43.43288" lon="6.0396">
        <ele>321.9733581543</ele>
        <time>2014-05-28T14:24:02Z</time>
      </trkpt>
      <trkpt lat="43.43287" lon="6.0396">
        <ele>322.05703735352</ele>
        <time>2014-05-28T14:24:13Z</time>
      </trkpt>
      <trkpt lat="43.43287" lon="6.0396">
        <ele>322.05703735352</ele>
        <time>2014-05-28T14:24:18Z</time>
      </trkpt>
      <trkpt lat="43.43287" lon="6.0396">
        <ele>322.04348754883</ele>
        <time>2014-05-28T14:24:22Z</time>
      </trkpt>
      <trkpt lat="43.43289" lon="6.03967">
        <ele>322.11553955078</ele>
        <time>2014-05-28T14:24:28Z</time>
      </trkpt>
      <trkpt lat="43.43288" lon="6.0397">
        <ele>322.36874389648</ele>
        <time>2014-05-28T14:24:29Z</time>
      </trkpt>
      <trkpt lat="43.43288" lon="6.03977">
        <ele>322.57366943359</ele>
        <time>2014-05-28T14:24:31Z</time>
      </trkpt>
      <trkpt lat="43.4329" lon="6.03985">
        <ele>322.49685668945</ele>
        <time>2014-05-28T14:24:35Z</time>
      </trkpt>
      <trkpt lat="43.43293" lon="6.03993">
        <ele>322.21838378906</ele>
        <time>2014-05-28T14:24:38Z</time>
      </trkpt>
      <trkpt lat="43.43293" lon="6.03996">
        <ele>322.25756835938</ele>
        <time>2014-05-28T14:24:39Z</time>
      </trkpt>
      <trkpt lat="43.43292" lon="6.03996">
        <ele>322.3200378418</ele>
        <time>2014-05-28T14:24:42Z</time>
      </trkpt>
      <trkpt lat="43.43292" lon="6.03996">
        <ele>322.3200378418</ele>
        <time>2014-05-28T14:24:53Z</time>
      </trkpt>
      <trkpt lat="43.43292" lon="6.03996">
        <ele>322.3200378418</ele>
        <time>2014-05-28T14:25:03Z</time>
      </trkpt>
      <trkpt lat="43.43292" lon="6.03999">
        <ele>322.37353515625</ele>
        <time>2014-05-28T14:25:06Z</time>
      </trkpt>
      <trkpt lat="43.43292" lon="6.04001">
        <ele>322.48382568359</ele>
        <time>2014-05-28T14:25:10Z</time>
      </trkpt>
      <trkpt lat="43.43291" lon="6.04003">
        <ele>322.59390258789</ele>
        <time>2014-05-28T14:25:14Z</time>
      </trkpt>
      <trkpt lat="43.43291" lon="6.04003">
        <ele>322.59390258789</ele>
        <time>2014-05-28T14:25:16Z</time>
      </trkpt>
      <trkpt lat="43.43291" lon="6.04004">
        <ele>322.67398071289</ele>
        <time>2014-05-28T14:25:20Z</time>
      </trkpt>
      <trkpt lat="43.43291" lon="6.04005">
        <ele>322.69009399414</ele>
        <time>2014-05-28T14:25:22Z</time>
      </trkpt>
      <trkpt lat="43.43291" lon="6.04007">
        <ele>322.73300170898</ele>
        <time>2014-05-28T14:25:24Z</time>
      </trkpt>
      <trkpt lat="43.43293" lon="6.04014">
        <ele>322.48974609375</ele>
        <time>2014-05-28T14:25:26Z</time>
      </trkpt>
      <trkpt lat="43.43295" lon="6.0403">
        <ele>322.52807617188</ele>
        <time>2014-05-28T14:25:31Z</time>
      </trkpt>
      <trkpt lat="43.43295" lon="6.04034">
        <ele>322.71343994141</ele>
        <time>2014-05-28T14:25:33Z</time>
      </trkpt>
      <trkpt lat="43.43295" lon="6.04034">
        <ele>322.81988525391</ele>
        <time>2014-05-28T14:25:35Z</time>
      </trkpt>
      <trkpt lat="43.43295" lon="6.04034">
        <ele>322.81988525391</ele>
        <time>2014-05-28T14:25:41Z</time>
      </trkpt>
      <trkpt lat="43.43296" lon="6.04043">
        <ele>323.17694091797</ele>
        <time>2014-05-28T14:25:49Z</time>
      </trkpt>
      <trkpt lat="43.43298" lon="6.04055">
        <ele>323.71594238281</ele>
        <time>2014-05-28T14:25:53Z</time>
      </trkpt>
      <trkpt lat="43.43297" lon="6.0406">
        <ele>323.63610839844</ele>
        <time>2014-05-28T14:25:55Z</time>
      </trkpt>
      <trkpt lat="43.43297" lon="6.04063">
        <ele>323.61724853516</ele>
        <time>2014-05-28T14:25:56Z</time>
      </trkpt>
      <trkpt lat="43.43297" lon="6.04067">
        <ele>323.46447753906</ele>
        <time>2014-05-28T14:25:57Z</time>
      </trkpt>
      <trkpt lat="43.43298" lon="6.04074">
        <ele>322.97351074219</ele>
        <time>2014-05-28T14:25:59Z</time>
      </trkpt>
      <trkpt lat="43.43299" lon="6.04078">
        <ele>322.58212280273</ele>
        <time>2014-05-28T14:26:00Z</time>
      </trkpt>
      <trkpt lat="43.43299" lon="6.04084">
        <ele>322.30401611328</ele>
        <time>2014-05-28T14:26:02Z</time>
      </trkpt>
      <trkpt lat="43.433" lon="6.04087">
        <ele>322.11349487305</ele>
        <time>2014-05-28T14:26:03Z</time>
      </trkpt>
      <trkpt lat="43.433" lon="6.0409">
        <ele>321.98815917969</ele>
        <time>2014-05-28T14:26:04Z</time>
      </trkpt>
      <trkpt lat="43.43301" lon="6.04094">
        <ele>321.69635009766</ele>
        <time>2014-05-28T14:26:05Z</time>
      </trkpt>
      <trkpt lat="43.43301" lon="6.04097">
        <ele>321.48178100586</ele>
        <time>2014-05-28T14:26:06Z</time>
      </trkpt>
      <trkpt lat="43.43302" lon="6.04102">
        <ele>321.15734863281</ele>
        <time>2014-05-28T14:26:07Z</time>
      </trkpt>
      <trkpt lat="43.43302" lon="6.04107">
        <ele>320.98223876953</ele>
        <time>2014-05-28T14:26:08Z</time>
      </trkpt>
      <trkpt lat="43.43302" lon="6.04112">
        <ele>320.76416015625</ele>
        <time>2014-05-28T14:26:09Z</time>
      </trkpt>
      <trkpt lat="43.43305" lon="6.04132">
        <ele>317.90283203125</ele>
        <time>2014-05-28T14:26:13Z</time>
      </trkpt>
      <trkpt lat="43.43304" lon="6.04138">
        <ele>317.41641235352</ele>
        <time>2014-05-28T14:26:14Z</time>
      </trkpt>
      <trkpt lat="43.43306" lon="6.04142">
        <ele>316.98828125</ele>
        <time>2014-05-28T14:26:15Z</time>
      </trkpt>
      <trkpt lat="43.43306" lon="6.04146">
        <ele>316.84716796875</ele>
        <time>2014-05-28T14:26:16Z</time>
      </trkpt>
      <trkpt lat="43.43306" lon="6.0415">
        <ele>316.84515380859</ele>
        <time>2014-05-28T14:26:17Z</time>
      </trkpt>
      <trkpt lat="43.43306" lon="6.04153">
        <ele>316.98779296875</ele>
        <time>2014-05-28T14:26:18Z</time>
      </trkpt>
      <trkpt lat="43.43306" lon="6.04168">
        <ele>316.83462524414</ele>
        <time>2014-05-28T14:26:22Z</time>
      </trkpt>
      <trkpt lat="43.43306" lon="6.04175">
        <ele>316.66864013672</ele>
        <time>2014-05-28T14:26:24Z</time>
      </trkpt>
      <trkpt lat="43.43308" lon="6.0419">
        <ele>315.9421081543</ele>
        <time>2014-05-28T14:26:29Z</time>
      </trkpt>
      <trkpt lat="43.43307" lon="6.04194">
        <ele>316.27059936523</ele>
        <time>2014-05-28T14:26:31Z</time>
      </trkpt>
      <trkpt lat="43.43306" lon="6.04196">
        <ele>316.58264160156</ele>
        <time>2014-05-28T14:26:36Z</time>
      </trkpt>
      <trkpt lat="43.43306" lon="6.04196">
        <ele>316.75036621094</ele>
        <time>2014-05-28T14:26:45Z</time>
      </trkpt>
      <trkpt lat="43.43306" lon="6.04196">
        <ele>316.75036621094</ele>
        <time>2014-05-28T14:27:14Z</time>
      </trkpt>
      <trkpt lat="43.43306" lon="6.04197">
        <ele>316.73178100586</ele>
        <time>2014-05-28T14:27:31Z</time>
      </trkpt>
      <trkpt lat="43.43306" lon="6.04197">
        <ele>316.73178100586</ele>
        <time>2014-05-28T14:27:46Z</time>
      </trkpt>
      <trkpt lat="43.43306" lon="6.04197">
        <ele>316.70980834961</ele>
        <time>2014-05-28T14:28:50Z</time>
      </trkpt>
      <trkpt lat="43.43306" lon="6.04197">
        <ele>316.53427124023</ele>
        <time>2014-05-28T14:29:30Z</time>
      </trkpt>
      <trkpt lat="43.43306" lon="6.04197">
        <ele>316.53427124023</ele>
        <time>2014-05-28T14:29:44Z</time>
      </trkpt>
      <trkpt lat="43.43306" lon="6.04198">
        <ele>316.51428222656</ele>
        <time>2014-05-28T14:29:48Z</time>
      </trkpt>
      <trkpt lat="43.43308" lon="6.04209">
        <ele>315.43060302734</ele>
        <time>2014-05-28T14:29:53Z</time>
      </trkpt>
      <trkpt lat="43.4331" lon="6.04217">
        <ele>314.33984375</ele>
        <time>2014-05-28T14:29:56Z</time>
      </trkpt>
      <trkpt lat="43.43311" lon="6.0422">
        <ele>313.7487487793</ele>
        <time>2014-05-28T14:29:57Z</time>
      </trkpt>
      <trkpt lat="43.43312" lon="6.04224">
        <ele>313.15762329102</ele>
        <time>2014-05-28T14:29:58Z</time>
      </trkpt>
      <trkpt lat="43.43312" lon="6.04227">
        <ele>312.93374633789</ele>
        <time>2014-05-28T14:29:59Z</time>
      </trkpt>
      <trkpt lat="43.43313" lon="6.04231">
        <ele>312.552734375</ele>
        <time>2014-05-28T14:30:00Z</time>
      </trkpt>
      <trkpt lat="43.43313" lon="6.04234">
        <ele>312.49578857422</ele>
        <time>2014-05-28T14:30:01Z</time>
      </trkpt>
      <trkpt lat="43.43314" lon="6.04239">
        <ele>312.27136230469</ele>
        <time>2014-05-28T14:30:02Z</time>
      </trkpt>
      <trkpt lat="43.43315" lon="6.04263">
        <ele>310.77923583984</ele>
        <time>2014-05-28T14:30:06Z</time>
      </trkpt>
      <trkpt lat="43.43316" lon="6.04266">
        <ele>310.2008972168</ele>
        <time>2014-05-28T14:30:07Z</time>
      </trkpt>
      <trkpt lat="43.43318" lon="6.0427">
        <ele>309.47750854492</ele>
        <time>2014-05-28T14:30:09Z</time>
      </trkpt>
      <trkpt lat="43.43318" lon="6.04271">
        <ele>309.26245117188</ele>
        <time>2014-05-28T14:30:10Z</time>
      </trkpt>
      <trkpt lat="43.43318" lon="6.04279">
        <ele>308.97698974609</ele>
        <time>2014-05-28T14:30:13Z</time>
      </trkpt>
      <trkpt lat="43.43318" lon="6.04283">
        <ele>308.7229309082</ele>
        <time>2014-05-28T14:30:14Z</time>
      </trkpt>
      <trkpt lat="43.43319" lon="6.04287">
        <ele>308.33666992188</ele>
        <time>2014-05-28T14:30:15Z</time>
      </trkpt>
      <trkpt lat="43.43319" lon="6.0429">
        <ele>308.09637451172</ele>
        <time>2014-05-28T14:30:16Z</time>
      </trkpt>
      <trkpt lat="43.4332" lon="6.04298">
        <ele>307.55389404297</ele>
        <time>2014-05-28T14:30:18Z</time>
      </trkpt>
      <trkpt lat="43.43321" lon="6.04321">
        <ele>306.47930908203</ele>
        <time>2014-05-28T14:30:23Z</time>
      </trkpt>
      <trkpt lat="43.43323" lon="6.04335">
        <ele>305.40393066406</ele>
        <time>2014-05-28T14:30:27Z</time>
      </trkpt>
      <trkpt lat="43.43323" lon="6.0435">
        <ele>305.0807800293</ele>
        <time>2014-05-28T14:30:31Z</time>
      </trkpt>
      <trkpt lat="43.43323" lon="6.04354">
        <ele>305.03665161133</ele>
        <time>2014-05-28T14:30:32Z</time>
      </trkpt>
      <trkpt lat="43.43324" lon="6.04357">
        <ele>304.7692565918</ele>
        <time>2014-05-28T14:30:33Z</time>
      </trkpt>
      <trkpt lat="43.43324" lon="6.04361">
        <ele>304.60974121094</ele>
        <time>2014-05-28T14:30:34Z</time>
      </trkpt>
      <trkpt lat="43.43326" lon="6.04368">
        <ele>303.57104492188</ele>
        <time>2014-05-28T14:30:36Z</time>
      </trkpt>
      <trkpt lat="43.43326" lon="6.04371">
        <ele>303.35473632812</ele>
        <time>2014-05-28T14:30:37Z</time>
      </trkpt>
      <trkpt lat="43.43327" lon="6.0438">
        <ele>302.39685058594</ele>
        <time>2014-05-28T14:30:39Z</time>
      </trkpt>
      <trkpt lat="43.43328" lon="6.04383">
        <ele>302.06384277344</ele>
        <time>2014-05-28T14:30:40Z</time>
      </trkpt>
      <trkpt lat="43.43327" lon="6.04386">
        <ele>301.96084594727</ele>
        <time>2014-05-28T14:30:41Z</time>
      </trkpt>
      <trkpt lat="43.43327" lon="6.04392">
        <ele>301.81497192383</ele>
        <time>2014-05-28T14:30:43Z</time>
      </trkpt>
      <trkpt lat="43.43327" lon="6.04399">
        <ele>301.64791870117</ele>
        <time>2014-05-28T14:30:45Z</time>
      </trkpt>
      <trkpt lat="43.43328" lon="6.04417">
        <ele>301.22299194336</ele>
        <time>2014-05-28T14:30:48Z</time>
      </trkpt>
      <trkpt lat="43.4333" lon="6.04436">
        <ele>300.67245483398</ele>
        <time>2014-05-28T14:30:51Z</time>
      </trkpt>
      <trkpt lat="43.4333" lon="6.04442">
        <ele>300.55206298828</ele>
        <time>2014-05-28T14:30:52Z</time>
      </trkpt>
      <trkpt lat="43.43331" lon="6.04447">
        <ele>300.19055175781</ele>
        <time>2014-05-28T14:30:53Z</time>
      </trkpt>
      <trkpt lat="43.43331" lon="6.04452">
        <ele>299.61663818359</ele>
        <time>2014-05-28T14:30:54Z</time>
      </trkpt>
      <trkpt lat="43.43332" lon="6.04456">
        <ele>298.9462890625</ele>
        <time>2014-05-28T14:30:55Z</time>
      </trkpt>
      <trkpt lat="43.43334" lon="6.04461">
        <ele>298.02160644531</ele>
        <time>2014-05-28T14:30:56Z</time>
      </trkpt>
      <trkpt lat="43.43335" lon="6.0447">
        <ele>296.57962036133</ele>
        <time>2014-05-28T14:30:58Z</time>
      </trkpt>
      <trkpt lat="43.43333" lon="6.04489">
        <ele>296.35940551758</ele>
        <time>2014-05-28T14:31:03Z</time>
      </trkpt>
      <trkpt lat="43.43333" lon="6.04497">
        <ele>296.07446289062</ele>
        <time>2014-05-28T14:31:08Z</time>
      </trkpt>
      <trkpt lat="43.43333" lon="6.04497">
        <ele>296.07446289062</ele>
        <time>2014-05-28T14:31:35Z</time>
      </trkpt>
      <trkpt lat="43.43333" lon="6.04497">
        <ele>296.07446289062</ele>
        <time>2014-05-28T14:32:19Z</time>
      </trkpt>
      <trkpt lat="43.43333" lon="6.04498">
        <ele>296.14337158203</ele>
        <time>2014-05-28T14:32:29Z</time>
      </trkpt>
      <trkpt lat="43.43333" lon="6.04498">
        <ele>296.14337158203</ele>
        <time>2014-05-28T14:32:50Z</time>
      </trkpt>
      <trkpt lat="43.43333" lon="6.04498">
        <ele>296.14337158203</ele>
        <time>2014-05-28T14:33:04Z</time>
      </trkpt>
      <trkpt lat="43.43333" lon="6.04501">
        <ele>296.10494995117</ele>
        <time>2014-05-28T14:33:12Z</time>
      </trkpt>
      <trkpt lat="43.43333" lon="6.04506">
        <ele>295.70126342773</ele>
        <time>2014-05-28T14:33:14Z</time>
      </trkpt>
      <trkpt lat="43.43332" lon="6.04517">
        <ele>295.01528930664</ele>
        <time>2014-05-28T14:33:18Z</time>
      </trkpt>
      <trkpt lat="43.43332" lon="6.04524">
        <ele>294.49984741211</ele>
        <time>2014-05-28T14:33:20Z</time>
      </trkpt>
      <trkpt lat="43.43333" lon="6.04526">
        <ele>294.16744995117</ele>
        <time>2014-05-28T14:33:21Z</time>
      </trkpt>
      <trkpt lat="43.43333" lon="6.04527">
        <ele>294.01266479492</ele>
        <time>2014-05-28T14:33:22Z</time>
      </trkpt>
      <trkpt lat="43.43333" lon="6.04527">
        <ele>294.01608276367</ele>
        <time>2014-05-28T14:33:23Z</time>
      </trkpt>
      <trkpt lat="43.43333" lon="6.04527">
        <ele>293.99554443359</ele>
        <time>2014-05-28T14:33:24Z</time>
      </trkpt>
      <trkpt lat="43.43334" lon="6.0453">
        <ele>293.68872070312</ele>
        <time>2014-05-28T14:33:28Z</time>
      </trkpt>
      <trkpt lat="43.43336" lon="6.04533">
        <ele>293.13940429688</ele>
        <time>2014-05-28T14:33:30Z</time>
      </trkpt>
      <trkpt lat="43.43339" lon="6.0454">
        <ele>292.04077148438</ele>
        <time>2014-05-28T14:33:33Z</time>
      </trkpt>
      <trkpt lat="43.4334" lon="6.04542">
        <ele>291.49145507812</ele>
        <time>2014-05-28T14:33:34Z</time>
      </trkpt>
      <trkpt lat="43.43343" lon="6.04546">
        <ele>290.66748046875</ele>
        <time>2014-05-28T14:33:35Z</time>
      </trkpt>
      <trkpt lat="43.43344" lon="6.04551">
        <ele>290.1181640625</ele>
        <time>2014-05-28T14:33:36Z</time>
      </trkpt>
      <trkpt lat="43.43345" lon="6.04556">
        <ele>289.84338378906</ele>
        <time>2014-05-28T14:33:37Z</time>
      </trkpt>
      <trkpt lat="43.43346" lon="6.04561">
        <ele>289.37646484375</ele>
        <time>2014-05-28T14:33:38Z</time>
      </trkpt>
      <trkpt lat="43.43346" lon="6.04572">
        <ele>288.83572387695</ele>
        <time>2014-05-28T14:33:40Z</time>
      </trkpt>
      <trkpt lat="43.43346" lon="6.04577">
        <ele>288.78079223633</ele>
        <time>2014-05-28T14:33:41Z</time>
      </trkpt>
      <trkpt lat="43.43345" lon="6.04582">
        <ele>288.74987792969</ele>
        <time>2014-05-28T14:33:42Z</time>
      </trkpt>
      <trkpt lat="43.43346" lon="6.04586">
        <ele>288.40563964844</ele>
        <time>2014-05-28T14:33:43Z</time>
      </trkpt>
      <trkpt lat="43.43348" lon="6.04597">
        <ele>286.75769042969</ele>
        <time>2014-05-28T14:33:46Z</time>
      </trkpt>
      <trkpt lat="43.43348" lon="6.04602">
        <ele>286.28048706055</ele>
        <time>2014-05-28T14:33:47Z</time>
      </trkpt>
      <trkpt lat="43.43349" lon="6.04606">
        <ele>285.53204345703</ele>
        <time>2014-05-28T14:33:48Z</time>
      </trkpt>
      <trkpt lat="43.43349" lon="6.04612">
        <ele>285.33288574219</ele>
        <time>2014-05-28T14:33:49Z</time>
      </trkpt>
      <trkpt lat="43.43349" lon="6.04622">
        <ele>285.19555664062</ele>
        <time>2014-05-28T14:33:51Z</time>
      </trkpt>
      <trkpt lat="43.4335" lon="6.04625">
        <ele>285.05822753906</ele>
        <time>2014-05-28T14:33:52Z</time>
      </trkpt>
      <trkpt lat="43.43349" lon="6.04629">
        <ele>285.19555664062</ele>
        <time>2014-05-28T14:33:53Z</time>
      </trkpt>
      <trkpt lat="43.4335" lon="6.04632">
        <ele>284.9208984375</ele>
        <time>2014-05-28T14:33:54Z</time>
      </trkpt>
      <trkpt lat="43.4335" lon="6.04636">
        <ele>284.9208984375</ele>
        <time>2014-05-28T14:33:55Z</time>
      </trkpt>
      <trkpt lat="43.4335" lon="6.04639">
        <ele>284.9208984375</ele>
        <time>2014-05-28T14:33:56Z</time>
      </trkpt>
      <trkpt lat="43.43349" lon="6.04641">
        <ele>285.02923583984</ele>
        <time>2014-05-28T14:33:57Z</time>
      </trkpt>
      <trkpt lat="43.43349" lon="6.04642">
        <ele>284.96740722656</ele>
        <time>2014-05-28T14:33:58Z</time>
      </trkpt>
      <trkpt lat="43.43349" lon="6.04642">
        <ele>284.96740722656</ele>
        <time>2014-05-28T14:34:00Z</time>
      </trkpt>
      <trkpt lat="43.43349" lon="6.04649">
        <ele>284.75799560547</ele>
        <time>2014-05-28T14:34:02Z</time>
      </trkpt>
      <trkpt lat="43.43348" lon="6.04653">
        <ele>284.59661865234</ele>
        <time>2014-05-28T14:34:03Z</time>
      </trkpt>
      <trkpt lat="43.43349" lon="6.04658">
        <ele>283.837890625</ele>
        <time>2014-05-28T14:34:04Z</time>
      </trkpt>
      <trkpt lat="43.43351" lon="6.04682">
        <ele>282.31982421875</ele>
        <time>2014-05-28T14:34:08Z</time>
      </trkpt>
      <trkpt lat="43.43352" lon="6.04686">
        <ele>282.00778198242</ele>
        <time>2014-05-28T14:34:09Z</time>
      </trkpt>
      <trkpt lat="43.43353" lon="6.0469">
        <ele>281.83221435547</ele>
        <time>2014-05-28T14:34:10Z</time>
      </trkpt>
      <trkpt lat="43.43353" lon="6.04695">
        <ele>281.62164306641</ele>
        <time>2014-05-28T14:34:11Z</time>
      </trkpt>
      <trkpt lat="43.43353" lon="6.04698">
        <ele>281.44128417969</ele>
        <time>2014-05-28T14:34:12Z</time>
      </trkpt>
      <trkpt lat="43.43354" lon="6.04704">
        <ele>280.66967773438</ele>
        <time>2014-05-28T14:34:14Z</time>
      </trkpt>
      <trkpt lat="43.43356" lon="6.04706">
        <ele>280.1921081543</ele>
        <time>2014-05-28T14:34:15Z</time>
      </trkpt>
      <trkpt lat="43.43354" lon="6.04715">
        <ele>280.17248535156</ele>
        <time>2014-05-28T14:34:17Z</time>
      </trkpt>
      <trkpt lat="43.43354" lon="6.04719">
        <ele>280.0725402832</ele>
        <time>2014-05-28T14:34:18Z</time>
      </trkpt>
      <trkpt lat="43.43357" lon="6.04735">
        <ele>278.54080200195</ele>
        <time>2014-05-28T14:34:23Z</time>
      </trkpt>
      <trkpt lat="43.43358" lon="6.04743">
        <ele>277.96572875977</ele>
        <time>2014-05-28T14:34:26Z</time>
      </trkpt>
      <trkpt lat="43.43358" lon="6.04746">
        <ele>277.87133789062</ele>
        <time>2014-05-28T14:34:29Z</time>
      </trkpt>
      <trkpt lat="43.43358" lon="6.04746">
        <ele>277.87991333008</ele>
        <time>2014-05-28T14:34:30Z</time>
      </trkpt>
      <trkpt lat="43.43359" lon="6.04748">
        <ele>277.61553955078</ele>
        <time>2014-05-28T14:34:38Z</time>
      </trkpt>
      <trkpt lat="43.4336" lon="6.04752">
        <ele>277.19012451172</ele>
        <time>2014-05-28T14:34:45Z</time>
      </trkpt>
      <trkpt lat="43.43359" lon="6.04761">
        <ele>277.06851196289</ele>
        <time>2014-05-28T14:34:50Z</time>
      </trkpt>
      <trkpt lat="43.43359" lon="6.04761">
        <ele>277.06689453125</ele>
        <time>2014-05-28T14:34:52Z</time>
      </trkpt>
      <trkpt lat="43.4336" lon="6.0476">
        <ele>276.89526367188</ele>
        <time>2014-05-28T14:34:54Z</time>
      </trkpt>
      <trkpt lat="43.43361" lon="6.04757">
        <ele>276.7229309082</ele>
        <time>2014-05-28T14:34:57Z</time>
      </trkpt>
      <trkpt lat="43.4336" lon="6.04753">
        <ele>277.15698242188</ele>
        <time>2014-05-28T14:35:01Z</time>
      </trkpt>
      <trkpt lat="43.4336" lon="6.04752">
        <ele>277.27722167969</ele>
        <time>2014-05-28T14:35:06Z</time>
      </trkpt>
      <trkpt lat="43.4336" lon="6.04752">
        <ele>277.27722167969</ele>
        <time>2014-05-28T14:35:07Z</time>
      </trkpt>
      <trkpt lat="43.43359" lon="6.04752">
        <ele>277.3742980957</ele>
        <time>2014-05-28T14:35:14Z</time>
      </trkpt>
      <trkpt lat="43.4336" lon="6.04752">
        <ele>277.27560424805</ele>
        <time>2014-05-28T14:35:20Z</time>
      </trkpt>
      <trkpt lat="43.43359" lon="6.04753">
        <ele>277.33728027344</ele>
        <time>2014-05-28T14:35:27Z</time>
      </trkpt>
      <trkpt lat="43.43359" lon="6.04759">
        <ele>277.22555541992</ele>
        <time>2014-05-28T14:35:31Z</time>
      </trkpt>
      <trkpt lat="43.43359" lon="6.0476">
        <ele>277.21286010742</ele>
        <time>2014-05-28T14:35:36Z</time>
      </trkpt>
      <trkpt lat="43.43359" lon="6.0476">
        <ele>277.21286010742</ele>
        <time>2014-05-28T14:35:37Z</time>
      </trkpt>
      <trkpt lat="43.4336" lon="6.04758">
        <ele>277.05841064453</ele>
        <time>2014-05-28T14:35:38Z</time>
      </trkpt>
      <trkpt lat="43.43361" lon="6.04757">
        <ele>276.88485717773</ele>
        <time>2014-05-28T14:35:42Z</time>
      </trkpt>
      <trkpt lat="43.43361" lon="6.04757">
        <ele>276.88485717773</ele>
        <time>2014-05-28T14:35:46Z</time>
      </trkpt>
      <trkpt lat="43.43361" lon="6.04754">
        <ele>276.85418701172</ele>
        <time>2014-05-28T14:35:48Z</time>
      </trkpt>
      <trkpt lat="43.43359" lon="6.04751">
        <ele>277.50939941406</ele>
        <time>2014-05-28T14:35:51Z</time>
      </trkpt>
      <trkpt lat="43.43359" lon="6.04753">
        <ele>277.53713989258</ele>
        <time>2014-05-28T14:35:55Z</time>
      </trkpt>
      <trkpt lat="43.43359" lon="6.04753">
        <ele>277.35015869141</ele>
        <time>2014-05-28T14:36:00Z</time>
      </trkpt>
      <trkpt lat="43.43358" lon="6.04755">
        <ele>277.54852294922</ele>
        <time>2014-05-28T14:36:07Z</time>
      </trkpt>
      <trkpt lat="43.43358" lon="6.04758">
        <ele>277.46081542969</ele>
        <time>2014-05-28T14:36:08Z</time>
      </trkpt>
      <trkpt lat="43.43359" lon="6.04765">
        <ele>277.02416992188</ele>
        <time>2014-05-28T14:36:11Z</time>
      </trkpt>
      <trkpt lat="43.4336" lon="6.04766">
        <ele>276.78408813477</ele>
        <time>2014-05-28T14:36:12Z</time>
      </trkpt>
      <trkpt lat="43.4336" lon="6.04773">
        <ele>276.54406738281</ele>
        <time>2014-05-28T14:36:15Z</time>
      </trkpt>
      <trkpt lat="43.43361" lon="6.0478">
        <ele>276.05987548828</ele>
        <time>2014-05-28T14:36:17Z</time>
      </trkpt>
      <trkpt lat="43.43363" lon="6.04794">
        <ele>275.81671142578</ele>
        <time>2014-05-28T14:36:21Z</time>
      </trkpt>
      <trkpt lat="43.43363" lon="6.04799">
        <ele>275.77551269531</ele>
        <time>2014-05-28T14:36:22Z</time>
      </trkpt>
      <trkpt lat="43.43364" lon="6.04804">
        <ele>275.73431396484</ele>
        <time>2014-05-28T14:36:23Z</time>
      </trkpt>
      <trkpt lat="43.43364" lon="6.04808">
        <ele>275.57775878906</ele>
        <time>2014-05-28T14:36:24Z</time>
      </trkpt>
      <trkpt lat="43.43365" lon="6.0481">
        <ele>275.36834716797</ele>
        <time>2014-05-28T14:36:25Z</time>
      </trkpt>
      <trkpt lat="43.43366" lon="6.04813">
        <ele>275.23443603516</ele>
        <time>2014-05-28T14:36:26Z</time>
      </trkpt>
      <trkpt lat="43.43365" lon="6.04812">
        <ele>275.28424072266</ele>
        <time>2014-05-28T14:36:29Z</time>
      </trkpt>
      <trkpt lat="43.43365" lon="6.04812">
        <ele>275.28424072266</ele>
        <time>2014-05-28T14:36:53Z</time>
      </trkpt>
      <trkpt lat="43.43365" lon="6.04812">
        <ele>275.28936767578</ele>
        <time>2014-05-28T14:37:23Z</time>
      </trkpt>
      <trkpt lat="43.43365" lon="6.04812">
        <ele>275.28936767578</ele>
        <time>2014-05-28T14:37:33Z</time>
      </trkpt>
      <trkpt lat="43.43366" lon="6.04813">
        <ele>275.21041870117</ele>
        <time>2014-05-28T14:37:40Z</time>
      </trkpt>
      <trkpt lat="43.43366" lon="6.04813">
        <ele>275.21041870117</ele>
        <time>2014-05-28T14:37:41Z</time>
      </trkpt>
      <trkpt lat="43.43366" lon="6.04816">
        <ele>275.107421875</ele>
        <time>2014-05-28T14:37:45Z</time>
      </trkpt>
      <trkpt lat="43.43364" lon="6.04835">
        <ele>274.69198608398</ele>
        <time>2014-05-28T14:37:52Z</time>
      </trkpt>
      <trkpt lat="43.43366" lon="6.04856">
        <ele>273.65515136719</ele>
        <time>2014-05-28T14:37:56Z</time>
      </trkpt>
      <trkpt lat="43.43363" lon="6.04866">
        <ele>273.60021972656</ele>
        <time>2014-05-28T14:37:58Z</time>
      </trkpt>
      <trkpt lat="43.43363" lon="6.04873">
        <ele>273.33416748047</ele>
        <time>2014-05-28T14:38:00Z</time>
      </trkpt>
      <trkpt lat="43.43365" lon="6.04884">
        <ele>272.80200195312</ele>
        <time>2014-05-28T14:38:04Z</time>
      </trkpt>
      <trkpt lat="43.43367" lon="6.04894">
        <ele>272.18572998047</ele>
        <time>2014-05-28T14:38:07Z</time>
      </trkpt>
      <trkpt lat="43.43372" lon="6.0492">
        <ele>270.64935302734</ele>
        <time>2014-05-28T14:38:13Z</time>
      </trkpt>
      <trkpt lat="43.43372" lon="6.04927">
        <ele>270.42279052734</ele>
        <time>2014-05-28T14:38:14Z</time>
      </trkpt>
      <trkpt lat="43.43373" lon="6.04933">
        <ele>270.08975219727</ele>
        <time>2014-05-28T14:38:15Z</time>
      </trkpt>
      <trkpt lat="43.43374" lon="6.04937">
        <ele>269.83911132812</ele>
        <time>2014-05-28T14:38:16Z</time>
      </trkpt>
      <trkpt lat="43.43376" lon="6.04941">
        <ele>269.53186035156</ele>
        <time>2014-05-28T14:38:17Z</time>
      </trkpt>
      <trkpt lat="43.43377" lon="6.04957">
        <ele>268.89669799805</ele>
        <time>2014-05-28T14:38:22Z</time>
      </trkpt>
      <trkpt lat="43.43377" lon="6.04959">
        <ele>268.76794433594</ele>
        <time>2014-05-28T14:38:24Z</time>
      </trkpt>
      <trkpt lat="43.43377" lon="6.04962">
        <ele>268.61346435547</ele>
        <time>2014-05-28T14:38:25Z</time>
      </trkpt>
      <trkpt lat="43.43379" lon="6.04968">
        <ele>268.1946105957</ele>
        <time>2014-05-28T14:38:27Z</time>
      </trkpt>
      <trkpt lat="43.4338" lon="6.04971">
        <ele>268.01263427734</ele>
        <time>2014-05-28T14:38:28Z</time>
      </trkpt>
      <trkpt lat="43.4338" lon="6.0498">
        <ele>267.64529418945</ele>
        <time>2014-05-28T14:38:31Z</time>
      </trkpt>
      <trkpt lat="43.43381" lon="6.04992">
        <ele>267.1526184082</ele>
        <time>2014-05-28T14:38:36Z</time>
      </trkpt>
      <trkpt lat="43.43383" lon="6.05004">
        <ele>266.49688720703</ele>
        <time>2014-05-28T14:38:40Z</time>
      </trkpt>
      <trkpt lat="43.43381" lon="6.05013">
        <ele>266.38873291016</ele>
        <time>2014-05-28T14:38:43Z</time>
      </trkpt>
      <trkpt lat="43.43381" lon="6.05015">
        <ele>266.34066772461</ele>
        <time>2014-05-28T14:38:44Z</time>
      </trkpt>
      <trkpt lat="43.43382" lon="6.0502">
        <ele>265.9921875</ele>
        <time>2014-05-28T14:38:46Z</time>
      </trkpt>
      <trkpt lat="43.43384" lon="6.05025">
        <ele>265.64886474609</ele>
        <time>2014-05-28T14:38:47Z</time>
      </trkpt>
      <trkpt lat="43.43386" lon="6.05044">
        <ele>264.68069458008</ele>
        <time>2014-05-28T14:38:51Z</time>
      </trkpt>
      <trkpt lat="43.43388" lon="6.05059">
        <ele>263.95629882812</ele>
        <time>2014-05-28T14:38:56Z</time>
      </trkpt>
      <trkpt lat="43.4339" lon="6.05076">
        <ele>263.18048095703</ele>
        <time>2014-05-28T14:39:03Z</time>
      </trkpt>
      <trkpt lat="43.43393" lon="6.0509">
        <ele>262.67095947266</ele>
        <time>2014-05-28T14:39:08Z</time>
      </trkpt>
      <trkpt lat="43.43393" lon="6.05103">
        <ele>262.5654296875</ele>
        <time>2014-05-28T14:39:13Z</time>
      </trkpt>
      <trkpt lat="43.43393" lon="6.05105">
        <ele>262.59301757812</ele>
        <time>2014-05-28T14:39:14Z</time>
      </trkpt>
      <trkpt lat="43.43393" lon="6.05111">
        <ele>262.52322387695</ele>
        <time>2014-05-28T14:39:18Z</time>
      </trkpt>
      <trkpt lat="43.43394" lon="6.05114">
        <ele>262.40692138672</ele>
        <time>2014-05-28T14:39:20Z</time>
      </trkpt>
      <trkpt lat="43.43393" lon="6.05117">
        <ele>262.41519165039</ele>
        <time>2014-05-28T14:39:23Z</time>
      </trkpt>
      <trkpt lat="43.43393" lon="6.05117">
        <ele>262.42263793945</ele>
        <time>2014-05-28T14:39:25Z</time>
      </trkpt>
      <trkpt lat="43.43393" lon="6.05117">
        <ele>262.42263793945</ele>
        <time>2014-05-28T14:39:36Z</time>
      </trkpt>
      <trkpt lat="43.43393" lon="6.05117">
        <ele>262.42263793945</ele>
        <time>2014-05-28T14:39:43Z</time>
      </trkpt>
      <trkpt lat="43.43394" lon="6.05117">
        <ele>262.30477905273</ele>
        <time>2014-05-28T14:39:49Z</time>
      </trkpt>
      <trkpt lat="43.43394" lon="6.05117">
        <ele>262.30618286133</ele>
        <time>2014-05-28T14:39:56Z</time>
      </trkpt>
      <trkpt lat="43.43394" lon="6.05117">
        <ele>262.30618286133</ele>
        <time>2014-05-28T14:40:24Z</time>
      </trkpt>
      <trkpt lat="43.43394" lon="6.05117">
        <ele>262.3076171875</ele>
        <time>2014-05-28T14:41:30Z</time>
      </trkpt>
      <trkpt lat="43.43394" lon="6.05117">
        <ele>262.30902099609</ele>
        <time>2014-05-28T14:42:45Z</time>
      </trkpt>
      <trkpt lat="43.43394" lon="6.05117">
        <ele>262.30902099609</ele>
        <time>2014-05-28T14:42:57Z</time>
      </trkpt>
      <trkpt lat="43.43393" lon="6.05117">
        <ele>262.3857421875</ele>
        <time>2014-05-28T14:43:09Z</time>
      </trkpt>
      <trkpt lat="43.43392" lon="6.05117">
        <ele>262.44583129883</ele>
        <time>2014-05-28T14:43:11Z</time>
      </trkpt>
      <trkpt lat="43.43391" lon="6.05123">
        <ele>262.33169555664</ele>
        <time>2014-05-28T14:43:14Z</time>
      </trkpt>
      <trkpt lat="43.43391" lon="6.05126">
        <ele>262.27505493164</ele>
        <time>2014-05-28T14:43:15Z</time>
      </trkpt>
      <trkpt lat="43.43385" lon="6.05139">
        <ele>262.26013183594</ele>
        <time>2014-05-28T14:43:19Z</time>
      </trkpt>
      <trkpt lat="43.43384" lon="6.05143">
        <ele>262.39703369141</ele>
        <time>2014-05-28T14:43:20Z</time>
      </trkpt>
      <trkpt lat="43.4338" lon="6.05153">
        <ele>262.81024169922</ele>
        <time>2014-05-28T14:43:22Z</time>
      </trkpt>
      <trkpt lat="43.43378" lon="6.05159">
        <ele>263.09860229492</ele>
        <time>2014-05-28T14:43:23Z</time>
      </trkpt>
      <trkpt lat="43.43376" lon="6.05165">
        <ele>263.34811401367</ele>
        <time>2014-05-28T14:43:24Z</time>
      </trkpt>
      <trkpt lat="43.43374" lon="6.05171">
        <ele>263.69934082031</ele>
        <time>2014-05-28T14:43:25Z</time>
      </trkpt>
      <trkpt lat="43.43356" lon="6.05221">
        <ele>266.73760986328</ele>
        <time>2014-05-28T14:43:32Z</time>
      </trkpt>
      <trkpt lat="43.43353" lon="6.05227">
        <ele>267.36074829102</ele>
        <time>2014-05-28T14:43:33Z</time>
      </trkpt>
      <trkpt lat="43.43351" lon="6.05235">
        <ele>267.85342407227</ele>
        <time>2014-05-28T14:43:34Z</time>
      </trkpt>
      <trkpt lat="43.43349" lon="6.05241">
        <ele>268.4267578125</ele>
        <time>2014-05-28T14:43:35Z</time>
      </trkpt>
      <trkpt lat="43.43344" lon="6.05255">
        <ele>269.20434570312</ele>
        <time>2014-05-28T14:43:37Z</time>
      </trkpt>
      <trkpt lat="43.43329" lon="6.05297">
        <ele>269.95275878906</ele>
        <time>2014-05-28T14:43:44Z</time>
      </trkpt>
      <trkpt lat="43.43325" lon="6.05313">
        <ele>269.86352539062</ele>
        <time>2014-05-28T14:43:47Z</time>
      </trkpt>
      <trkpt lat="43.43323" lon="6.05318">
        <ele>270.01800537109</ele>
        <time>2014-05-28T14:43:48Z</time>
      </trkpt>
      <trkpt lat="43.43315" lon="6.05334">
        <ele>270.61032104492</ele>
        <time>2014-05-28T14:43:51Z</time>
      </trkpt>
      <trkpt lat="43.43298" lon="6.0537">
        <ele>272.35745239258</ele>
        <time>2014-05-28T14:43:57Z</time>
      </trkpt>
      <trkpt lat="43.43293" lon="6.05375">
        <ele>272.62341308594</ele>
        <time>2014-05-28T14:43:58Z</time>
      </trkpt>
      <trkpt lat="43.43283" lon="6.05396">
        <ele>273.16665649414</ele>
        <time>2014-05-28T14:44:01Z</time>
      </trkpt>
      <trkpt lat="43.43281" lon="6.05403">
        <ele>273.10827636719</ele>
        <time>2014-05-28T14:44:02Z</time>
      </trkpt>
      <trkpt lat="43.43271" lon="6.0543">
        <ele>273.51303100586</ele>
        <time>2014-05-28T14:44:06Z</time>
      </trkpt>
      <trkpt lat="43.43265" lon="6.05447">
        <ele>273.82858276367</ele>
        <time>2014-05-28T14:44:09Z</time>
      </trkpt>
      <trkpt lat="43.43261" lon="6.05457">
        <ele>274.23907470703</ele>
        <time>2014-05-28T14:44:11Z</time>
      </trkpt>
      <trkpt lat="43.43255" lon="6.05475">
        <ele>274.97268676758</ele>
        <time>2014-05-28T14:44:15Z</time>
      </trkpt>
      <trkpt lat="43.43255" lon="6.05479">
        <ele>274.93789672852</ele>
        <time>2014-05-28T14:44:16Z</time>
      </trkpt>
      <trkpt lat="43.43255" lon="6.05483">
        <ele>274.81890869141</ele>
        <time>2014-05-28T14:44:17Z</time>
      </trkpt>
      <trkpt lat="43.43254" lon="6.05486">
        <ele>274.88903808594</ele>
        <time>2014-05-28T14:44:18Z</time>
      </trkpt>
      <trkpt lat="43.43249" lon="6.05501">
        <ele>275.13885498047</ele>
        <time>2014-05-28T14:44:22Z</time>
      </trkpt>
      <trkpt lat="43.43248" lon="6.05503">
        <ele>275.17974853516</ele>
        <time>2014-05-28T14:44:23Z</time>
      </trkpt>
      <trkpt lat="43.43248" lon="6.05506">
        <ele>275.22473144531</ele>
        <time>2014-05-28T14:44:24Z</time>
      </trkpt>
      <trkpt lat="43.43246" lon="6.0551">
        <ele>275.33367919922</ele>
        <time>2014-05-28T14:44:25Z</time>
      </trkpt>
      <trkpt lat="43.43244" lon="6.05516">
        <ele>275.59259033203</ele>
        <time>2014-05-28T14:44:27Z</time>
      </trkpt>
      <trkpt lat="43.43243" lon="6.05519">
        <ele>275.7336730957</ele>
        <time>2014-05-28T14:44:28Z</time>
      </trkpt>
      <trkpt lat="43.43241" lon="6.05527">
        <ele>275.94845581055</ele>
        <time>2014-05-28T14:44:30Z</time>
      </trkpt>
      <trkpt lat="43.4324" lon="6.0553">
        <ele>276.18865966797</ele>
        <time>2014-05-28T14:44:31Z</time>
      </trkpt>
      <trkpt lat="43.43235" lon="6.05546">
        <ele>276.93130493164</ele>
        <time>2014-05-28T14:44:35Z</time>
      </trkpt>
      <trkpt lat="43.4323" lon="6.05565">
        <ele>277.92956542969</ele>
        <time>2014-05-28T14:44:39Z</time>
      </trkpt>
      <trkpt lat="43.43227" lon="6.05598">
        <ele>278.80465698242</ele>
        <time>2014-05-28T14:44:45Z</time>
      </trkpt>
      <trkpt lat="43.43224" lon="6.05615">
        <ele>279.38070678711</ele>
        <time>2014-05-28T14:44:48Z</time>
      </trkpt>
      <trkpt lat="43.43222" lon="6.05631">
        <ele>280.025390625</ele>
        <time>2014-05-28T14:44:51Z</time>
      </trkpt>
      <trkpt lat="43.43221" lon="6.05637">
        <ele>280.13525390625</ele>
        <time>2014-05-28T14:44:52Z</time>
      </trkpt>
      <trkpt lat="43.43218" lon="6.05681">
        <ele>280.47222900391</ele>
        <time>2014-05-28T14:45:00Z</time>
      </trkpt>
      <trkpt lat="43.43215" lon="6.05708">
        <ele>280.80181884766</ele>
        <time>2014-05-28T14:45:05Z</time>
      </trkpt>
      <trkpt lat="43.43209" lon="6.05776">
        <ele>278.98040771484</ele>
        <time>2014-05-28T14:45:16Z</time>
      </trkpt>
      <trkpt lat="43.43204" lon="6.05815">
        <ele>278.97283935547</ele>
        <time>2014-05-28T14:45:22Z</time>
      </trkpt>
      <trkpt lat="43.432" lon="6.05843">
        <ele>278.68103027344</ele>
        <time>2014-05-28T14:45:26Z</time>
      </trkpt>
      <trkpt lat="43.43196" lon="6.05863">
        <ele>278.56085205078</ele>
        <time>2014-05-28T14:45:29Z</time>
      </trkpt>
      <trkpt lat="43.43195" lon="6.05869">
        <ele>278.53854370117</ele>
        <time>2014-05-28T14:45:30Z</time>
      </trkpt>
      <trkpt lat="43.43193" lon="6.05882">
        <ele>278.50250244141</ele>
        <time>2014-05-28T14:45:32Z</time>
      </trkpt>
      <trkpt lat="43.43189" lon="6.05899">
        <ele>278.55743408203</ele>
        <time>2014-05-28T14:45:35Z</time>
      </trkpt>
      <trkpt lat="43.43182" lon="6.05921">
        <ele>279.01577758789</ele>
        <time>2014-05-28T14:45:39Z</time>
      </trkpt>
      <trkpt lat="43.43177" lon="6.05936">
        <ele>279.50500488281</ele>
        <time>2014-05-28T14:45:42Z</time>
      </trkpt>
      <trkpt lat="43.43171" lon="6.05951">
        <ele>279.92385864258</ele>
        <time>2014-05-28T14:45:45Z</time>
      </trkpt>
      <trkpt lat="43.4317" lon="6.05961">
        <ele>279.76077270508</ele>
        <time>2014-05-28T14:45:47Z</time>
      </trkpt>
      <trkpt lat="43.43166" lon="6.05976">
        <ele>280.05676269531</ele>
        <time>2014-05-28T14:45:50Z</time>
      </trkpt>
      <trkpt lat="43.43159" lon="6.05997">
        <ele>281.29272460938</ele>
        <time>2014-05-28T14:45:54Z</time>
      </trkpt>
      <trkpt lat="43.43157" lon="6.06008">
        <ele>281.24938964844</ele>
        <time>2014-05-28T14:45:56Z</time>
      </trkpt>
      <trkpt lat="43.43151" lon="6.0605">
        <ele>281.44641113281</ele>
        <time>2014-05-28T14:46:04Z</time>
      </trkpt>
      <trkpt lat="43.43146" lon="6.06076">
        <ele>280.93899536133</ele>
        <time>2014-05-28T14:46:09Z</time>
      </trkpt>
      <trkpt lat="43.43144" lon="6.06087">
        <ele>280.60940551758</ele>
        <time>2014-05-28T14:46:11Z</time>
      </trkpt>
      <trkpt lat="43.43139" lon="6.06119">
        <ele>280.05172729492</ele>
        <time>2014-05-28T14:46:17Z</time>
      </trkpt>
      <trkpt lat="43.43132" lon="6.06152">
        <ele>279.7663269043</ele>
        <time>2014-05-28T14:46:22Z</time>
      </trkpt>
      <trkpt lat="43.43126" lon="6.06187">
        <ele>278.26794433594</ele>
        <time>2014-05-28T14:46:28Z</time>
      </trkpt>
      <trkpt lat="43.43126" lon="6.062">
        <ele>277.4970703125</ele>
        <time>2014-05-28T14:46:31Z</time>
      </trkpt>
      <trkpt lat="43.43126" lon="6.06204">
        <ele>277.26361083984</ele>
        <time>2014-05-28T14:46:32Z</time>
      </trkpt>
      <trkpt lat="43.43126" lon="6.06211">
        <ele>276.71087646484</ele>
        <time>2014-05-28T14:46:35Z</time>
      </trkpt>
      <trkpt lat="43.43125" lon="6.06219">
        <ele>276.25427246094</ele>
        <time>2014-05-28T14:46:39Z</time>
      </trkpt>
      <trkpt lat="43.43122" lon="6.06226">
        <ele>275.94262695312</ele>
        <time>2014-05-28T14:46:42Z</time>
      </trkpt>
      <trkpt lat="43.43118" lon="6.06237">
        <ele>275.37612915039</ele>
        <time>2014-05-28T14:46:48Z</time>
      </trkpt>
      <trkpt lat="43.43117" lon="6.0624">
        <ele>275.21649169922</ele>
        <time>2014-05-28T14:46:50Z</time>
      </trkpt>
      <trkpt lat="43.43115" lon="6.06242">
        <ele>275.2799987793</ele>
        <time>2014-05-28T14:46:52Z</time>
      </trkpt>
      <trkpt lat="43.43114" lon="6.06246">
        <ele>275.03796386719</ele>
        <time>2014-05-28T14:46:54Z</time>
      </trkpt>
      <trkpt lat="43.43112" lon="6.0625">
        <ele>274.84399414062</ele>
        <time>2014-05-28T14:46:59Z</time>
      </trkpt>
      <trkpt lat="43.43111" lon="6.06254">
        <ele>274.92651367188</ele>
        <time>2014-05-28T14:47:02Z</time>
      </trkpt>
      <trkpt lat="43.4311" lon="6.06263">
        <ele>274.74069213867</ele>
        <time>2014-05-28T14:47:05Z</time>
      </trkpt>
      <trkpt lat="43.4311" lon="6.06269">
        <ele>274.51849365234</ele>
        <time>2014-05-28T14:47:11Z</time>
      </trkpt>
      <trkpt lat="43.4311" lon="6.06269">
        <ele>274.51849365234</ele>
        <time>2014-05-28T14:47:27Z</time>
      </trkpt>
      <trkpt lat="43.4311" lon="6.06269">
        <ele>274.56341552734</ele>
        <time>2014-05-28T14:47:30Z</time>
      </trkpt>
      <trkpt lat="43.4311" lon="6.06266">
        <ele>274.67053222656</ele>
        <time>2014-05-28T14:47:36Z</time>
      </trkpt>
      <trkpt lat="43.4311" lon="6.06265">
        <ele>274.66006469727</ele>
        <time>2014-05-28T14:47:42Z</time>
      </trkpt>
      <trkpt lat="43.4311" lon="6.06262">
        <ele>274.84844970703</ele>
        <time>2014-05-28T14:47:47Z</time>
      </trkpt>
      <trkpt lat="43.43112" lon="6.06253">
        <ele>274.74270629883</ele>
        <time>2014-05-28T14:47:52Z</time>
      </trkpt>
      <trkpt lat="43.43117" lon="6.06248">
        <ele>274.38394165039</ele>
        <time>2014-05-28T14:47:57Z</time>
      </trkpt>
      <trkpt lat="43.43121" lon="6.06242">
        <ele>274.44229125977</ele>
        <time>2014-05-28T14:48:00Z</time>
      </trkpt>
      <trkpt lat="43.43123" lon="6.06242">
        <ele>274.22430419922</ele>
        <time>2014-05-28T14:48:01Z</time>
      </trkpt>
      <trkpt lat="43.43126" lon="6.06254">
        <ele>272.77719116211</ele>
        <time>2014-05-28T14:48:04Z</time>
      </trkpt>
      <trkpt lat="43.43126" lon="6.0626">
        <ele>272.57635498047</ele>
        <time>2014-05-28T14:48:05Z</time>
      </trkpt>
      <trkpt lat="43.43126" lon="6.06272">
        <ele>272.02359008789</ele>
        <time>2014-05-28T14:48:07Z</time>
      </trkpt>
      <trkpt lat="43.43129" lon="6.06294">
        <ele>270.01223754883</ele>
        <time>2014-05-28T14:48:11Z</time>
      </trkpt>
      <trkpt lat="43.43129" lon="6.06312">
        <ele>268.69952392578</ele>
        <time>2014-05-28T14:48:15Z</time>
      </trkpt>
      <trkpt lat="43.43134" lon="6.06362">
        <ele>267.7297668457</ele>
        <time>2014-05-28T14:48:23Z</time>
      </trkpt>
      <trkpt lat="43.43135" lon="6.06378">
        <ele>268.15548706055</ele>
        <time>2014-05-28T14:48:25Z</time>
      </trkpt>
      <trkpt lat="43.43135" lon="6.06386">
        <ele>268.44729614258</ele>
        <time>2014-05-28T14:48:26Z</time>
      </trkpt>
      <trkpt lat="43.43135" lon="6.06394">
        <ele>268.68075561523</ele>
        <time>2014-05-28T14:48:27Z</time>
      </trkpt>
      <trkpt lat="43.43136" lon="6.06402">
        <ele>268.84899902344</ele>
        <time>2014-05-28T14:48:28Z</time>
      </trkpt>
      <trkpt lat="43.43137" lon="6.0641">
        <ele>269.02066040039</ele>
        <time>2014-05-28T14:48:29Z</time>
      </trkpt>
      <trkpt lat="43.43142" lon="6.0645">
        <ele>269.59582519531</ele>
        <time>2014-05-28T14:48:34Z</time>
      </trkpt>
      <trkpt lat="43.43143" lon="6.06458">
        <ele>269.66793823242</ele>
        <time>2014-05-28T14:48:35Z</time>
      </trkpt>
      <trkpt lat="43.43144" lon="6.06465">
        <ele>269.77093505859</ele>
        <time>2014-05-28T14:48:36Z</time>
      </trkpt>
      <trkpt lat="43.43145" lon="6.06471">
        <ele>269.84301757812</ele>
        <time>2014-05-28T14:48:37Z</time>
      </trkpt>
      <trkpt lat="43.43146" lon="6.06476">
        <ele>269.90484619141</ele>
        <time>2014-05-28T14:48:38Z</time>
      </trkpt>
      <trkpt lat="43.43146" lon="6.06481">
        <ele>270.07821655273</ele>
        <time>2014-05-28T14:48:39Z</time>
      </trkpt>
      <trkpt lat="43.4314" lon="6.06487">
        <ele>271.31072998047</ele>
        <time>2014-05-28T14:48:43Z</time>
      </trkpt>
      <trkpt lat="43.43136" lon="6.06486">
        <ele>271.76712036133</ele>
        <time>2014-05-28T14:48:46Z</time>
      </trkpt>
      <trkpt lat="43.43135" lon="6.06486">
        <ele>271.85467529297</ele>
        <time>2014-05-28T14:48:47Z</time>
      </trkpt>
      <trkpt lat="43.43132" lon="6.06486">
        <ele>272.20483398438</ele>
        <time>2014-05-28T14:48:49Z</time>
      </trkpt>
      <trkpt lat="43.43127" lon="6.06487">
        <ele>272.75588989258</ele>
        <time>2014-05-28T14:48:52Z</time>
      </trkpt>
      <trkpt lat="43.43124" lon="6.06487">
        <ele>273.16787719727</ele>
        <time>2014-05-28T14:48:54Z</time>
      </trkpt>
      <trkpt lat="43.43122" lon="6.06486">
        <ele>273.36529541016</ele>
        <time>2014-05-28T14:48:55Z</time>
      </trkpt>
      <trkpt lat="43.43119" lon="6.06486">
        <ele>273.66397094727</ele>
        <time>2014-05-28T14:48:57Z</time>
      </trkpt>
      <trkpt lat="43.43115" lon="6.06485">
        <ele>274.04504394531</ele>
        <time>2014-05-28T14:49:00Z</time>
      </trkpt>
      <trkpt lat="43.43113" lon="6.06483">
        <ele>274.19097900391</ele>
        <time>2014-05-28T14:49:02Z</time>
      </trkpt>
      <trkpt lat="43.43112" lon="6.0648">
        <ele>274.19097900391</ele>
        <time>2014-05-28T14:49:04Z</time>
      </trkpt>
      <trkpt lat="43.4311" lon="6.06475">
        <ele>274.32946777344</ele>
        <time>2014-05-28T14:49:07Z</time>
      </trkpt>
      <trkpt lat="43.43108" lon="6.0647">
        <ele>274.31558227539</ele>
        <time>2014-05-28T14:49:10Z</time>
      </trkpt>
      <trkpt lat="43.43107" lon="6.06467">
        <ele>274.39102172852</ele>
        <time>2014-05-28T14:49:12Z</time>
      </trkpt>
      <trkpt lat="43.43106" lon="6.0646">
        <ele>274.30044555664</ele>
        <time>2014-05-28T14:49:16Z</time>
      </trkpt>
      <trkpt lat="43.43105" lon="6.06457">
        <ele>274.38977050781</ele>
        <time>2014-05-28T14:49:18Z</time>
      </trkpt>
      <trkpt lat="43.43105" lon="6.06454">
        <ele>274.37368774414</ele>
        <time>2014-05-28T14:49:20Z</time>
      </trkpt>
      <trkpt lat="43.43104" lon="6.0645">
        <ele>274.39743041992</ele>
        <time>2014-05-28T14:49:23Z</time>
      </trkpt>
      <trkpt lat="43.43102" lon="6.06448">
        <ele>274.67337036133</ele>
        <time>2014-05-28T14:49:25Z</time>
      </trkpt>
      <trkpt lat="43.43092" lon="6.06429">
        <ele>276.37768554688</ele>
        <time>2014-05-28T14:49:36Z</time>
      </trkpt>
      <trkpt lat="43.43091" lon="6.06425">
        <ele>276.65234375</ele>
        <time>2014-05-28T14:49:38Z</time>
      </trkpt>
      <trkpt lat="43.43086" lon="6.06404">
        <ele>277.00381469727</ele>
        <time>2014-05-28T14:49:47Z</time>
      </trkpt>
      <trkpt lat="43.43082" lon="6.06381">
        <ele>276.80560302734</ele>
        <time>2014-05-28T14:49:54Z</time>
      </trkpt>
      <trkpt lat="43.4308" lon="6.06376">
        <ele>276.6930847168</ele>
        <time>2014-05-28T14:49:56Z</time>
      </trkpt>
      <trkpt lat="43.43079" lon="6.06372">
        <ele>276.63061523438</ele>
        <time>2014-05-28T14:49:57Z</time>
      </trkpt>
      <trkpt lat="43.43078" lon="6.06369">
        <ele>276.60531616211</ele>
        <time>2014-05-28T14:49:58Z</time>
      </trkpt>
      <trkpt lat="43.43069" lon="6.06357">
        <ele>276.91290283203</ele>
        <time>2014-05-28T14:50:03Z</time>
      </trkpt>
      <trkpt lat="43.43059" lon="6.06353">
        <ele>277.46392822266</ele>
        <time>2014-05-28T14:50:07Z</time>
      </trkpt>
      <trkpt lat="43.43037" lon="6.0634">
        <ele>277.25128173828</ele>
        <time>2014-05-28T14:50:18Z</time>
      </trkpt>
      <trkpt lat="43.43032" lon="6.06327">
        <ele>277</ele>
        <time>2014-05-28T14:50:23Z</time>
      </trkpt>
      <trkpt lat="43.43026" lon="6.06316">
        <ele>277.06506347656</ele>
        <time>2014-05-28T14:50:28Z</time>
      </trkpt>
      <trkpt lat="43.43016" lon="6.06313">
        <ele>277.40838623047</ele>
        <time>2014-05-28T14:50:33Z</time>
      </trkpt>
      <trkpt lat="43.43014" lon="6.06313">
        <ele>277.49078369141</ele>
        <time>2014-05-28T14:50:34Z</time>
      </trkpt>
      <trkpt lat="43.43" lon="6.06313">
        <ele>277.98516845703</ele>
        <time>2014-05-28T14:50:40Z</time>
      </trkpt>
      <trkpt lat="43.42992" lon="6.06313">
        <ele>278</ele>
        <time>2014-05-28T14:50:44Z</time>
      </trkpt>
      <trkpt lat="43.4298" lon="6.06307">
        <ele>278</ele>
        <time>2014-05-28T14:50:50Z</time>
      </trkpt>
      <trkpt lat="43.42975" lon="6.06304">
        <ele>278.08612060547</ele>
        <time>2014-05-28T14:50:53Z</time>
      </trkpt>
      <trkpt lat="43.42972" lon="6.06305">
        <ele>278.01885986328</ele>
        <time>2014-05-28T14:50:55Z</time>
      </trkpt>
      <trkpt lat="43.42966" lon="6.06309">
        <ele>278.24502563477</ele>
        <time>2014-05-28T14:50:58Z</time>
      </trkpt>
      <trkpt lat="43.42953" lon="6.06298">
        <ele>279.05227661133</ele>
        <time>2014-05-28T14:51:06Z</time>
      </trkpt>
      <trkpt lat="43.4295" lon="6.0629">
        <ele>279.46667480469</ele>
        <time>2014-05-28T14:51:09Z</time>
      </trkpt>
      <trkpt lat="43.42946" lon="6.06284">
        <ele>279.77435302734</ele>
        <time>2014-05-28T14:51:12Z</time>
      </trkpt>
      <trkpt lat="43.42945" lon="6.06282">
        <ele>279.8310546875</ele>
        <time>2014-05-28T14:51:13Z</time>
      </trkpt>
      <trkpt lat="43.42943" lon="6.06282">
        <ele>280.11911010742</ele>
        <time>2014-05-28T14:51:14Z</time>
      </trkpt>
      <trkpt lat="43.42941" lon="6.06281">
        <ele>280.71722412109</ele>
        <time>2014-05-28T14:51:16Z</time>
      </trkpt>
      <trkpt lat="43.42939" lon="6.06282">
        <ele>281.07983398438</ele>
        <time>2014-05-28T14:51:17Z</time>
      </trkpt>
      <trkpt lat="43.42936" lon="6.06285">
        <ele>281.4133605957</ele>
        <time>2014-05-28T14:51:19Z</time>
      </trkpt>
      <trkpt lat="43.42933" lon="6.06288">
        <ele>282.04162597656</ele>
        <time>2014-05-28T14:51:22Z</time>
      </trkpt>
      <trkpt lat="43.42931" lon="6.06288">
        <ele>282.26327514648</ele>
        <time>2014-05-28T14:51:23Z</time>
      </trkpt>
      <trkpt lat="43.42931" lon="6.06289">
        <ele>282.24813842773</ele>
        <time>2014-05-28T14:51:24Z</time>
      </trkpt>
      <trkpt lat="43.42931" lon="6.06289">
        <ele>282.30731201172</ele>
        <time>2014-05-28T14:51:25Z</time>
      </trkpt>
      <trkpt lat="43.42931" lon="6.06289">
        <ele>282.30731201172</ele>
        <time>2014-05-28T14:51:34Z</time>
      </trkpt>
      <trkpt lat="43.42931" lon="6.06289">
        <ele>282.30731201172</ele>
        <time>2014-05-28T14:51:38Z</time>
      </trkpt>
      <trkpt lat="43.42929" lon="6.06289">
        <ele>282.60412597656</ele>
        <time>2014-05-28T14:51:39Z</time>
      </trkpt>
      <trkpt lat="43.42928" lon="6.06289">
        <ele>282.82894897461</ele>
        <time>2014-05-28T14:51:45Z</time>
      </trkpt>
      <trkpt lat="43.42928" lon="6.06289">
        <ele>282.82894897461</ele>
        <time>2014-05-28T14:52:02Z</time>
      </trkpt>
      <trkpt lat="43.42928" lon="6.06289">
        <ele>282.82894897461</ele>
        <time>2014-05-28T14:52:13Z</time>
      </trkpt>
      <trkpt lat="43.42923" lon="6.06288">
        <ele>284.08074951172</ele>
        <time>2014-05-28T14:52:20Z</time>
      </trkpt>
      <trkpt lat="43.42923" lon="6.06289">
        <ele>284.0285949707</ele>
        <time>2014-05-28T14:52:24Z</time>
      </trkpt>
      <trkpt lat="43.42923" lon="6.06289">
        <ele>284.0285949707</ele>
        <time>2014-05-28T14:52:36Z</time>
      </trkpt>
      <trkpt lat="43.42923" lon="6.06289">
        <ele>284.0285949707</ele>
        <time>2014-05-28T14:52:54Z</time>
      </trkpt>
      <trkpt lat="43.42922" lon="6.0629">
        <ele>284.0768737793</ele>
        <time>2014-05-28T14:52:58Z</time>
      </trkpt>
      <trkpt lat="43.42921" lon="6.06294">
        <ele>283.89587402344</ele>
        <time>2014-05-28T14:53:00Z</time>
      </trkpt>
      <trkpt lat="43.42916" lon="6.06303">
        <ele>284.22631835938</ele>
        <time>2014-05-28T14:53:04Z</time>
      </trkpt>
      <trkpt lat="43.42915" lon="6.06305">
        <ele>284.32583618164</ele>
        <time>2014-05-28T14:53:05Z</time>
      </trkpt>
      <trkpt lat="43.42914" lon="6.06306">
        <ele>284.47152709961</ele>
        <time>2014-05-28T14:53:06Z</time>
      </trkpt>
      <trkpt lat="43.42913" lon="6.06308">
        <ele>284.76678466797</ele>
        <time>2014-05-28T14:53:07Z</time>
      </trkpt>
      <trkpt lat="43.42913" lon="6.06308">
        <ele>284.8835144043</ele>
        <time>2014-05-28T14:53:08Z</time>
      </trkpt>
      <trkpt lat="43.42913" lon="6.06308">
        <ele>284.8835144043</ele>
        <time>2014-05-28T14:53:13Z</time>
      </trkpt>
      <trkpt lat="43.42912" lon="6.06309">
        <ele>284.94873046875</ele>
        <time>2014-05-28T14:53:21Z</time>
      </trkpt>
      <trkpt lat="43.42912" lon="6.0631">
        <ele>285.1598815918</ele>
        <time>2014-05-28T14:53:28Z</time>
      </trkpt>
      <trkpt lat="43.42913" lon="6.06311">
        <ele>285.18734741211</ele>
        <time>2014-05-28T14:53:34Z</time>
      </trkpt>
      <trkpt lat="43.42912" lon="6.06311">
        <ele>285.30236816406</ele>
        <time>2014-05-28T14:53:41Z</time>
      </trkpt>
      <trkpt lat="43.42912" lon="6.06312">
        <ele>285.40362548828</ele>
        <time>2014-05-28T14:53:49Z</time>
      </trkpt>
      <trkpt lat="43.4291" lon="6.06313">
        <ele>285.76583862305</ele>
        <time>2014-05-28T14:53:55Z</time>
      </trkpt>
      <trkpt lat="43.42909" lon="6.06313">
        <ele>285.91174316406</ele>
        <time>2014-05-28T14:53:58Z</time>
      </trkpt>
      <trkpt lat="43.42909" lon="6.06314">
        <ele>285.994140625</ele>
        <time>2014-05-28T14:54:00Z</time>
      </trkpt>
      <trkpt lat="43.42909" lon="6.06314">
        <ele>286.01989746094</ele>
        <time>2014-05-28T14:54:08Z</time>
      </trkpt>
      <trkpt lat="43.42909" lon="6.06314">
        <ele>286.01989746094</ele>
        <time>2014-05-28T14:54:16Z</time>
      </trkpt>
      <trkpt lat="43.42909" lon="6.06314">
        <ele>286.01989746094</ele>
        <time>2014-05-28T14:55:29Z</time>
      </trkpt>
      <trkpt lat="43.42909" lon="6.06314">
        <ele>286.02505493164</ele>
        <time>2014-05-28T14:55:54Z</time>
      </trkpt>
      <trkpt lat="43.42909" lon="6.06314">
        <ele>286.02505493164</ele>
        <time>2014-05-28T14:56:09Z</time>
      </trkpt>
      <trkpt lat="43.42907" lon="6.06315">
        <ele>286.45935058594</ele>
        <time>2014-05-28T14:56:16Z</time>
      </trkpt>
      <trkpt lat="43.42906" lon="6.06316">
        <ele>286.66534423828</ele>
        <time>2014-05-28T14:56:24Z</time>
      </trkpt>
      <trkpt lat="43.42906" lon="6.06316">
        <ele>286.66534423828</ele>
        <time>2014-05-28T14:56:37Z</time>
      </trkpt>
      <trkpt lat="43.42906" lon="6.06316">
        <ele>286.70141601562</ele>
        <time>2014-05-28T14:56:45Z</time>
      </trkpt>
      <trkpt lat="43.42905" lon="6.06317">
        <ele>286.81298828125</ele>
        <time>2014-05-28T14:56:46Z</time>
      </trkpt>
      <trkpt lat="43.42905" lon="6.06317">
        <ele>286.83874511719</ele>
        <time>2014-05-28T14:56:54Z</time>
      </trkpt>
      <trkpt lat="43.42905" lon="6.06317">
        <ele>286.88851928711</ele>
        <time>2014-05-28T14:56:55Z</time>
      </trkpt>
      <trkpt lat="43.429" lon="6.06318">
        <ele>287.63525390625</ele>
        <time>2014-05-28T14:56:59Z</time>
      </trkpt>
      <trkpt lat="43.42896" lon="6.06318">
        <ele>288.28070068359</ele>
        <time>2014-05-28T14:57:02Z</time>
      </trkpt>
      <trkpt lat="43.42891" lon="6.06319">
        <ele>289.12182617188</ele>
        <time>2014-05-28T14:57:05Z</time>
      </trkpt>
      <trkpt lat="43.42882" lon="6.06319">
        <ele>290.74911499023</ele>
        <time>2014-05-28T14:57:10Z</time>
      </trkpt>
      <trkpt lat="43.42877" lon="6.06318">
        <ele>291.58773803711</ele>
        <time>2014-05-28T14:57:13Z</time>
      </trkpt>
      <trkpt lat="43.42868" lon="6.06315">
        <ele>293.09790039062</ele>
        <time>2014-05-28T14:57:18Z</time>
      </trkpt>
      <trkpt lat="43.42857" lon="6.06312">
        <ele>294.83822631836</ele>
        <time>2014-05-28T14:57:23Z</time>
      </trkpt>
      <trkpt lat="43.42847" lon="6.06318">
        <ele>296.13327026367</ele>
        <time>2014-05-28T14:57:28Z</time>
      </trkpt>
      <trkpt lat="43.42836" lon="6.06328">
        <ele>296.36944580078</ele>
        <time>2014-05-28T14:57:34Z</time>
      </trkpt>
      <trkpt lat="43.42822" lon="6.06341">
        <ele>296.57803344727</ele>
        <time>2014-05-28T14:57:41Z</time>
      </trkpt>
      <trkpt lat="43.42814" lon="6.06345">
        <ele>296.82250976562</ele>
        <time>2014-05-28T14:57:43Z</time>
      </trkpt>
      <trkpt lat="43.42805" lon="6.06346">
        <ele>297.01611328125</ele>
        <time>2014-05-28T14:57:45Z</time>
      </trkpt>
      <trkpt lat="43.42799" lon="6.06346">
        <ele>297.12338256836</ele>
        <time>2014-05-28T14:57:46Z</time>
      </trkpt>
      <trkpt lat="43.42795" lon="6.06345">
        <ele>297.22344970703</ele>
        <time>2014-05-28T14:57:47Z</time>
      </trkpt>
      <trkpt lat="43.4279" lon="6.06344">
        <ele>297.34881591797</ele>
        <time>2014-05-28T14:57:48Z</time>
      </trkpt>
      <trkpt lat="43.42785" lon="6.06343">
        <ele>297.49728393555</ele>
        <time>2014-05-28T14:57:49Z</time>
      </trkpt>
      <trkpt lat="43.42779" lon="6.06341">
        <ele>297.68374633789</ele>
        <time>2014-05-28T14:57:50Z</time>
      </trkpt>
      <trkpt lat="43.42767" lon="6.06337">
        <ele>298.26718139648</ele>
        <time>2014-05-28T14:57:52Z</time>
      </trkpt>
      <trkpt lat="43.4276" lon="6.06336">
        <ele>298.51266479492</ele>
        <time>2014-05-28T14:57:53Z</time>
      </trkpt>
      <trkpt lat="43.42754" lon="6.06337">
        <ele>298.74612426758</ele>
        <time>2014-05-28T14:57:54Z</time>
      </trkpt>
      <trkpt lat="43.42747" lon="6.06339">
        <ele>298.77484130859</ele>
        <time>2014-05-28T14:57:55Z</time>
      </trkpt>
      <trkpt lat="43.42739" lon="6.06342">
        <ele>298.58325195312</ele>
        <time>2014-05-28T14:57:56Z</time>
      </trkpt>
      <trkpt lat="43.42732" lon="6.06344">
        <ele>298.36044311523</ele>
        <time>2014-05-28T14:57:57Z</time>
      </trkpt>
      <trkpt lat="43.42725" lon="6.06346">
        <ele>298.12438964844</ele>
        <time>2014-05-28T14:57:58Z</time>
      </trkpt>
      <trkpt lat="43.42719" lon="6.06348">
        <ele>297.36093139648</ele>
        <time>2014-05-28T14:57:59Z</time>
      </trkpt>
      <trkpt lat="43.42712" lon="6.06348">
        <ele>296.21975708008</ele>
        <time>2014-05-28T14:58:00Z</time>
      </trkpt>
      <trkpt lat="43.42702" lon="6.06348">
        <ele>294.60314941406</ele>
        <time>2014-05-28T14:58:02Z</time>
      </trkpt>
      <trkpt lat="43.42698" lon="6.06347">
        <ele>294.107421875</ele>
        <time>2014-05-28T14:58:03Z</time>
      </trkpt>
      <trkpt lat="43.42696" lon="6.06347">
        <ele>293.71493530273</ele>
        <time>2014-05-28T14:58:04Z</time>
      </trkpt>
      <trkpt lat="43.42693" lon="6.06346">
        <ele>293.27087402344</ele>
        <time>2014-05-28T14:58:05Z</time>
      </trkpt>
      <trkpt lat="43.42691" lon="6.06346">
        <ele>292.798828125</ele>
        <time>2014-05-28T14:58:06Z</time>
      </trkpt>
      <trkpt lat="43.42688" lon="6.06343">
        <ele>292.07269287109</ele>
        <time>2014-05-28T14:58:08Z</time>
      </trkpt>
      <trkpt lat="43.42682" lon="6.06337">
        <ele>291.0530090332</ele>
        <time>2014-05-28T14:58:12Z</time>
      </trkpt>
      <trkpt lat="43.42678" lon="6.06333">
        <ele>290.3532409668</ele>
        <time>2014-05-28T14:58:18Z</time>
      </trkpt>
      <trkpt lat="43.42678" lon="6.06333">
        <ele>290.3532409668</ele>
        <time>2014-05-28T14:58:28Z</time>
      </trkpt>
      <trkpt lat="43.42674" lon="6.06327">
        <ele>290.17282104492</ele>
        <time>2014-05-28T14:58:33Z</time>
      </trkpt>
      <trkpt lat="43.42667" lon="6.06323">
        <ele>288.90563964844</ele>
        <time>2014-05-28T14:58:35Z</time>
      </trkpt>
      <trkpt lat="43.42657" lon="6.06323">
        <ele>286.63760375977</ele>
        <time>2014-05-28T14:58:37Z</time>
      </trkpt>
      <trkpt lat="43.42647" lon="6.06322">
        <ele>284.24392700195</ele>
        <time>2014-05-28T14:58:39Z</time>
      </trkpt>
      <trkpt lat="43.42641" lon="6.06322">
        <ele>283.14630126953</ele>
        <time>2014-05-28T14:58:40Z</time>
      </trkpt>
      <trkpt lat="43.42636" lon="6.06321">
        <ele>282.48962402344</ele>
        <time>2014-05-28T14:58:41Z</time>
      </trkpt>
      <trkpt lat="43.42631" lon="6.0632">
        <ele>282.44338989258</ele>
        <time>2014-05-28T14:58:42Z</time>
      </trkpt>
      <trkpt lat="43.42627" lon="6.06318">
        <ele>282.5862121582</ele>
        <time>2014-05-28T14:58:43Z</time>
      </trkpt>
      <trkpt lat="43.42612" lon="6.06311">
        <ele>282.5078125</ele>
        <time>2014-05-28T14:58:46Z</time>
      </trkpt>
      <trkpt lat="43.42603" lon="6.06309">
        <ele>282.58331298828</ele>
        <time>2014-05-28T14:58:48Z</time>
      </trkpt>
      <trkpt lat="43.42595" lon="6.06313">
        <ele>282.21252441406</ele>
        <time>2014-05-28T14:58:50Z</time>
      </trkpt>
      <trkpt lat="43.4259" lon="6.06316">
        <ele>281.91897583008</ele>
        <time>2014-05-28T14:58:51Z</time>
      </trkpt>
      <trkpt lat="43.42577" lon="6.06328">
        <ele>281.01422119141</ele>
        <time>2014-05-28T14:58:54Z</time>
      </trkpt>
      <trkpt lat="43.42568" lon="6.06337">
        <ele>280.49084472656</ele>
        <time>2014-05-28T14:58:56Z</time>
      </trkpt>
      <trkpt lat="43.42553" lon="6.06349">
        <ele>280.58071899414</ele>
        <time>2014-05-28T14:58:59Z</time>
      </trkpt>
      <trkpt lat="43.42548" lon="6.06353">
        <ele>280.64852905273</ele>
        <time>2014-05-28T14:59:00Z</time>
      </trkpt>
      <trkpt lat="43.4253" lon="6.06363">
        <ele>280</ele>
        <time>2014-05-28T14:59:03Z</time>
      </trkpt>
      <trkpt lat="43.42519" lon="6.06367">
        <ele>280.52737426758</ele>
        <time>2014-05-28T14:59:05Z</time>
      </trkpt>
      <trkpt lat="43.42512" lon="6.06368">
        <ele>280.83874511719</ele>
        <time>2014-05-28T14:59:06Z</time>
      </trkpt>
      <trkpt lat="43.42492" lon="6.06376">
        <ele>281.17782592773</ele>
        <time>2014-05-28T14:59:09Z</time>
      </trkpt>
      <trkpt lat="43.42485" lon="6.06378">
        <ele>281.19738769531</ele>
        <time>2014-05-28T14:59:10Z</time>
      </trkpt>
      <trkpt lat="43.42478" lon="6.06379">
        <ele>281.32632446289</ele>
        <time>2014-05-28T14:59:11Z</time>
      </trkpt>
      <trkpt lat="43.42471" lon="6.06379">
        <ele>281.48254394531</ele>
        <time>2014-05-28T14:59:12Z</time>
      </trkpt>
      <trkpt lat="43.42463" lon="6.0638">
        <ele>281.45913696289</ele>
        <time>2014-05-28T14:59:13Z</time>
      </trkpt>
      <trkpt lat="43.4245" lon="6.06383">
        <ele>281.08877563477</ele>
        <time>2014-05-28T14:59:15Z</time>
      </trkpt>
      <trkpt lat="43.42437" lon="6.0639">
        <ele>279.98629760742</ele>
        <time>2014-05-28T14:59:17Z</time>
      </trkpt>
      <trkpt lat="43.4241" lon="6.06406">
        <ele>279.22872924805</ele>
        <time>2014-05-28T14:59:22Z</time>
      </trkpt>
      <trkpt lat="43.42406" lon="6.06405">
        <ele>279.20199584961</ele>
        <time>2014-05-28T14:59:23Z</time>
      </trkpt>
      <trkpt lat="43.42395" lon="6.06401">
        <ele>279.20803833008</ele>
        <time>2014-05-28T14:59:25Z</time>
      </trkpt>
      <trkpt lat="43.42371" lon="6.06398">
        <ele>278.0302734375</ele>
        <time>2014-05-28T14:59:29Z</time>
      </trkpt>
      <trkpt lat="43.42355" lon="6.06415">
        <ele>275.71856689453</ele>
        <time>2014-05-28T14:59:32Z</time>
      </trkpt>
      <trkpt lat="43.4235" lon="6.06421">
        <ele>274.96765136719</ele>
        <time>2014-05-28T14:59:33Z</time>
      </trkpt>
      <trkpt lat="43.42345" lon="6.06425">
        <ele>274.37423706055</ele>
        <time>2014-05-28T14:59:34Z</time>
      </trkpt>
      <trkpt lat="43.42339" lon="6.06429">
        <ele>273.88098144531</ele>
        <time>2014-05-28T14:59:35Z</time>
      </trkpt>
      <trkpt lat="43.42334" lon="6.06433">
        <ele>273.4765625</ele>
        <time>2014-05-28T14:59:36Z</time>
      </trkpt>
      <trkpt lat="43.42305" lon="6.06459">
        <ele>268.92535400391</ele>
        <time>2014-05-28T14:59:42Z</time>
      </trkpt>
      <trkpt lat="43.42289" lon="6.06478">
        <ele>266.53994750977</ele>
        <time>2014-05-28T14:59:45Z</time>
      </trkpt>
      <trkpt lat="43.42274" lon="6.065">
        <ele>264.77734375</ele>
        <time>2014-05-28T14:59:48Z</time>
      </trkpt>
      <trkpt lat="43.42268" lon="6.06504">
        <ele>264.10968017578</ele>
        <time>2014-05-28T14:59:49Z</time>
      </trkpt>
      <trkpt lat="43.42261" lon="6.06508">
        <ele>263.4831237793</ele>
        <time>2014-05-28T14:59:50Z</time>
      </trkpt>
      <trkpt lat="43.42254" lon="6.06511">
        <ele>262.91320800781</ele>
        <time>2014-05-28T14:59:51Z</time>
      </trkpt>
      <trkpt lat="43.42248" lon="6.06512">
        <ele>262.47381591797</ele>
        <time>2014-05-28T14:59:52Z</time>
      </trkpt>
      <trkpt lat="43.42243" lon="6.06512">
        <ele>262.18786621094</ele>
        <time>2014-05-28T14:59:53Z</time>
      </trkpt>
      <trkpt lat="43.42238" lon="6.06512">
        <ele>261.94317626953</ele>
        <time>2014-05-28T14:59:54Z</time>
      </trkpt>
      <trkpt lat="43.42228" lon="6.0651">
        <ele>261.54290771484</ele>
        <time>2014-05-28T14:59:56Z</time>
      </trkpt>
      <trkpt lat="43.42221" lon="6.06508">
        <ele>261.38995361328</ele>
        <time>2014-05-28T14:59:57Z</time>
      </trkpt>
      <trkpt lat="43.42208" lon="6.06508">
        <ele>260.72937011719</ele>
        <time>2014-05-28T14:59:59Z</time>
      </trkpt>
      <trkpt lat="43.42203" lon="6.06507">
        <ele>260.46151733398</ele>
        <time>2014-05-28T15:00:00Z</time>
      </trkpt>
      <trkpt lat="43.42199" lon="6.06505">
        <ele>260.26327514648</ele>
        <time>2014-05-28T15:00:01Z</time>
      </trkpt>
      <trkpt lat="43.42196" lon="6.06501">
        <ele>260.12738037109</ele>
        <time>2014-05-28T15:00:02Z</time>
      </trkpt>
      <trkpt lat="43.4219" lon="6.06488">
        <ele>260.13150024414</ele>
        <time>2014-05-28T15:00:05Z</time>
      </trkpt>
      <trkpt lat="43.42189" lon="6.06483">
        <ele>260.20874023438</ele>
        <time>2014-05-28T15:00:06Z</time>
      </trkpt>
      <trkpt lat="43.42187" lon="6.06474">
        <ele>260.41302490234</ele>
        <time>2014-05-28T15:00:08Z</time>
      </trkpt>
      <trkpt lat="43.42186" lon="6.06469">
        <ele>260.58587646484</ele>
        <time>2014-05-28T15:00:09Z</time>
      </trkpt>
      <trkpt lat="43.42184" lon="6.06463">
        <ele>260.78979492188</ele>
        <time>2014-05-28T15:00:10Z</time>
      </trkpt>
      <trkpt lat="43.42183" lon="6.06457">
        <ele>261.02578735352</ele>
        <time>2014-05-28T15:00:11Z</time>
      </trkpt>
      <trkpt lat="43.42179" lon="6.06438">
        <ele>261.39990234375</ele>
        <time>2014-05-28T15:00:14Z</time>
      </trkpt>
      <trkpt lat="43.42176" lon="6.06425">
        <ele>261.20318603516</ele>
        <time>2014-05-28T15:00:16Z</time>
      </trkpt>
      <trkpt lat="43.42171" lon="6.06398">
        <ele>261.85385131836</ele>
        <time>2014-05-28T15:00:20Z</time>
      </trkpt>
      <trkpt lat="43.42168" lon="6.06385">
        <ele>262.30285644531</ele>
        <time>2014-05-28T15:00:22Z</time>
      </trkpt>
      <trkpt lat="43.42163" lon="6.06359">
        <ele>262.68978881836</ele>
        <time>2014-05-28T15:00:26Z</time>
      </trkpt>
      <trkpt lat="43.42162" lon="6.06352">
        <ele>262.72052001953</ele>
        <time>2014-05-28T15:00:27Z</time>
      </trkpt>
      <trkpt lat="43.42161" lon="6.06346">
        <ele>262.79956054688</ele>
        <time>2014-05-28T15:00:28Z</time>
      </trkpt>
      <trkpt lat="43.42158" lon="6.06329">
        <ele>263.07797241211</ele>
        <time>2014-05-28T15:00:31Z</time>
      </trkpt>
      <trkpt lat="43.42157" lon="6.06313">
        <ele>264.02554321289</ele>
        <time>2014-05-28T15:00:34Z</time>
      </trkpt>
      <trkpt lat="43.42156" lon="6.06303">
        <ele>264.54037475586</ele>
        <time>2014-05-28T15:00:36Z</time>
      </trkpt>
      <trkpt lat="43.42156" lon="6.06289">
        <ele>265.02618408203</ele>
        <time>2014-05-28T15:00:39Z</time>
      </trkpt>
      <trkpt lat="43.42156" lon="6.06271">
        <ele>265.68536376953</ele>
        <time>2014-05-28T15:00:43Z</time>
      </trkpt>
      <trkpt lat="43.42155" lon="6.06256">
        <ele>266.10250854492</ele>
        <time>2014-05-28T15:00:46Z</time>
      </trkpt>
      <trkpt lat="43.42154" lon="6.06243">
        <ele>266.41149902344</ele>
        <time>2014-05-28T15:00:49Z</time>
      </trkpt>
      <trkpt lat="43.42154" lon="6.06239">
        <ele>266.50933837891</ele>
        <time>2014-05-28T15:00:50Z</time>
      </trkpt>
      <trkpt lat="43.42153" lon="6.06235">
        <ele>266.55224609375</ele>
        <time>2014-05-28T15:00:51Z</time>
      </trkpt>
      <trkpt lat="43.42149" lon="6.06225">
        <ele>266.28790283203</ele>
        <time>2014-05-28T15:00:54Z</time>
      </trkpt>
      <trkpt lat="43.42139" lon="6.06222">
        <ele>265.02276611328</ele>
        <time>2014-05-28T15:00:58Z</time>
      </trkpt>
      <trkpt lat="43.42128" lon="6.06225">
        <ele>262.98455810547</ele>
        <time>2014-05-28T15:01:02Z</time>
      </trkpt>
      <trkpt lat="43.42125" lon="6.06225">
        <ele>262.50891113281</ele>
        <time>2014-05-28T15:01:03Z</time>
      </trkpt>
      <trkpt lat="43.42123" lon="6.06225">
        <ele>262.10256958008</ele>
        <time>2014-05-28T15:01:04Z</time>
      </trkpt>
      <trkpt lat="43.42122" lon="6.06225">
        <ele>261.83279418945</ele>
        <time>2014-05-28T15:01:05Z</time>
      </trkpt>
      <trkpt lat="43.4212" lon="6.06225">
        <ele>261.63101196289</ele>
        <time>2014-05-28T15:01:06Z</time>
      </trkpt>
      <trkpt lat="43.4212" lon="6.06225">
        <ele>261.56484985352</ele>
        <time>2014-05-28T15:01:07Z</time>
      </trkpt>
      <trkpt lat="43.4212" lon="6.06225">
        <ele>261.56484985352</ele>
        <time>2014-05-28T15:01:20Z</time>
      </trkpt>
      <trkpt lat="43.42118" lon="6.06225">
        <ele>261.22485351562</ele>
        <time>2014-05-28T15:01:25Z</time>
      </trkpt>
      <trkpt lat="43.42116" lon="6.06227">
        <ele>260.88143920898</ele>
        <time>2014-05-28T15:01:26Z</time>
      </trkpt>
      <trkpt lat="43.42101" lon="6.06232">
        <ele>258.85668945312</ele>
        <time>2014-05-28T15:01:31Z</time>
      </trkpt>
      <trkpt lat="43.42096" lon="6.06233">
        <ele>258.40350341797</ele>
        <time>2014-05-28T15:01:32Z</time>
      </trkpt>
      <trkpt lat="43.42091" lon="6.06235">
        <ele>257.86791992188</ele>
        <time>2014-05-28T15:01:33Z</time>
      </trkpt>
      <trkpt lat="43.42086" lon="6.06236">
        <ele>257.29113769531</ele>
        <time>2014-05-28T15:01:34Z</time>
      </trkpt>
      <trkpt lat="43.4208" lon="6.06239">
        <ele>256.78210449219</ele>
        <time>2014-05-28T15:01:35Z</time>
      </trkpt>
      <trkpt lat="43.42074" lon="6.06241">
        <ele>256.34265136719</ele>
        <time>2014-05-28T15:01:36Z</time>
      </trkpt>
      <trkpt lat="43.42067" lon="6.06243">
        <ele>255.84826660156</ele>
        <time>2014-05-28T15:01:37Z</time>
      </trkpt>
      <trkpt lat="43.42059" lon="6.06246">
        <ele>255.271484375</ele>
        <time>2014-05-28T15:01:38Z</time>
      </trkpt>
      <trkpt lat="43.42051" lon="6.06249">
        <ele>254.69470214844</ele>
        <time>2014-05-28T15:01:39Z</time>
      </trkpt>
      <trkpt lat="43.42043" lon="6.06252">
        <ele>254.06298828125</ele>
        <time>2014-05-28T15:01:40Z</time>
      </trkpt>
      <trkpt lat="43.42024" lon="6.06259">
        <ele>252.71716308594</ele>
        <time>2014-05-28T15:01:42Z</time>
      </trkpt>
      <trkpt lat="43.42015" lon="6.06261">
        <ele>252.05798339844</ele>
        <time>2014-05-28T15:01:43Z</time>
      </trkpt>
      <trkpt lat="43.42006" lon="6.06264">
        <ele>251.39880371094</ele>
        <time>2014-05-28T15:01:44Z</time>
      </trkpt>
      <trkpt lat="43.41997" lon="6.06267">
        <ele>250.69183349609</ele>
        <time>2014-05-28T15:01:45Z</time>
      </trkpt>
      <trkpt lat="43.41988" lon="6.0627">
        <ele>249.70306396484</ele>
        <time>2014-05-28T15:01:46Z</time>
      </trkpt>
      <trkpt lat="43.4198" lon="6.06273">
        <ele>248.837890625</ele>
        <time>2014-05-28T15:01:47Z</time>
      </trkpt>
      <trkpt lat="43.41972" lon="6.06276">
        <ele>247.95434570312</ele>
        <time>2014-05-28T15:01:48Z</time>
      </trkpt>
      <trkpt lat="43.41963" lon="6.06278">
        <ele>247.32263183594</ele>
        <time>2014-05-28T15:01:49Z</time>
      </trkpt>
      <trkpt lat="43.41939" lon="6.06287">
        <ele>245.38842773438</ele>
        <time>2014-05-28T15:01:52Z</time>
      </trkpt>
      <trkpt lat="43.41916" lon="6.06293">
        <ele>242.97180175781</ele>
        <time>2014-05-28T15:01:55Z</time>
      </trkpt>
      <trkpt lat="43.41901" lon="6.06294">
        <ele>241.845703125</ele>
        <time>2014-05-28T15:01:57Z</time>
      </trkpt>
      <trkpt lat="43.41892" lon="6.06294">
        <ele>241.24145507812</ele>
        <time>2014-05-28T15:01:58Z</time>
      </trkpt>
      <trkpt lat="43.41884" lon="6.06293">
        <ele>240.81860351562</ele>
        <time>2014-05-28T15:01:59Z</time>
      </trkpt>
      <trkpt lat="43.41861" lon="6.06291">
        <ele>239.98089599609</ele>
        <time>2014-05-28T15:02:02Z</time>
      </trkpt>
      <trkpt lat="43.41822" lon="6.0629">
        <ele>238.59387207031</ele>
        <time>2014-05-28T15:02:07Z</time>
      </trkpt>
      <trkpt lat="43.41815" lon="6.0629">
        <ele>238.3466796875</ele>
        <time>2014-05-28T15:02:08Z</time>
      </trkpt>
      <trkpt lat="43.41808" lon="6.06288">
        <ele>238.07202148438</ele>
        <time>2014-05-28T15:02:09Z</time>
      </trkpt>
      <trkpt lat="43.418" lon="6.06284">
        <ele>237.76684570312</ele>
        <time>2014-05-28T15:02:10Z</time>
      </trkpt>
      <trkpt lat="43.41788" lon="6.06273">
        <ele>237.37164306641</ele>
        <time>2014-05-28T15:02:12Z</time>
      </trkpt>
      <trkpt lat="43.41775" lon="6.06263">
        <ele>236.80944824219</ele>
        <time>2014-05-28T15:02:14Z</time>
      </trkpt>
      <trkpt lat="43.41768" lon="6.06259">
        <ele>236.26013183594</ele>
        <time>2014-05-28T15:02:15Z</time>
      </trkpt>
      <trkpt lat="43.41752" lon="6.06251">
        <ele>235.16149902344</ele>
        <time>2014-05-28T15:02:17Z</time>
      </trkpt>
      <trkpt lat="43.41745" lon="6.06249">
        <ele>234.8240814209</ele>
        <time>2014-05-28T15:02:18Z</time>
      </trkpt>
      <trkpt lat="43.41719" lon="6.06248">
        <ele>233.89971923828</ele>
        <time>2014-05-28T15:02:21Z</time>
      </trkpt>
      <trkpt lat="43.41711" lon="6.06248">
        <ele>233.58386230469</ele>
        <time>2014-05-28T15:02:22Z</time>
      </trkpt>
      <trkpt lat="43.41703" lon="6.06248">
        <ele>233.29547119141</ele>
        <time>2014-05-28T15:02:23Z</time>
      </trkpt>
      <trkpt lat="43.41694" lon="6.06248">
        <ele>232.9871673584</ele>
        <time>2014-05-28T15:02:24Z</time>
      </trkpt>
      <trkpt lat="43.41686" lon="6.06248">
        <ele>232.43168640137</ele>
        <time>2014-05-28T15:02:25Z</time>
      </trkpt>
      <trkpt lat="43.41665" lon="6.06245">
        <ele>231.10423278809</ele>
        <time>2014-05-28T15:02:28Z</time>
      </trkpt>
      <trkpt lat="43.41633" lon="6.06231">
        <ele>229.56469726562</ele>
        <time>2014-05-28T15:02:33Z</time>
      </trkpt>
      <trkpt lat="43.41628" lon="6.06226">
        <ele>229.18017578125</ele>
        <time>2014-05-28T15:02:34Z</time>
      </trkpt>
      <trkpt lat="43.41612" lon="6.06206">
        <ele>228.64193725586</ele>
        <time>2014-05-28T15:02:38Z</time>
      </trkpt>
      <trkpt lat="43.41607" lon="6.06206">
        <ele>228.31063842773</ele>
        <time>2014-05-28T15:02:40Z</time>
      </trkpt>
      <trkpt lat="43.41607" lon="6.06213">
        <ele>228.07202148438</ele>
        <time>2014-05-28T15:02:43Z</time>
      </trkpt>
      <trkpt lat="43.41607" lon="6.06216">
        <ele>227.96560668945</ele>
        <time>2014-05-28T15:02:44Z</time>
      </trkpt>
      <trkpt lat="43.41607" lon="6.06219">
        <ele>227.8505859375</ele>
        <time>2014-05-28T15:02:45Z</time>
      </trkpt>
      <trkpt lat="43.41606" lon="6.06226">
        <ele>227.58534240723</ele>
        <time>2014-05-28T15:02:49Z</time>
      </trkpt>
      <trkpt lat="43.41605" lon="6.06227">
        <ele>227.54833984375</ele>
        <time>2014-05-28T15:02:50Z</time>
      </trkpt>
      <trkpt lat="43.41605" lon="6.0623">
        <ele>227.52885437012</ele>
        <time>2014-05-28T15:02:57Z</time>
      </trkpt>
      <trkpt lat="43.41603" lon="6.0624">
        <ele>227.24261474609</ele>
        <time>2014-05-28T15:03:00Z</time>
      </trkpt>
      <trkpt lat="43.41599" lon="6.06254">
        <ele>226.5344543457</ele>
        <time>2014-05-28T15:03:05Z</time>
      </trkpt>
      <trkpt lat="43.41597" lon="6.06256">
        <ele>226.28726196289</ele>
        <time>2014-05-28T15:03:06Z</time>
      </trkpt>
      <trkpt lat="43.41592" lon="6.0626">
        <ele>225.56455993652</ele>
        <time>2014-05-28T15:03:08Z</time>
      </trkpt>
      <trkpt lat="43.41582" lon="6.06283">
        <ele>223.75253295898</ele>
        <time>2014-05-28T15:03:13Z</time>
      </trkpt>
      <trkpt lat="43.41582" lon="6.06309">
        <ele>222.84271240234</ele>
        <time>2014-05-28T15:03:17Z</time>
      </trkpt>
      <trkpt lat="43.41577" lon="6.06323">
        <ele>222.14749145508</ele>
        <time>2014-05-28T15:03:19Z</time>
      </trkpt>
      <trkpt lat="43.41573" lon="6.06329">
        <ele>221.77841186523</ele>
        <time>2014-05-28T15:03:20Z</time>
      </trkpt>
      <trkpt lat="43.41568" lon="6.06335">
        <ele>221.46148681641</ele>
        <time>2014-05-28T15:03:21Z</time>
      </trkpt>
      <trkpt lat="43.41557" lon="6.06358">
        <ele>221.03576660156</ele>
        <time>2014-05-28T15:03:24Z</time>
      </trkpt>
      <trkpt lat="43.41554" lon="6.06367">
        <ele>220.77026367188</ele>
        <time>2014-05-28T15:03:25Z</time>
      </trkpt>
      <trkpt lat="43.41552" lon="6.06378">
        <ele>220.3908996582</ele>
        <time>2014-05-28T15:03:26Z</time>
      </trkpt>
      <trkpt lat="43.4155" lon="6.06388">
        <ele>220.02868652344</ele>
        <time>2014-05-28T15:03:27Z</time>
      </trkpt>
      <trkpt lat="43.41548" lon="6.06398">
        <ele>220</ele>
        <time>2014-05-28T15:03:28Z</time>
      </trkpt>
      <trkpt lat="43.41546" lon="6.06408">
        <ele>220</ele>
        <time>2014-05-28T15:03:29Z</time>
      </trkpt>
      <trkpt lat="43.41544" lon="6.06417">
        <ele>220</ele>
        <time>2014-05-28T15:03:30Z</time>
      </trkpt>
      <trkpt lat="43.41542" lon="6.06426">
        <ele>220</ele>
        <time>2014-05-28T15:03:31Z</time>
      </trkpt>
      <trkpt lat="43.41541" lon="6.06435">
        <ele>220</ele>
        <time>2014-05-28T15:03:32Z</time>
      </trkpt>
      <trkpt lat="43.4154" lon="6.06442">
        <ele>220</ele>
        <time>2014-05-28T15:03:33Z</time>
      </trkpt>
      <trkpt lat="43.41539" lon="6.0645">
        <ele>220</ele>
        <time>2014-05-28T15:03:34Z</time>
      </trkpt>
      <trkpt lat="43.4154" lon="6.06455">
        <ele>220</ele>
        <time>2014-05-28T15:03:35Z</time>
      </trkpt>
      <trkpt lat="43.41541" lon="6.06459">
        <ele>220</ele>
        <time>2014-05-28T15:03:36Z</time>
      </trkpt>
      <trkpt lat="43.41541" lon="6.06463">
        <ele>220</ele>
        <time>2014-05-28T15:03:38Z</time>
      </trkpt>
      <trkpt lat="43.41539" lon="6.06464">
        <ele>220</ele>
        <time>2014-05-28T15:03:39Z</time>
      </trkpt>
      <trkpt lat="43.41536" lon="6.06466">
        <ele>220</ele>
        <time>2014-05-28T15:03:41Z</time>
      </trkpt>
      <trkpt lat="43.41533" lon="6.06467">
        <ele>220</ele>
        <time>2014-05-28T15:03:42Z</time>
      </trkpt>
      <trkpt lat="43.41531" lon="6.06471">
        <ele>220</ele>
        <time>2014-05-28T15:03:43Z</time>
      </trkpt>
      <trkpt lat="43.41529" lon="6.06476">
        <ele>220</ele>
        <time>2014-05-28T15:03:44Z</time>
      </trkpt>
      <trkpt lat="43.41529" lon="6.06482">
        <ele>220</ele>
        <time>2014-05-28T15:03:45Z</time>
      </trkpt>
      <trkpt lat="43.41522" lon="6.06509">
        <ele>220</ele>
        <time>2014-05-28T15:03:50Z</time>
      </trkpt>
      <trkpt lat="43.41521" lon="6.06515">
        <ele>220</ele>
        <time>2014-05-28T15:03:51Z</time>
      </trkpt>
      <trkpt lat="43.41518" lon="6.06534">
        <ele>220</ele>
        <time>2014-05-28T15:03:54Z</time>
      </trkpt>
      <trkpt lat="43.41516" lon="6.0654">
        <ele>220</ele>
        <time>2014-05-28T15:03:55Z</time>
      </trkpt>
      <trkpt lat="43.41511" lon="6.06578">
        <ele>219.52432250977</ele>
        <time>2014-05-28T15:04:00Z</time>
      </trkpt>
      <trkpt lat="43.41506" lon="6.06619">
        <ele>219</ele>
        <time>2014-05-28T15:04:05Z</time>
      </trkpt>
      <trkpt lat="43.41502" lon="6.06643">
        <ele>219</ele>
        <time>2014-05-28T15:04:08Z</time>
      </trkpt>
      <trkpt lat="43.41496" lon="6.06695">
        <ele>219.16149902344</ele>
        <time>2014-05-28T15:04:14Z</time>
      </trkpt>
      <trkpt lat="43.41492" lon="6.06755">
        <ele>219.88175964356</ele>
        <time>2014-05-28T15:04:20Z</time>
      </trkpt>
      <trkpt lat="43.41491" lon="6.06766">
        <ele>219.61793518066</ele>
        <time>2014-05-28T15:04:21Z</time>
      </trkpt>
      <trkpt lat="43.41489" lon="6.06777">
        <ele>219.39854431152</ele>
        <time>2014-05-28T15:04:22Z</time>
      </trkpt>
      <trkpt lat="43.41488" lon="6.06788">
        <ele>219.44989013672</ele>
        <time>2014-05-28T15:04:23Z</time>
      </trkpt>
      <trkpt lat="43.41481" lon="6.06818">
        <ele>219.69708251953</ele>
        <time>2014-05-28T15:04:26Z</time>
      </trkpt>
      <trkpt lat="43.41475" lon="6.06834">
        <ele>219.86254882812</ele>
        <time>2014-05-28T15:04:28Z</time>
      </trkpt>
      <trkpt lat="43.41473" lon="6.06841">
        <ele>219.68057250977</ele>
        <time>2014-05-28T15:04:29Z</time>
      </trkpt>
      <trkpt lat="43.41473" lon="6.06846">
        <ele>219.52264404297</ele>
        <time>2014-05-28T15:04:30Z</time>
      </trkpt>
      <trkpt lat="43.41472" lon="6.0685">
        <ele>219.40077209473</ele>
        <time>2014-05-28T15:04:31Z</time>
      </trkpt>
      <trkpt lat="43.41472" lon="6.06853">
        <ele>219.29170227051</ele>
        <time>2014-05-28T15:04:32Z</time>
      </trkpt>
      <trkpt lat="43.41472" lon="6.06857">
        <ele>219.14923095703</ele>
        <time>2014-05-28T15:04:34Z</time>
      </trkpt>
      <trkpt lat="43.41473" lon="6.06861">
        <ele>218.99221801758</ele>
        <time>2014-05-28T15:04:36Z</time>
      </trkpt>
      <trkpt lat="43.41475" lon="6.06868">
        <ele>218.68220520019</ele>
        <time>2014-05-28T15:04:39Z</time>
      </trkpt>
      <trkpt lat="43.41476" lon="6.06874">
        <ele>218.46516418457</ele>
        <time>2014-05-28T15:04:41Z</time>
      </trkpt>
      <trkpt lat="43.41476" lon="6.06879">
        <ele>218.31225585938</ele>
        <time>2014-05-28T15:04:45Z</time>
      </trkpt>
      <trkpt lat="43.41476" lon="6.06884">
        <ele>218.14199829102</ele>
        <time>2014-05-28T15:04:55Z</time>
      </trkpt>
      <trkpt lat="43.41471" lon="6.06889">
        <ele>218</ele>
        <time>2014-05-28T15:05:00Z</time>
      </trkpt>
      <trkpt lat="43.41472" lon="6.06895">
        <ele>217.99983215332</ele>
        <time>2014-05-28T15:05:05Z</time>
      </trkpt>
      <trkpt lat="43.41474" lon="6.06898">
        <ele>217.97596740723</ele>
        <time>2014-05-28T15:05:10Z</time>
      </trkpt>
      <trkpt lat="43.41474" lon="6.06904">
        <ele>217.96142578125</ele>
        <time>2014-05-28T15:05:12Z</time>
      </trkpt>
      <trkpt lat="43.41472" lon="6.06911">
        <ele>217.99937438965</ele>
        <time>2014-05-28T15:05:14Z</time>
      </trkpt>
      <trkpt lat="43.41468" lon="6.06923">
        <ele>218</ele>
        <time>2014-05-28T15:05:19Z</time>
      </trkpt>
      <trkpt lat="43.41467" lon="6.06926">
        <ele>218</ele>
        <time>2014-05-28T15:05:21Z</time>
      </trkpt>
      <trkpt lat="43.41468" lon="6.06928">
        <ele>218</ele>
        <time>2014-05-28T15:05:24Z</time>
      </trkpt>
      <trkpt lat="43.41472" lon="6.06937">
        <ele>218</ele>
        <time>2014-05-28T15:05:29Z</time>
      </trkpt>
      <trkpt lat="43.41484" lon="6.06956">
        <ele>217.33087158203</ele>
        <time>2014-05-28T15:05:35Z</time>
      </trkpt>
      <trkpt lat="43.41491" lon="6.06969">
        <ele>217.04441833496</ele>
        <time>2014-05-28T15:05:39Z</time>
      </trkpt>
      <trkpt lat="43.41491" lon="6.06973">
        <ele>217</ele>
        <time>2014-05-28T15:05:42Z</time>
      </trkpt>
      <trkpt lat="43.41491" lon="6.06983">
        <ele>217</ele>
        <time>2014-05-28T15:05:45Z</time>
      </trkpt>
      <trkpt lat="43.41487" lon="6.07007">
        <ele>216.88430786133</ele>
        <time>2014-05-28T15:05:49Z</time>
      </trkpt>
      <trkpt lat="43.41485" lon="6.07013">
        <ele>216.74845886231</ele>
        <time>2014-05-28T15:05:50Z</time>
      </trkpt>
      <trkpt lat="43.41471" lon="6.07045">
        <ele>216</ele>
        <time>2014-05-28T15:05:55Z</time>
      </trkpt>
      <trkpt lat="43.41469" lon="6.07051">
        <ele>216</ele>
        <time>2014-05-28T15:05:56Z</time>
      </trkpt>
      <trkpt lat="43.41467" lon="6.07059">
        <ele>215.89138793945</ele>
        <time>2014-05-28T15:05:57Z</time>
      </trkpt>
      <trkpt lat="43.41466" lon="6.07066">
        <ele>215.61672973633</ele>
        <time>2014-05-28T15:05:58Z</time>
      </trkpt>
      <trkpt lat="43.41467" lon="6.07073">
        <ele>215.37811279297</ele>
        <time>2014-05-28T15:05:59Z</time>
      </trkpt>
      <trkpt lat="43.41472" lon="6.07077">
        <ele>215.21411132812</ele>
        <time>2014-05-28T15:06:01Z</time>
      </trkpt>
      <trkpt lat="43.41476" lon="6.07078">
        <ele>215.33599853516</ele>
        <time>2014-05-28T15:06:02Z</time>
      </trkpt>
      <trkpt lat="43.41492" lon="6.07083">
        <ele>215.74282836914</ele>
        <time>2014-05-28T15:06:06Z</time>
      </trkpt>
      <trkpt lat="43.415" lon="6.07083">
        <ele>215.99345397949</ele>
        <time>2014-05-28T15:06:08Z</time>
      </trkpt>
      <trkpt lat="43.41531" lon="6.07076">
        <ele>217.25108337402</ele>
        <time>2014-05-28T15:06:15Z</time>
      </trkpt>
      <trkpt lat="43.4154" lon="6.07083">
        <ele>217</ele>
        <time>2014-05-28T15:06:18Z</time>
      </trkpt>
      <trkpt lat="43.41544" lon="6.07108">
        <ele>217</ele>
        <time>2014-05-28T15:06:23Z</time>
      </trkpt>
      <trkpt lat="43.41551" lon="6.0712">
        <ele>217</ele>
        <time>2014-05-28T15:06:26Z</time>
      </trkpt>
      <trkpt lat="43.41563" lon="6.07117">
        <ele>217.28295898438</ele>
        <time>2014-05-28T15:06:29Z</time>
      </trkpt>
      <trkpt lat="43.41582" lon="6.0711">
        <ele>217.94213867188</ele>
        <time>2014-05-28T15:06:34Z</time>
      </trkpt>
      <trkpt lat="43.41584" lon="6.07105">
        <ele>218</ele>
        <time>2014-05-28T15:06:36Z</time>
      </trkpt>
      <trkpt lat="43.41584" lon="6.07102">
        <ele>218</ele>
        <time>2014-05-28T15:06:37Z</time>
      </trkpt>
      <trkpt lat="43.41581" lon="6.07076">
        <ele>218.19149780273</ele>
        <time>2014-05-28T15:06:43Z</time>
      </trkpt>
      <trkpt lat="43.41579" lon="6.07047">
        <ele>218.84600830078</ele>
        <time>2014-05-28T15:06:50Z</time>
      </trkpt>
      <trkpt lat="43.41579" lon="6.07043">
        <ele>218.84600830078</ele>
        <time>2014-05-28T15:06:54Z</time>
      </trkpt>
      <trkpt lat="43.41579" lon="6.07043">
        <ele>218.84600830078</ele>
        <time>2014-05-28T15:07:02Z</time>
      </trkpt>
      <trkpt lat="43.41579" lon="6.07043">
        <ele>218.84600830078</ele>
        <time>2014-05-28T15:07:09Z</time>
      </trkpt>
      <trkpt lat="43.41579" lon="6.07041">
        <ele>218.84600830078</ele>
        <time>2014-05-28T15:07:20Z</time>
      </trkpt>
      <trkpt lat="43.41579" lon="6.07041">
        <ele>218.84600830078</ele>
        <time>2014-05-28T15:07:28Z</time>
      </trkpt>
    </trkseg>
  </trk>
</gpx>